     2.10           OBSERVATION DATA    G (GPS)             RINEX VERSION / TYPE
teqc 2000Feb29 simon 20011212 22:17:02UTC                   PGM / RUN BY / DATE
Linux 2.0.36|Pentium II|gcc|Linux|486/DX+                   COMMENT
BIT 2 OF LLI FLAGS DATA COLLECTED UNDER A/S CONDITION       COMMENT
GS43                                                        MARKER NAME
gs43                                                        MARKER NUMBER
___ -Unknown-                                               OBSERVER / AGENCY
486 ASHTECH Z-XII3 4J30                                     REC # / TYPE / VERS
112 ASH701933_M                                             ANT # / TYPE
 -2387784.0000 -4577838.0000  3735281.0000                  APPROX POSITION XYZ
        1.0920        0.0000        0.0000                  ANTENNA: DELTA H/E/N
     1     1                                                WAVELENGTH FACT L1/2
     7    L1    L2    C1    P1    P2    S1    S2            # / TYPES OF OBSERV
    30.0000                                                 INTERVAL
SNR is mapped to RINEX snr flag value [1-9]                 COMMENT
L1: 1 -> 1; 90 -> 5; 210 -> 9                               COMMENT
L2: 1 -> 1; 150 -> 5; 250 -> 9                              COMMENT
Original height was 1.1690                                  COMMENT
New height found assuming measured height 1.1690            COMMENT
and assuming radial 0.1737 vertical -0.0640                 COMMENT
  2001    11    12    16     3   30.0000000     GPS         TIME OF FIRST OBS
                                                            END OF HEADER
 01 11 12 16  3 30.0000000  0  6G25G22G20G 1G29G11
     13558.89559      8043.50957  16321540.222    16321542.484    16321550.162
       244.000         212.000
   -109167.42249    -64843.81546  17538918.061    17538919.528    17538931.422
       227.000         182.000
    -80600.63649    -48256.25747  16098517.296    16098518.987    16098526.656
       241.000         208.000
    -77079.03449    -47842.77947  17619559.667    17619560.811    17619570.264
       234.000         194.000
     14475.58059      9043.20856  17361523.868    17361526.256    17361536.085
       226.000         184.000
     33875.69759     22222.43357  17576984.320    17576985.429    17576993.242
       237.000         190.000
 01 11 12 16  4  0.0000000  0  6G25G22G20G 1G29G11
     29580.99749     20528.15547  16324590.263    16324591.375    16324599.170
       240.000         205.000
   -234311.82049   -162358.81447  17515104.691    17515105.169    17515117.115
       229.000         189.000
   -173534.77349   -120672.54648  16080833.578    16080834.191    16080841.888
       242.000         213.000
   -169438.53849   -119811.22947  17601985.048    17601985.501    17601994.747
       238.000         193.000
     32230.29249     22877.88946  17364903.611    17364904.915    17364914.733
       221.000         176.000
     67385.16149     48333.56747  17583361.582    17583362.208    17583370.107
       234.000         189.000
 01 11 12 16  4 30.0000000  0  7G14G25G22G20G 1G29G11
     14590.44953                  24929620.834
       213.000          74.000
     46031.65749     33346.71147  21424192.930    21424193.708    21424201.476
       242.000         210.000
   -359012.20749   -259527.90046  22587847.207    22587847.288    22587859.120
       229.000         185.000
   -265956.66849   -192689.61747  21159718.428    21159718.666    21159726.340
       242.000         209.000
   -261531.17049   -191571.79447  22680932.461    22680932.634    22680941.740
       236.000         195.000
     50169.92049     36856.61647  22464789.561    22464790.458    22464800.185
       231.000         192.000
    101293.22149     74755.23747  22686285.961    22686286.372    22686294.539
       234.000         188.000
 01 11 12 16  5  0.0000000  0  7G14G25G22G20G 1G29G11
     46188.23655                  24937338.859
       198.000         139.000
     62837.95949     46442.39347  21427391.249    21427391.874    21427399.638
       243.000         205.000
   -483496.19349   -356528.33147  22564158.813    22564158.781    22564170.580
       228.000         189.000
   -358058.60049   -264457.40947  21142192.198    21142192.302    21142199.934
       240.000         211.000
   -353551.12349   -263275.72447  22663421.785    22663421.859    22663430.981
       232.000         193.000
     68224.94349     50925.32046  22468225.594    22468226.266    22468235.852
       223.000         177.000
    135546.10249    101445.64446  22692804.155    22692804.507    22692812.789
       236.000         187.000
 01 11 12 16  5 30.0000000  0  7G14G25G22G20G 1G29G11
     77759.59845                  24945049.700
       208.000         138.000
     79937.86449     59766.87547  21430645.481    21430645.971    21430653.719
       242.000         211.000
   -607740.70949   -453342.17447  22540516.013    22540515.828    22540527.564
       227.000         188.000
   -449836.79449   -335972.90347  21124727.560    21124727.531    21124735.168
       241.000         209.000
   -445497.28449   -334922.09747  22645925.093    22645925.118    22645934.143
       234.000         194.000
     86334.08249     65036.14247  22471671.795    22471672.391    22471682.000
       231.000         191.000
    170070.58449    128347.65047  22699374.111    22699374.378    22699382.566
       234.000         188.000
 01 11 12 16  6  0.0000000  0  7G14G25G22G20G 1G29G11
    148390.17749    109329.18345  24952759.586    24952759.005    24952778.224
       211.000         152.000
     97360.22749     73342.61447  21433960.973    21433961.368    21433969.113
       242.000         210.000
   -731711.13249   -549942.43646  22516925.278    22516924.995    22516936.703
       228.000         186.000
   -541257.70449   -407210.02547  21107330.819    21107330.724    21107338.334
       241.000         208.000
   -537338.41449   -406486.66647  22628448.291    22628448.317    22628457.354
       236.000         194.000
    104528.76149     79213.61447  22475134.340    22475134.839    22475144.428
       232.000         193.000
    204895.36149    155483.68946  22706001.160    22706001.372    22706009.498
       234.000         186.000
 01 11 12 16  6 30.0000000  0  7G14G25G22G20G 1G29G11
    188771.43649    140794.64155  24960443.963    24960444.308    24960460.571
       210.000         152.000
    114973.18749     87066.87647  21437312.725    21437313.049    21437320.774
       242.000         210.000
   -855534.07749   -646427.78846  22493362.548    22493362.220    22493373.895
       229.000         187.000
   -632449.42149   -478268.55147  21089977.727    21089977.538    21089985.119
       241.000         209.000
   -629204.83449   -478070.91947  22610966.713    22610966.734    22610975.784
       235.000         194.000
    122678.98049     93356.46747  22478588.446    22478588.795    22478598.393
       231.000         193.000
    239887.46849    182750.10846  22712660.089    22712660.212    22712668.297
       234.000         187.000
 01 11 12 16  7  0.0000000  0  7G14G25G22G20G 1G29G11
    228969.71559    172117.57445  24968093.760    24968094.264    24968110.213
       208.000         151.000
    132725.23149    100899.52247  21440691.001    21440691.200    21440698.892
       242.000         209.000
   -979255.56449   -742834.10246  22469819.252    22469818.801    22469830.409
       228.000         187.000
   -723458.87949   -549185.04847  21072659.282    21072659.041    21072666.594
       241.000         208.000
   -721145.92149   -549713.36547  22593471.048    22593470.982    22593480.067
       236.000         196.000
    140735.10649    107425.98947  22482024.575    22482024.824    22482034.499
       231.000         193.000
    274994.66049    210106.21246  22719340.892    22719340.939    22719349.027
       234.000         187.000
 01 11 12 16  7 30.0000000  0  7G14G25G22G20G 1G29G11
    269134.42149    203414.32445  24975736.956    24975737.290    24975753.789
       199.000         151.000
    150763.82849    114955.45847  21444123.720    21444123.868    21444131.536
       242.000         209.000
  -1102722.90449   -839042.38846  22446324.187    22446323.707    22446335.301
       227.000         186.000
   -814134.63849   -619841.52047  21055404.341    21055404.046    21055411.611
       241.000         209.000
   -813012.57049   -621297.78947  22575989.390    22575989.332    22575998.491
       237.000         196.000
    158846.54149    121538.61647  22485471.217    22485471.400    22485481.065
       231.000         193.000
    310363.68649    237666.33147  22726071.496    22726071.525    22726079.609
       235.000         188.000
 01 11 12 16  8  0.0000000  0  7G14G25G22G20G 1G29G11
    309298.11849    234710.22845  24983380.008    24983380.413    24983397.168
       196.000         150.000
    169119.03749    129258.10547  21447616.730    21447616.807    21447624.443
       241.000         209.000
  -1225900.28149   -935024.73946  22422884.296    22422883.810    22422895.347
       227.000         187.000
   -904441.93149   -690210.87747  21038219.456    21038219.151    21038226.707
       241.000         208.000
   -904772.32649   -692798.93447  22558528.141    22558528.047    22558537.235
       235.000         194.000
    177045.82749    135719.68647  22488934.562    22488934.680    22488944.390
       232.000         193.000
    346023.97349    265453.40046  22732857.601    22732857.546    22732865.670
       234.000         187.000
 01 11 12 16  8 30.0000000  0  7G14G25G22G20G 1G29G11
    349492.77149    266030.29245  24991029.012    24991029.354    24991046.027
       205.000         149.000
    187821.28449    143831.18347  21451175.700    21451175.786    21451183.413
       242.000         209.000
  -1348752.30649  -1030753.56047  22399506.193    22399505.799    22399517.343
       226.000         188.000
   -994346.55749   -760266.46747  21021111.228    21021110.894    21021118.425
       241.000         209.000
   -996393.20849   -764191.86647  22541093.172    22541093.136    22541102.355
       235.000         195.000
    195364.95649    149994.14747  22492420.690    22492420.767    22492430.529
       232.000         193.000
    382004.63749    293490.11246  22739704.565    22739704.503    22739712.725
       233.000         187.000
 01 11 12 16  9  0.0000000  0  7G14G25G22G20G 1G29G11
    389700.64949    297360.68245  24998680.946    24998680.975    24998697.504
       209.000         153.000
    206850.69749    158659.18947  21454797.015    21454797.029    21454804.655
       242.000         209.000
  -1471293.21249  -1126239.96247  22376187.259    22376186.988    22376198.523
       228.000         188.000
  -1083863.94149   -830020.31247  21004076.635    21004076.309    21004083.870
       240.000         209.000
  -1087892.92749   -835490.37247  22523681.384    22523681.330    22523690.564
       237.000         195.000
    213786.13549    164348.11647  22495926.360    22495926.324    22495936.117
       232.000         193.000
    418285.26949    321760.56846  22746608.694    22746608.580    22746616.827
       234.000         187.000
 01 11 12 16  9 30.0000000  0  7G14G25G22G20G 1G29G11
    429917.19949    328697.83045  25006334.232    25006334.171    25006350.717
       210.000         155.000
    226200.44949    173736.81847  21458479.245    21458479.230    21458486.866
       242.000         209.000
  -1593524.22149  -1221484.87947  22352927.461    22352927.179    22352938.710
       228.000         188.000
  -1172996.57049   -899474.34247  20987115.250    20987114.941    20987122.514
       240.000         209.000
  -1179276.11949   -906698.09147  22506291.786    22506291.723    22506300.879
       236.000         195.000
    232304.98649    178778.20147  22499450.547    22499450.476    22499460.283
       232.000         193.000
    454858.52049    350259.04646  22753568.465    22753568.328    22753576.586
       233.000         186.000
 01 11 12 16 10  0.0000000  0  7G14G25G22G20G 1G29G11
    470146.32949    360044.76545  25013989.991    25013989.688    25014006.330
       209.000         153.000
    245872.49549    189065.58247  21462222.762    21462222.748    21462230.435
       242.000         209.000
  -1715438.36149  -1316482.88847  22329728.029    22329727.666    22329739.190
       229.000         190.000
  -1261738.42849   -968623.87147  20970228.240    20970227.957    20970235.512
       239.000         208.000
  -1270539.20549   -977812.21347  22488925.072    22488924.971    22488934.098
       237.000         195.000
    250925.19049    193287.26047  22502994.014    22502993.912    22503003.781
       233.000         193.000
    491725.14049    378986.11446  22760584.000    22760583.878    22760592.126
       233.000         185.000
 01 11 12 16 10 30.0000000  0  7G14G25G22G20G 1G29G11
    510396.44949    391408.05045  25021649.537    25021649.153    25021665.782
       208.000         151.000
    265873.80349    204650.91947  21466029.011    21466028.949    21466036.666
       242.000         209.000
  -1837023.68649  -1411224.67047  22306591.157    22306590.733    22306602.249
       228.000         190.000
  -1350078.92649  -1037460.65347  20953417.608    20953417.319    20953424.856
       239.000         209.000
  -1361673.88849  -1048826.28147  22471582.823    22471582.647    22471591.746
       236.000         196.000
    269655.12649    207881.82047  22506558.418    22506558.264    22506568.145
       232.000         192.000
    528890.71749    407946.12946  22767656.496    22767656.348    22767664.631
       232.000         185.000
 01 11 12 16 11  0.0000000  0  7G14G25G22G20G 1G29G11
    550677.87949    422795.75945  25029314.990    25029314.518    25029331.324
       208.000         152.000
    286212.14649    220498.88247  21469899.357    21469899.296    21469907.028
       242.000         209.000
  -1958266.62849  -1505699.65347  22283519.459    22283518.979    22283530.466
       230.000         191.000
  -1438005.36349  -1105974.78647  20936685.827    20936685.513    20936693.034
       239.000         209.000
  -1452669.71449  -1119732.15647  22454266.986    22454266.773    22454275.853
       237.000         198.000
    288505.24449    222570.03347  22510145.619    22510145.471    22510155.336
       232.000         191.000
    566362.71549    437144.91146  22774787.248    22774787.093    22774795.432
       231.000         185.000
 01 11 12 16 11 30.0000000  0  7G14G25G22G20G 1G29G11
    590993.88549    454210.36945  25036987.257    25036986.652    25037003.586
       211.000         154.000
    306888.61449    236610.31347  21473834.059    21473833.966    21473841.727
       242.000         209.000
  -2079160.45949  -1599902.60547  22260514.094    22260513.639    22260525.114
       230.000         191.000
  -1525512.36649  -1174162.09047  20920033.856    20920033.512    20920041.039
       239.000         209.000
  -1543523.58949  -1190527.41147  22436978.011    22436977.865    22436986.972
       237.000         195.000
    307478.78649    237354.41147  22513756.319    22513756.145    22513766.017
       232.000         191.000
    604141.65249    466582.85846  22781976.445    22781976.290    22781984.652
       231.000         184.000
 01 11 12 16 12  0.0000000  0  7G14G25G22G20G 1G29G11
    631330.43649    485641.00045  25044663.298    25044662.588    25044679.632
       214.000         154.000
    327887.59749    252973.06247  21477830.105    21477829.999    21477837.797
       242.000         209.000
  -2199715.88149  -1693841.84847  22237573.184    22237572.720    22237584.201
       230.000         192.000
  -1612611.82849  -1242031.82747  20903459.446    20903459.071    20903466.582
       239.000         209.000
  -1634249.57349  -1261223.01447  22419713.465    22419713.326    22419722.409
       236.000         196.000
    326561.72549    252224.03647  22517387.868    22517387.638    22517397.511
       232.000         191.000
    642210.76449    496246.91946  22789220.850    22789220.697    22789229.105
       230.000         184.000
 01 11 12 16 12 30.0000000  0  7G14G25G22G20G 1G29G11
    671710.00349    517105.16945  25052347.634    25052346.921    25052363.853
       210.000         153.000
    349229.27549    269602.84147  21481891.364    21481891.258    21481899.074
       242.000         209.000
  -2319907.07349  -1787497.26447  22214701.512    22214701.068    22214712.576
       230.000         192.000
  -1699279.17249  -1309564.84247  20886967.231    20886966.860    20886974.373
       239.000         210.000
  -1724825.24549  -1331801.48747  22402477.522    22402477.369    22402486.470
       236.000         196.000
    345776.78849    267196.62347  22521044.500    22521044.280    22521054.186
       231.000         191.000
    680589.45949    526152.21846  22796524.113    22796524.008    22796532.459
       229.000         183.000
 01 11 12 16 13  0.0000000  0  7G14G25G22G20G 1G29G11
    712093.55549    548572.41245  25060032.634    25060031.950    25060048.950
       210.000         154.000
    370872.50049    286467.58047  21486009.972    21486009.888    21486017.737
       242.000         209.000
  -2439770.11949  -1880896.99347  22191892.367    22191891.888    22191903.350
       230.000         191.000
  -1785551.39049  -1376789.98247  20870550.223    20870549.834    20870557.353
       239.000         210.000
  -1815289.98449  -1402293.53847  22385262.595    22385262.509    22385271.624
       235.000         196.000
    365084.36849    282241.28547  22524718.686    22524718.506    22524728.457
       231.000         191.000
    719235.36949    556265.73046  22803878.333    22803878.192    22803886.653
       230.000         183.000
 01 11 12 16 13 30.0000000  0  7G14G25G22G20G 1G29G11
    752480.65349    580042.39945  25067718.476    25067717.670    25067734.834
       210.000         153.000
    392814.61349    303565.22547  21490185.456    21490185.395    21490193.283
       241.000         209.000
  -2559301.96049  -1974038.62747  22169146.174    22169145.722    22169157.147
       231.000         192.000
  -1871426.48749  -1443705.66847  20854208.691    20854208.362    20854215.889
       238.000         209.000
  -1905644.26549  -1472699.51747  22368068.838    22368068.708    22368077.771
       235.000         196.000
    384484.42649    297358.01747  22528410.518    22528410.339    22528420.334
       231.000         190.000
    758145.51549    586585.14346  22811282.825    22811282.674    22811291.128
       229.000         182.000
 01 11 12 16 14  0.0000000  0  7G14G25G22G20G 1G29G11
    792908.75549    611544.40145  25075412.284    25075411.180    25075428.314
       209.000         146.000
    415090.97749    320923.32747  21494424.577    21494424.521    21494432.439
       242.000         209.000
  -2678462.02249  -2066890.55347  22146470.743    22146470.294    22146481.721
       231.000         191.000
  -1956865.38949  -1510281.44947  20837950.181    20837949.880    20837957.473
       239.000         210.000
  -1995850.78349  -1542990.32647  22350903.165    22350902.993    22350912.116
       235.000         196.000
    404014.04949    312575.71147  22532127.074    22532126.858    22532136.865
       231.000         189.000
    797354.07649    617137.08546  22818744.145    22818743.951    22818752.366
       230.000         181.000
 01 11 12 16 14 30.0000000  0  7G14G25G22G20G 1G29G11
    833360.90249    643065.11945  25083110.395    25083109.244    25083126.386
       204.000         144.000
    437682.76949    338527.19947  21498723.737    21498723.669    21498731.623
       242.000         209.000
  -2797263.85349  -2159463.35747  22123863.500    22123863.018    22123874.401
       232.000         191.000
  -2041882.37249  -1576528.48447  20821772.030    20821771.695    20821779.322
       239.000         210.000
  -2085926.37849  -1613179.14247  22333762.312    22333762.178    22333771.336
       235.000         196.000
    423656.86149    327881.59047  22535865.242    22535864.935    22535874.902
       230.000         188.000
    836841.61949    647906.40346  22826258.619    22826258.312    22826266.681
       229.000         180.000
 01 11 12 16 15  0.0000000  0  7G14G25G22G20G 1G29G11
    873820.98949    674591.99545  25090809.939    25090808.889    25090826.143
       206.000         144.000
    460571.73349    356362.64047  21503079.418    21503079.370    21503087.357
       241.000         209.000
  -2915720.24549  -2251766.97947  22101322.023    22101321.530    22101332.838
       232.000         192.000
  -2126491.83849  -1642457.97347  20805671.406    20805671.083    20805678.708
       239.000         210.000
  -2175887.39149  -1683278.67747  22316643.390    22316643.221    22316652.384
       236.000         197.000
    443396.50249    343262.93447  22539621.555    22539621.351    22539631.413
       229.000         188.000
    876589.08749    678878.26046  22833822.417    22833822.136    22833830.508
       229.000         180.000
 01 11 12 16 15 30.0000000  0  7G14G25G22G20G 1G29G11
    914278.00749    706116.52145  25098508.761    25098507.896    25098525.271
       205.000         144.000
    483744.88049    374419.51147  21507489.160    21507489.138    21507497.198
       242.000         209.000
  -3033839.05449  -2343807.56147  22078844.715    22078844.259    22078855.533
       232.000         192.000
  -2210702.55649  -1708076.75147  20789646.692    20789646.360    20789653.997
       238.000         210.000
  -2265744.80849  -1753297.49847  22299544.084    22299543.929    22299553.144
       236.000         197.000
    463221.90049    358711.09746  22543394.338    22543394.108    22543404.274
       230.000         187.000
    916582.34949    710041.63446  22841433.122    22841432.748    22841441.149
       230.000         181.000
 01 11 12 16 16  0.0000000  0  7G14G25G22G20G 1G29G11
    954757.89749    737658.83945  25106211.930    25106211.239    25106228.827
       207.000         145.000
    507225.79949    392716.20047  21511957.532    21511957.488    21511965.606
       242.000         209.000
  -3151591.07149  -2435562.33447  22056437.181    22056436.767    22056447.992
       232.000         192.000
  -2294486.63349  -1773363.07647  20773703.106    20773702.782    20773710.465
       238.000         210.000
  -2355472.81349  -1823215.45747  22282469.406    22282469.281    22282478.550
       236.000         198.000
    483159.02049    374246.31246  22547188.454    22547188.178    22547198.336
       231.000         187.000
    956844.28849    741414.36946  22849094.934    22849094.524    22849102.935
       229.000         179.000
 01 11 12 16 16 30.0000000  0  7G14G25G22G20G 1G29G11
    995258.75349    769217.51745  25113919.173    25113918.551    25113936.325
       205.000         144.000
    531010.85249    411249.88147  21516483.833    21516483.740    21516491.865
       242.000         209.000
  -3268974.91749  -2527030.23047  22034099.694    22034099.319    22034110.520
       231.000         192.000
  -2377843.75449  -1838316.70547  20757840.833    20757840.476    20757848.192
       238.000         210.000
  -2445073.39649  -1893034.13447  22265419.060    22265418.906    22265428.164
       238.000         198.000
    503206.01449    389867.14046  22551003.533    22551003.170    22551013.331
       230.000         187.000
    997370.10749    772992.73846  22856806.803    22856806.430    22856814.961
       228.000         179.000
 01 11 12 16 17  0.0000000  0  7G14G25G22G20G 1G29G11
   1035758.97949    800775.71345  25121626.564    25121625.834    25121643.590
       202.000         146.000
    555075.96549    430001.78747  21521063.422    21521063.281    21521071.415
       242.000         209.000
  -3386009.01949  -2618225.60147  22011828.703    22011828.412    22011839.625
       230.000         192.000
  -2460793.40749  -1902952.82647  20742056.056    20742055.714    20742063.434
       238.000         209.000
  -2534568.20049  -1962770.37647  22248388.917    22248388.706    22248397.914
       238.000         199.000
    523341.32949    405556.79546  22554835.251    22554834.933    22554845.127
       230.000         187.000
   1038135.48849    804757.77646  22864564.357    22864563.974    22864572.573
       228.000         179.000
 01 11 12 16 17 30.0000000  0  7G14G25G22G20G 1G29G11
   1076300.16449    832365.78945  25129341.368    25129340.794    25129358.857
       197.000         142.000
    579460.64949    449002.71047  21525703.832    21525703.645    21525711.772
       242.000         209.000
  -3502648.63449  -2709113.58647  21989632.938    21989632.596    21989643.772
       232.000         193.000
  -2543292.02849  -1967237.49847  20726357.141    20726356.773    20726364.483
       238.000         209.000
  -2623915.87349  -2032391.97347  22231386.692    22231386.467    22231395.644
       238.000         198.000
    543606.53649    421347.66146  22558691.775    22558691.437    22558701.656
       230.000         187.000
   1079178.69549    836739.29646  22872374.800    22872374.400    22872383.084
       227.000         179.000
 01 11 12 16 18  0.0000000  0  7G14G25G22G20G 1G29G11
   1116861.29849    863971.40145  25137060.398    25137059.600    25137077.811
       199.000         147.000
    604142.01649    468234.81647  21530400.528    21530400.428    21530408.576
       241.000         208.000
  -3618911.54749  -2799708.04047  21967508.817    21967508.440    21967519.594
       231.000         193.000
  -2625358.76349  -2031185.63647  20710740.384    20710740.020    20710747.717
       237.000         209.000
  -2713137.53749  -2101915.38547  22214408.372    22214408.187    22214417.318
       238.000         198.000
    563980.60349    437223.34447  22562569.027    22562568.696    22562578.908
       230.000         188.000
   1120475.80349    868918.66246  22880233.443    22880233.116    22880241.852
       228.000         179.000
 01 11 12 16 18 30.0000000  0  7G14G25G22G20G 1G29G11
   1157439.78049    895590.55845  25144782.936    25144781.810    25144800.080
       201.000         143.000
    629115.41349    487694.48047  21535152.923    21535152.805    21535160.936
       242.000         208.000
  -3734797.05849  -2890008.42647  21945456.442    21945456.130    21945467.261
       232.000         194.000
  -2706993.90849  -2094797.47047  20695205.774    20695205.387    20695213.106
       237.000         209.000
  -2802235.67749  -2171342.53247  22197453.656    22197453.444    22197462.515
       238.000         198.000
    584460.96949    453181.86346  22566466.519    22566466.155    22566476.372
       229.000         187.000
   1162021.29949    901291.56746  22888139.495    22888139.108    22888147.839
       228.000         178.000
 01 11 12 16 19  0.0000000  0  7G14G25G22G20G 1G29G11
   1198077.27849    927255.72745  25152516.604    25152515.113    25152533.357
       203.000         141.000
    654420.73149    507412.78247  21539968.432    21539968.340    21539976.502
       241.000         208.000
  -3850260.24549  -2979979.73447  21923484.545    21923484.185    21923495.281
       232.000         194.000
  -2788153.87749  -2158039.03547  20679761.523    20679761.163    20679768.916
       237.000         209.000
  -2891168.74149  -2240641.04947  22180530.263    22180530.056    22180539.149
       237.000         198.000
    605089.47849    469255.82046  22570392.019    22570391.749    22570402.045
       230.000         185.000
   1203853.89249    933888.17646  22896100.203    22896099.755    22896108.465
       229.000         178.000
 01 11 12 16 19 30.0000000  0  7G14G25G22G20G 1G29G11
   1238738.51049    958939.40945  25160254.626    25160253.076    25160271.295
       204.000         147.000
    680020.13749    527360.24947  21544839.970    21544839.838    21544848.007
       242.000         208.000
  -3965333.29949  -3069647.04547  21901586.851    21901586.477    21901597.574
       233.000         194.000
  -2868871.81049  -2220936.16947  20664401.494    20664401.096    20664408.827
       238.000         209.000
  -2979972.15349  -2309838.54347  22163631.548    22163631.365    22163640.440
       236.000         198.000
    625830.78849    485417.67746  22574339.116    22574338.827    22574349.170
       230.000         185.000
   1245935.35549    966678.71746  22904108.257    22904107.758    22904116.446
       227.000         177.000
 01 11 12 16 20  0.0000000  0  7G14G25G22G20G 1G29G11
   1279423.69949    990641.75145  25167996.839    25167995.499    25168013.859
       207.000         147.000
    705911.69349    547535.36647  21549767.050    21549766.939    21549775.101
       241.000         208.000
  -4080013.02949  -3159007.87447  21879764.106    21879763.654    21879774.689
       233.000         195.000
  -2949145.71449  -2283487.30247  20649125.943    20649125.505    20649133.230
       237.000         209.000
  -3068645.88349  -2378934.96747  22146757.469    22146757.317    22146766.461
       237.000         198.000
    646684.84349    501667.39546  22578307.684    22578307.378    22578317.738
       230.000         185.000
   1288262.56349    999660.74346  22912162.927    22912162.476    22912171.255
       227.000         177.000
 01 11 12 16 20 30.0000000  0  7G14G25G22G20G 1G29G11
   1320156.15249   1022380.96345  25175748.186    25175746.952    25175765.470
       210.000         149.000
    732116.81449    567954.81247  21554753.775    21554753.701    21554761.878
       242.000         208.000
  -4194272.76849  -3248041.43747  21858021.231    21858020.742    21858031.740
       233.000         195.000
  -3028949.94949  -2345672.46247  20633939.706    20633939.304    20633947.031
       237.000         210.000
  -3157166.57449  -2447912.14447  22129912.516    22129912.402    22129921.585
       236.000         198.000
    667675.24449    518023.34346  22582302.194    22582301.870    22582312.274
       230.000         185.000
   1330856.14249   1032850.32646  22920268.279    22920267.902    22920276.808
       226.000         178.000
 01 11 12 16 21  0.0000000  0  7G14G25G22G20G 1G29G11
   1360921.95749   1054146.17145  25183505.862    25183504.759    25183523.275
       207.000         147.000
    758619.13949    588605.85847  21559797.084    21559797.009    21559805.220
       241.000         208.000
  -4308123.24549  -3336756.09547  21836356.211    21836355.737    21836366.703
       233.000         196.000
  -3108296.67849  -2407501.12247  20618840.541    20618840.155    20618847.894
       237.000         210.000
  -3245548.07549  -2516780.86147  22113094.095    22113093.987    22113103.162
       237.000         198.000
    688788.18749    534474.78946  22586320.038    22586319.701    22586330.132
       228.000         185.000
   1373699.18849   1066234.31246  22928421.209    22928420.820    22928429.873
       229.000         178.000
 01 11 12 16 21 30.0000000  0  7G14G25G22G20G 1G29G11
   1401718.19249   1085935.09345  25191269.313    25191268.314    25191286.938
       204.000         142.000
    785413.62049    609484.55747  21564896.038    21564895.929    21564904.141
       242.000         208.000
  -4421564.36649  -3425151.77147  21814769.062    21814768.608    21814779.555
       233.000         197.000
  -3187186.98249  -2468974.12947  20603828.259    20603827.857    20603835.630
       237.000         210.000
  -3333793.51449  -2585543.57147  22096301.559    22096301.453    22096310.642
       237.000         199.000
    710020.53549    551019.27246  22590360.412    22590360.186    22590370.708
       228.000         185.000
   1416785.55449   1099807.90146  22936620.550    22936620.088    22936629.165
       228.000         178.000
 01 11 12 16 22  0.0000000  0  7G14G25G22G20G 1G29G11
   1442523.66849   1117731.23945  25199034.203    25199033.496    25199052.327
       203.000         145.000
    812477.23649    630572.97347  21570046.150    21570046.069    21570054.297
       242.000         208.000
  -4534614.05249  -3513242.43347  21793256.429    21793255.965    21793266.927
       234.000         197.000
  -3265639.78749  -2530106.22647  20588899.251    20588898.833    20588906.618
       237.000         210.000
  -3421924.01849  -2654216.70647  22079530.859    22079530.777    22079540.038
       238.000         199.000
    731351.46849    567640.58046  22594419.726    22594419.502    22594430.043
       229.000         184.000
   1460091.18949   1133552.33746  22944861.468    22944861.063    22944870.163
       227.000         178.000
 01 11 12 16 22 30.0000000  0  7G14G25G22G20G 1G29G11
   1483356.06449   1149548.33245  25206804.704    25206803.901    25206822.856
       197.000         140.000
    839825.75649    651883.38547  21575250.532    21575250.428    21575258.689
       242.000         208.000
  -4647251.26949  -3601011.68447  21771822.220    21771821.814    21771832.793
       233.000         198.000
  -3343635.45749  -2590882.11647  20574057.202    20574056.784    20574064.567
       237.000         209.000
  -3509921.88049  -2722786.50047  22062785.514    22062785.398    22062794.649
       237.000         199.000
    752798.60149    584352.43146  22598501.216    22598500.954    22598511.460
       229.000         183.000
   1503631.09649   1167479.31146  22953147.058    22953146.612    22953155.788
       227.000         177.000
 01 11 12 16 22 59.9990000  0  7G14G25G22G20G 1G29G11
   1524204.23649   1181377.76545  25214578.042    25214577.233    25214596.403
       199.000         144.000
    867446.13549    673405.63947  21580506.666    21580506.537    21580514.817
       243.000         208.000
  -4759479.57449  -3688462.29847  21750465.816    21750465.453    21750476.463
       234.000         198.000
  -3421179.49249  -2651306.07847  20559301.133    20559300.703    20559308.478
       237.000         210.000
  -3597794.22649  -2791258.49447  22046064.005    22046063.876    22046073.128
       238.000         199.000
    774351.44149    601146.65246  22602602.772    22602602.469    22602613.003
       229.000         183.000
   1547390.31849   1201577.18746  22961474.328    22961473.893    22961483.117
       228.000         176.000
 01 11 12 16 23 29.9990000  0  7G14G25G22G20G 1G29G11
   1565088.32949   1213235.17945  25222358.195    25222357.473    25222376.944
       202.000         147.000
    895355.91649    695153.39647  21585817.872    21585817.714    21585826.030
       241.000         208.000
  -4871285.46349  -3775583.75347  21729189.798    21729189.484    21729200.524
       234.000         198.000
  -3498257.35249  -2711366.78447  20544633.690    20544633.304    20544641.082
       236.000         210.000
  -3685529.38449  -2859623.57947  22029368.607    22029368.462    22029377.723
       238.000         200.000
    796028.62849    618037.76946  22606727.985    22606727.683    22606738.222
       229.000         183.000
   1591386.58749   1235859.77846  22969846.753    22969846.305    22969855.504
       228.000         176.000
 01 11 12 16 23 59.9990000  0  7G14G25G22G20G 1G29G11
   1606000.48649   1245114.44645  25230143.998    25230143.055    25230162.663
       204.000         140.000
    923544.88549    717118.69147  21591182.106    21591181.988    21591190.365
       241.000         207.000
  -4982668.68949  -3862375.85547  21707994.230    21707993.943    21708004.983
       234.000         198.000
  -3574871.23049  -2771065.95147  20530054.618    20530054.204    20530061.991
       237.000         209.000
  -3773131.18349  -2927884.76047  22012698.604    22012698.444    22012707.685
       239.000         200.000
    817823.16049    635020.31546  22610875.532    22610875.230    22610885.783
       229.000         184.000
   1635608.65049   1270318.30546  22978261.985    22978261.611    22978270.837
       227.000         175.000
 01 11 12 16 24 29.9990000  0  7G14G25G22G20G 1G29G11
   1646935.90449   1277011.85245  25237934.285    25237933.121    25237952.793
       201.000         141.000
    952006.66649    739296.56947  21596598.303    21596598.186    21596606.596
       241.000         208.000
  -5093631.15849  -3948840.09147  21686878.793    21686878.469    21686889.504
       234.000         198.000
  -3651024.18849  -2830405.95447  20515563.159    20515562.787    20515570.599
       236.000         209.000
  -3860604.36249  -2996045.70547  21996053.048    21996052.870    21996062.094
       238.000         200.000
    839730.19349    652090.52946  22615044.486    22615044.167    22615054.735
       229.000         183.000
   1680048.91249   1304946.86946  22986718.842    22986718.479    22986727.713
       227.000         175.000
 01 11 12 16 24 59.9990000  0  7G14G25G22G20G 1G29G11
   1687904.96249   1308935.45745  25245730.352    25245729.320    25245749.478
       197.000         137.000
    980749.43949    761693.39947  21602067.946    21602067.841    21602076.301
       241.000         208.000
  -5204159.14249  -4034965.75647  21665846.054    21665845.708    21665856.704
       234.000         198.000
  -3726703.69849  -2889377.03447  20501161.854    20501161.496    20501169.298
       236.000         210.000
  -3947938.53949  -3064098.34047  21979433.994    21979433.777    21979442.977
       239.000         200.000
    861760.36549    669256.69546  22619236.844    22619236.548    22619247.147
       229.000         182.000
   1724714.87349   1339751.27746  22995218.661    22995218.262    22995227.535
       226.000         175.000
 01 11 12 16 25 29.9990000  0  7G14G25G22G20G 1G29G11
   1728889.62949   1340871.29045  25253529.764    25253528.680    25253548.862
       200.000         133.000
   1009752.62149    784293.14947  21607587.175    21607587.039    21607595.559
       240.000         207.000
  -5314267.99849  -4120764.82647  21644893.086    21644892.684    21644903.657
       234.000         198.000
  -3801926.03249  -2947991.87047  20486847.557    20486847.191    20486855.011
       236.000         209.000
  -4035151.94849  -3132056.86547  21962837.834    21962837.638    21962846.798
       238.000         199.000
    883895.38149    686504.55546  22623449.144    22623448.851    22623459.515
       229.000         184.000
   1769585.02849   1374714.80846  23003757.356    23003756.961    23003766.248
       227.000         176.000
 01 11 12 16 25 59.9990000  0  7G14G25G22G20G 1G29G11
   1769910.02148   1372835.02745  25261335.821    25261334.932    25261355.066
       192.000         133.000
   1039034.91449    807110.37547  21613159.449    21613159.344    21613167.918
       241.000         207.000
  -5423934.09449  -4206218.89047  21624024.312    21624023.886    21624034.863
       235.000         198.000
  -3876669.03949  -3006233.20847  20472624.475    20472624.121    20472631.929
       236.000         209.000
  -4122224.16949  -3199905.38247  21946268.557    21946268.354    21946277.530
       237.000         199.000
    906155.85849    703850.16746  22627685.451    22627685.060    22627695.774
       230.000         184.000
   1814676.76349   1409850.98946  23012338.289    23012337.827    23012347.138
       227.000         176.000
 01 11 12 16 26 29.9990000  0  7G14G25G22G20G 1G29G11
   1810962.81549   1404823.91145  25269148.150    25269147.344    25269167.450
       197.000         137.000
   1068590.29549    830140.39447  21618783.782    21618783.638    21618792.230
       241.000         207.000
  -5533158.06749  -4291328.44847  21603239.621    21603239.226    21603250.189
       234.000         198.000
  -3950934.35549  -3064102.32047  20458492.287    20458491.932    20458499.752
       236.000         209.000
  -4209158.78449  -3267646.67747  21929725.374    21929725.230    21929734.479
       238.000         200.000
    928538.02749    721290.60846  22631944.773    22631944.397    22631955.178
       229.000         182.000
   1859983.49249   1445154.70246  23020960.103    23020959.605    23020968.936
       226.000         174.000
 01 11 12 16 26 59.9990000  0  6G25G22G20G 1G29G11
   1098417.37549    853382.12447  21624459.762    21624459.639    21624468.258
       241.000         207.000
  -5641936.24149  -4376090.63447  21582539.753    21582539.389    21582550.352
       234.000         198.000
  -4024719.30849  -3121597.11747  20444451.460    20444451.125    20444458.963
       236.000         209.000
  -4295955.19949  -3335280.28147  21913208.572    21913208.429    21913217.738
       238.000         200.000
    951042.70549    738826.50246  22636227.481    22636227.062    22636237.905
       228.000         182.000
   1905502.86849   1480624.12446  23029622.236    23029621.819    23029631.216
       225.000         175.000
 01 11 12 16 27 29.9990000  0  6G25G22G20G 1G29G11
   1128506.51849    876828.06247  21630185.634    21630185.520    21630194.174
       241.000         207.000
  -5750273.20349  -4460509.00947  21561923.895    21561923.527    21561934.462
       234.000         198.000
  -4098029.89649  -3178722.27747  20430500.917    20430500.577    20430508.440
       235.000         208.000
  -4382620.94549  -3402812.05647  21896716.665    21896716.513    21896725.821
       238.000         201.000
    973662.36449    756452.00246  22640531.893    22640531.585    22640542.458
       227.000         180.000
   1951224.20949   1516250.91446  23038322.831    23038322.427    23038331.935
       225.000         175.000
 01 11 12 16 27 59.9990000  0  6G25G22G20G 1G29G11
   1158868.68949    900486.74247  21635963.480    21635963.345    21635972.057
       241.000         207.000
  -5858153.22249  -4544571.33547  21541394.937    21541394.603    21541405.528
       235.000         198.000
  -4170851.48749  -3235466.41147  20416643.409    20416643.109    20416650.963
       235.000         208.000
  -4469143.57349  -3470232.29747  21880251.925    21880251.790    21880261.221
       238.000         200.000
    996409.78849    774177.05546  22644860.716    22644860.432    22644871.298
       228.000         181.000
   1997157.28549   1552042.68146  23047063.867    23047063.392    23047072.943
       226.000         175.000
 01 11 12 16 28 29.9990000  0  6G25G22G20G 1G29G11
   1189483.24549    924342.08847  21641789.355    21641789.208    21641797.961
       241.000         207.000
  -5965591.90949  -4628289.76547  21520950.065    21520949.679    21520960.591
       235.000         200.000
  -4243200.57949  -3291842.35247  20402875.827    20402875.547    20402883.419
       235.000         208.000
  -4555541.38749  -3537555.30047  21863810.981    21863810.872    21863820.297
       238.000         201.000
   1019266.58849    791987.33346  22649210.457    22649210.110    22649221.003
       228.000         180.000
   2043280.50349   1587982.60346  23055841.058    23055840.518    23055850.163
       224.000         175.000
 01 11 12 16 28 59.9990000  0  6G25G22G20G 1G29G11
   1220355.35749    948398.12347  21647664.255    21647664.101    21647672.869
       241.000         207.000
  -6072578.33449  -4711655.79147  21500591.258    21500590.858    21500601.719
       236.000         200.000
  -4315067.87649  -3347842.88147  20389199.999    20389199.671    20389207.550
       235.000         208.000
  -4641806.74949  -3604775.08047  21847395.262    21847395.150    21847404.631
       238.000         201.000
   1042240.54849    809888.90446  22653582.374    22653582.078    22653593.012
       226.000         180.000
   2089598.46049   1624074.26346  23064655.215    23064654.697    23064664.482
       225.000         175.000
 01 11 12 16 29 29.9990000  0  6G25G22G20G 1G29G11
   1251481.15349    972651.84347  21653587.489    21653587.264    21653596.038
       241.000         207.000
  -6179111.70349  -4794668.78647  21480318.562    21480318.211    21480329.075
       236.000         200.000
  -4386453.54849  -3403468.10647  20375615.795    20375615.472    20375623.338
       235.000         208.000
  -4727941.86049  -3671893.36647  21831004.327    21831004.217    21831013.715
       238.000         201.000
   1065329.62749    827880.17146  22657976.148    22657975.889    22657986.931
       227.000         179.000
   2136106.23049   1660313.84746  23073505.545    23073505.012    23073514.861
       226.000         175.000
 01 11 12 16 29 59.9990000  0  6G25G22G20G 1G29G11
   1282868.57649    997109.42347  21659560.461    21659560.217    21659569.007
       241.000         207.000
  -6285179.01949  -4877318.62747  21460134.658    21460134.268    21460145.104
       236.000         201.000
  -4457345.76849  -3458708.82947  20362125.527    20362125.153    20362133.011
       235.000         208.000
  -4813936.60849  -3738902.28447  21814640.087    21814639.974    21814649.498
       239.000         202.000
   1088543.89249    845968.98546  22662393.823    22662393.582    22662404.663
       227.000         179.000
   2182810.69549   1696706.70446  23082393.243    23082392.760    23082402.660
       225.000         172.000
 01 11 12 16 30 29.9990000  0  6G25G22G20G 1G29G11
   1314492.56849   1021751.33847  21665578.395    21665578.185    21665587.037
       240.000         207.000
  -6390800.01449  -4959620.68747  21440035.666    21440035.241    21440046.074
       236.000         201.000
  -4527765.33249  -3513581.25047  20348725.226    20348724.799    20348732.621
       235.000         208.000
  -4899813.67649  -3805819.50147  21798298.302    21798298.139    21798307.690
       239.000         202.000
   1111860.78949    864137.77746  22666831.091    22666830.798    22666841.938
       227.000         179.000
   2229686.20549   1733232.81746  23091313.551    23091313.023    23091323.014
       223.000         171.000
 01 11 12 16 30 59.9990000  0  7G25G22G20G 1G29G11G13
   1346381.40749   1046599.63147  21671646.794    21671646.561    21671655.474
       241.000         207.000
  -6495941.72149  -5041549.28347  21420027.861    21420027.452    21420038.276
       237.000         202.000
  -4597680.45349  -3568060.60447  20335420.861    20335420.427    20335428.236
       235.000         208.000
  -4985542.84649  -3872621.47847  21781984.632    21781984.455    21781994.022
       239.000         201.000
   1135310.45549    882410.01246  22671293.586    22671293.278    22671304.445
       226.000         178.000
   2276759.77649   1769913.28146  23100271.466    23100270.992    23100281.050
       223.000         171.000
   -198756.09954                  24543231.840
       198.000         129.000
 01 11 12 16 31 29.9990000  0  7G25G22G20G 1G29G11G13
   1378501.98249   1071628.50147  21677759.218    21677759.011    21677768.003
       240.000         207.000
  -6600632.45249  -5123126.46647  21400105.929    21400105.462    21400116.266
       236.000         202.000
  -4667120.51349  -3622169.76647  20322206.877    20322206.443    20322214.282
       235.000         208.000
  -5071155.27149  -3939332.48847  21765693.110    21765692.957    21765702.507
       239.000         201.000
   1158861.72249    900761.42346  22675775.515    22675775.117    22675786.342
       227.000         179.000
   2323997.18249   1806721.40046  23109260.663    23109260.166    23109270.224
       224.000         171.000
   -384565.00249   -286606.60945  24521778.208    24521780.120    24521790.114
       200.000         132.000
 01 11 12 16 31 59.9990000  0  7G25G22G20G 1G29G11G13
   1410872.83749   1096852.40347  21683919.338    21683919.107    21683928.167
       241.000         207.000
  -6704848.55149  -5204333.80147  21380274.230    21380273.770    21380284.589
       236.000         202.000
  -4736063.10949  -3675891.30047  20309087.607    20309087.151    20309094.962
       235.000         208.000
  -5156630.21449  -4005936.35447  21749427.817    21749427.650    21749437.202
       239.000         201.000
   1182535.44649    919208.26246  22680280.656    22680280.244    22680291.567
       226.000         178.000
   2371415.92849   1843670.84446  23118284.358    23118283.799    23118293.885
       222.000         167.000
   -497266.01449   -374425.77855  24500332.129    24500332.508    24500345.186
       203.000         132.000
 01 11 12 16 32 29.9990000  0  7G25G22G20G 1G29G11G13
   1443490.45349   1122268.58747  21690126.455    21690126.175    21690135.269
       241.000         207.000
  -6808588.58249  -5285170.18647  21360533.144    21360532.686    21360543.536
       236.000         202.000
  -4804508.00749  -3729225.02147  20296062.995    20296062.561    20296070.357
       234.000         208.000
  -5241969.19849  -4072434.29747  21733188.432    21733188.211    21733197.759
       239.000         202.000
   1206330.14149    937749.34646  22684808.745    22684808.372    22684819.764
       226.000         177.000
   2419011.75649   1880758.22746  23127341.507    23127341.089    23127351.272
       223.000         170.000
   -609928.44459   -462214.86045  24478893.331    24478894.449    24478905.246
       205.000         136.000
 01 11 12 16 32 59.9990000  0  7G25G22G20G 1G29G11G13
   1476313.45549   1147844.81647  21696372.579    21696372.291    21696381.457
       240.000         206.000
  -6911888.62049  -5365663.72147  21340875.828    21340875.330    21340886.211
       236.000         202.000
  -4872492.29149  -3782199.81547  20283125.984    20283125.598    20283133.411
       234.000         208.000
  -5327211.16249  -4138856.63547  21716967.438    21716967.232    21716976.810
       239.000         202.000
   1230207.20449    956354.63146  22689352.519    22689352.181    22689363.642
       225.000         177.000
   2466742.53049   1917950.77746  23136424.690    23136424.197    23136434.405
       225.000         170.000
   -722590.95649   -550003.93145  24457454.577    24457455.139    24457466.187
       207.000         138.000
 01 11 12 16 33 29.9990000  0  7G25G22G20G 1G29G11G13
   1509397.93049   1173624.79747  21702668.344    21702668.139    21702677.364
       240.000         205.000
  -7014688.03449  -5445767.15747  21321313.623    21321313.215    21321324.143
       235.000         202.000
  -4939956.55049  -3834769.39547  20270287.955    20270287.601    20270295.428
       234.000         208.000
  -5412298.26749  -4205158.30247  21700775.898    21700775.718    21700785.300
       239.000         202.000
   1254224.29949    975069.02646  22693922.864    22693922.632    22693934.199
       224.000         177.000
   2514663.20049   1955291.29646  23145543.946    23145543.439    23145553.667
       224.000         171.000
   -835195.99049   -637748.22745  24436026.701    24436027.537    24436038.266
       206.000         136.000
 01 11 12 16 33 59.9990000  0  7G25G22G20G 1G29G11G13
   1542715.08949   1199586.08447  21709008.470    21709008.276    21709017.524
       239.000         205.000
  -7117010.84749  -5525499.22747  21301842.262    21301841.823    21301852.780
       236.000         203.000
  -5006926.02849  -3886953.43647  20257544.122    20257543.757    20257551.600
       233.000         208.000
  -5497257.00549  -4271359.94947  21684608.735    21684608.612    21684618.222
       238.000         202.000
   1278354.67949    993871.67846  22698514.827    22698514.622    22698526.278
       225.000         176.000
   2562743.77349   1992756.41246  23154693.600    23154693.056    23154703.352
       222.000         170.000
   -947770.34449   -725468.55145  24414604.576    24414605.172    24414615.938
       211.000         141.000
 01 11 12 16 34 29.9990000  0  7G25G22G20G 1G29G11G13
   1576275.48949   1225736.92347  21715394.886    21715394.711    21715403.964
       240.000         204.000
  -7218841.35149  -5604847.67547  21282464.606    21282464.114    21282475.107
       237.000         203.000
  -5073386.07649  -3938740.51547  20244897.201    20244896.853    20244904.718
       234.000         208.000
  -5582074.66349  -4337451.66147  21668468.463    21668468.347    21668477.935
       238.000         202.000
   1302611.10849   1012772.56546  22703130.800    22703130.635    22703142.378
       224.000         176.000
   2610993.86649   2030353.61446  23163875.441    23163874.902    23163885.340
       224.000         170.000
  -1060301.23049   -813155.02245  24393190.767    24393191.287    24393202.072
       213.000         146.000
 01 11 12 16 34 59.9990000  0  7G25G22G20G 1G29G11G13
   1610068.55649   1252069.05947  21721825.587    21721825.416    21721834.681
       240.000         204.000
  -7320185.15349  -5683816.87947  21263179.408    21263179.018    21263190.033
       237.000         203.000
  -5139343.50249  -3990135.94347  20232345.964    20232345.602    20232353.476
       234.000         208.000
  -5666759.88149  -4403440.18447  21652353.476    21652353.347    21652362.907
       240.000         203.000
   1326985.40349   1031765.27346  22707769.334    22707769.095    22707780.900
       224.000         176.000
   2659401.95849   2068073.94946  23173087.435    23173086.878    23173097.419
       224.000         170.000
  -1172797.39749   -900814.42445  24371783.533    24371784.011    24371794.831
       219.000         155.000
 01 11 12 16 35 29.9990000  0  7G25G22G20G 1G29G11G13
   1644088.12249   1278577.68747  21728299.397    21728299.226    21728308.530
       240.000         204.000
  -7421043.76949  -5762408.01147  21243986.627    21243986.247    21243997.286
       237.000         203.000
  -5204800.94849  -4041141.77047  20219889.839    20219889.480    20219897.377
       233.000         207.000
  -5751316.70949  -4469328.65547  21636262.856    21636262.736    21636272.308
       240.000         203.000
   1351473.39349   1050846.58046  22712429.438    22712429.159    22712441.015
       223.000         174.000
   2707961.07149   2105911.96246  23182328.239    23182327.627    23182338.245
       222.000         168.000
  -1285263.09449   -988450.07045  24350382.181    24350382.557    24350393.385
       222.000         159.000
 01 11 12 16 35 59.9990000  0  7G25G22G20G 1G29G11G13
   1678335.97049   1305264.19847  21734816.674    21734816.491    21734825.813
       240.000         205.000
  -7521410.46449  -5840615.83947  21224887.509    21224887.104    21224898.135
       238.000         203.000
  -5269753.02549  -4091753.80947  20207529.888    20207529.533    20207537.434
       233.000         208.000
  -5835741.19849  -4535114.01547  21620197.427    21620197.312    21620206.866
       239.000         202.000
   1376079.05149   1070019.57346  22717111.923    22717111.606    22717123.480
       223.000         174.000
   2756671.90249   2143868.18846  23191597.777    23191597.152    23191607.917
       222.000         166.000
  -1397694.70449  -1076059.18645  24328987.241    24328987.606    24328998.412
       221.000         161.000
 01 11 12 16 36 29.9990000  0  7G25G22G20G 1G29G11G13
   1712811.13749   1332127.83547  21741377.142    21741376.996    21741386.391
       239.000         204.000
  -7621281.62549  -5918437.53647  21205882.701    21205882.264    21205893.302
       238.000         203.000
  -5334197.00949  -4141969.92747  20195266.608    20195266.269    20195274.177
       232.000         207.000
  -5920032.24749  -4600795.38447  21604157.446    21604157.293    21604166.819
       240.000         203.000
   1400803.41449   1089285.07546  22721817.035    22721816.660    22721828.647
       224.000         174.000
   2805532.27149   2181940.94046  23200895.523    23200895.097    23200905.988
       220.000         165.000
  -1510091.12349  -1163640.86145  24307598.933    24307599.271    24307610.143
       220.000         159.000
 01 11 12 16 36 59.9990000  0  7G25G22G20G 1G29G11G13
   1747505.17449   1359162.01847  21747979.269    21747979.134    21747988.571
       239.000         204.000
  -7720660.60049  -5995875.71247  21186971.588    21186971.074    21186982.130
       238.000         204.000
  -5398137.37249  -4191793.61447  20183099.166    20183098.844    20183106.765
       233.000         207.000
  -6004195.92749  -4666377.50047  21588141.712    21588141.506    21588151.052
       239.000         203.000
   1425640.38349   1108638.30546  22726543.623    22726543.170    22726555.194
       224.000         175.000
   2854533.08149   2220123.13446  23210220.169    23210219.760    23210230.803
       222.000         165.000
  -1622458.54849  -1251199.95745  24286216.216    24286216.516    24286227.320
       218.000         153.000
 01 11 12 16 37 29.9990000  0  7G25G22G20G 1G29G11G13
   1782415.97849   1386365.10747  21754622.691    21754622.561    21754631.993
       240.000         204.000
  -7819544.41949  -6072928.05347  21168154.564    21168154.108    21168165.181
       238.000         204.000
  -5461572.38949  -4241223.52447  20171027.917    20171027.599    20171035.545
       233.000         208.000
  -6088232.03149  -4731860.20847  21572150.190    21572150.003    21572159.560
       239.000         203.000
   1450590.35349   1128079.59846  22731291.559    22731291.164    22731303.272
       224.000         177.000
   2903671.47849   2258412.51146  23219571.234    23219570.709    23219581.780
       223.000         168.000
  -1734797.11349  -1338736.62945  24264838.928    24264839.206    24264849.995
       215.000         148.000
 01 11 12 16 37 59.9990000  0  7G25G22G20G 1G29G11G13
   1817556.24949   1413746.99447  21761309.850    21761309.656    21761319.076
       240.000         203.000
  -7917916.19349  -6149581.40047  21149435.056    21149434.578    21149445.648
       238.000         204.000
  -5524486.44949  -4290247.49847  20159055.780    20159055.474    20159063.443
       233.000         207.000
  -6172126.22749  -4797232.33347  21556185.651    21556185.484    21556195.081
       240.000         203.000
   1475667.51549   1147619.98946  22736063.754    22736063.390    22736075.603
       224.000         177.000
   2952958.74249   2296817.89346  23228950.578    23228950.024    23228961.133
       223.000         167.000
  -1847092.42249  -1426239.55745  24243469.806    24243470.160    24243481.062
       213.000         144.000
 01 11 12 16 38 29.9990000  0  7G25G22G20G 1G29G11G13
   1852902.15049   1441289.11547  21768036.071    21768035.891    21768045.302
       240.000         204.000
  -8015795.16949  -6225850.75247  21130809.326    21130808.822    21130819.886
       239.000         204.000
  -5586899.64149  -4338881.18047  20147178.979    20147178.686    20147186.655
       232.000         208.000
  -6255900.34549  -4862510.88747  21540243.959    21540243.827    21540253.433
       240.000         203.000
   1500849.99249   1167242.44246  22740856.033    22740855.638    22740867.910
       224.000         175.000
   3002369.96149   2335319.87646  23238353.390    23238352.831    23238364.017
       222.000         166.000
  -1959366.32449  -1513725.82245  24222104.691    24222105.135    24222116.147
       209.000         135.000
 01 11 12 16 38 59.9990000  0  7G25G22G20G 1G29G11G13
   1888463.05749   1468998.76947  21774803.206    21774803.016    21774812.421
       239.000         203.000
  -8113166.96549  -6301724.89747  21112280.022    21112279.599    21112290.656
       239.000         205.000
  -5648798.93249  -4387114.41847  20135399.932    20135399.637    20135407.639
       232.000         207.000
  -6339542.85449  -4927686.89547  21524327.339    21524327.223    21524336.795
       240.000         203.000
   1526149.61349   1186956.19446  22745670.520    22745670.130    22745682.512
       224.000         176.000
   3051913.69149   2373925.10446  23247781.509    23247780.889    23247792.077
       221.000         164.000
  -2071607.36649  -1601186.49345  24200745.980    24200746.457    24200757.389
       207.000         132.000
 01 11 12 16 39 29.9990000  0  7G25G22G20G 1G29G11G13
   1924247.44749   1496882.56647  21781612.806    21781612.651    21781622.098
       238.000         203.000
  -8210017.99149  -6377193.24947  21093849.993    21093849.488    21093860.531
       240.000         205.000
  -5710171.84149  -4434937.48447  20123721.108    20123720.787    20123728.813
       232.000         207.000
  -6423042.49349  -4992751.56847  21508437.923    21508437.800    21508447.369
       240.000         203.000
   1551577.32449   1206769.73946  22750509.441    22750509.055    22750521.509
       224.000         176.000
   3101597.44949   2412639.42546  23257236.047    23257235.521    23257246.827
       222.000         165.000
  -2183804.47749  -1688612.90845  24179395.496    24179395.946    24179407.079
       210.000         140.000
 01 11 12 16 39 59.9990000  0  7G25G22G20G 1G29G11G13
   1960248.86049   1524935.46247  21788463.756    21788463.593    21788473.059
       239.000         203.000
  -8306350.38949  -6452257.47947  21075518.649    21075518.082    21075529.066
       239.000         205.000
  -5771021.47449  -4482352.80347  20112141.822    20112141.498    20112149.560
       232.000         207.000
  -6506403.87249  -5057708.51147  21492574.827    21492574.677    21492584.238
       239.000         203.000
   1577128.45249   1226679.45146  22755371.840    22755371.447    22755383.966
       223.000         175.000
   3151413.81449   2451457.08446  23266716.185    23266715.499    23266726.816
       223.000         166.000
  -2295962.65349  -1776008.97945  24158052.711    24158053.079    24158064.354
       215.000         153.000
 01 11 12 16 40 29.9990000  0  7G25G22G20G 1G29G11G13
   1996450.96349   1553144.73447  21795352.918    21795352.731    21795362.214
       239.000         202.000
  -8402175.92449  -6526926.74347  21057283.770    21057283.130    21057294.057
       240.000         205.000
  -5831361.00549  -4529370.64647  20100659.604    20100659.288    20100667.345
       231.000         207.000
  -6589641.61049  -5122569.10047  21476735.211    21476735.078    21476744.622
       240.000         203.000
   1602788.77049   1246674.24046  22760255.108    22760254.639    22760267.182
       223.000         175.000
   3201345.23749   2490364.42046  23276218.149    23276217.426    23276228.718
       221.000         165.000
  -2408096.46349  -1863386.02845  24136714.339    24136714.742    24136726.122
       218.000         161.000
 01 11 12 16 40 59.9990000  0  7G25G22G20G 1G29G11G13
   2032867.87949   1581521.39447  21802282.980    21802282.763    21802292.245
       240.000         202.000
  -8497476.08449  -6601186.62347  21039148.747    21039148.121    21039159.017
       238.000         205.000
  -5891172.77249  -4575977.24347  20089277.815    20089277.521    20089285.573
       232.000         207.000
  -6672739.45249  -5187320.67447  21460922.171    21460922.048    21460931.654
       239.000         202.000
   1628574.05849   1266766.43146  22765162.089    22765161.653    22765174.166
       224.000         174.000
   3251404.53549   2529371.37046  23285744.237    23285743.566    23285754.968
       220.000         163.000
  -2520190.32149  -1950731.93146  24115383.716    24115384.093    24115395.454
       222.000         170.000
 01 11 12 16 41 29.9990000  0  7G25G22G20G 1G29G11G13
   2069472.52349   1610044.33047  21809248.676    21809248.501    21809258.015
       239.000         202.000
  -8592272.93549  -6675054.31247  21021109.496    21021108.892    21021119.753
       239.000         205.000
  -5950480.16949  -4622190.82647  20077992.024    20077991.705    20077999.772
       231.000         207.000
  -6755721.98149  -5251982.40547  21445131.092    21445131.002    21445140.613
       239.000         203.000
   1654460.06949   1286937.10446  22770088.258    22770087.775    22770100.356
       224.000         174.000
   3301564.23649   2568456.58745  23295289.407    23295288.827    23295300.273
       219.000         161.000
  -2632268.16749  -2038065.34546  24094056.116    24094056.475    24094067.925
       222.000         175.000
 01 11 12 16 41 59.9990000  0  7G25G22G20G 1G29G11G13
   2106292.53349   1638735.08747  21816255.384    21816255.211    21816264.757
       239.000         201.000
  -8686534.39449  -6748504.80947  21003172.107    21003171.555    21003182.395
       239.000         205.000
  -6009252.26449  -4667987.28947  20066808.142    20066807.783    20066815.820
       232.000         207.000
  -6838559.70049  -5316531.29747  21429367.625    21429367.525    21429377.150
       241.000         203.000
   1680476.40649   1307209.32546  22775039.108    22775038.689    22775051.330
       223.000         173.000
   3351850.57949   2607640.44445  23304858.747    23304858.177    23304869.647
       219.000         160.000
  -2744300.81149  -2125363.54846  24072737.074    24072737.442    24072748.915
       223.000         177.000
 01 11 12 16 42 29.9990000  0  7G25G22G20G 1G29G11G13
   2143318.09149   1667586.01847  21823301.187    21823301.044    21823310.637
       238.000         201.000
  -8780266.03849  -6821542.45847  20985335.614    20985335.007    20985345.878
       238.000         205.000
  -6067495.61349  -4713371.74347  20055724.812    20055724.467    20055732.502
       232.000         207.000
  -6921260.48049  -5380973.49147  21413630.271    21413630.123    21413639.711
       240.000         202.000
   1706614.89749   1327576.73346  22780013.211    22780012.854    22780025.617
       222.000         175.000
   3402252.56249   2646914.43945  23314450.041    23314449.519    23314461.035
       218.000         161.000
  -2856296.44249  -2212632.93846  24051425.172    24051425.483    24051436.968
       225.000         177.000
 01 11 12 16 42 59.9990000  0  7G25G22G20G 1G29G11G13
   2180549.35849   1696597.24147  21830386.164    21830386.016    21830395.646
       238.000         200.000
  -8873462.93549  -6894163.42047  20967600.748    20967600.221    20967611.111
       238.000         205.000
  -6125206.36149  -4758341.18747  20044742.831    20044742.495    20044750.538
       231.000         206.000
  -7003821.87849  -5445307.07347  21397919.378    21397919.228    21397928.800
       240.000         202.000
   1732877.86349   1348041.13446  22785011.155    22785010.759    22785023.620
       223.000         174.000
   3452769.78349   2686278.21445  23324063.404    23324062.863    23324074.391
       220.000         162.000
  -2968252.87349  -2299871.78746  24030120.682    24030120.949    24030132.476
       225.000         175.000
 01 11 12 16 43 29.9990000  0  7G25G22G20G 1G29G11G13
   2217971.16349   1725756.93347  21837507.472    21837507.278    21837516.907
       238.000         200.000
  -8966135.09449  -6966375.48647  20949965.761    20949965.283    20949976.213
       238.000         206.000
  -6182395.90649  -4802904.49147  20033860.027    20033859.705    20033867.772
       231.000         207.000
  -7086256.50449  -5509541.86747  21382232.546    21382232.440    21382242.050
       240.000         203.000
   1759252.85749   1368592.84046  22790030.290    22790029.926    22790042.828
       220.000         172.000
   3503386.21049   2725719.29545  23333695.630    23333695.058    23333706.684
       220.000         162.000
  -3080182.57949  -2387089.81146  24008821.284    24008821.516    24008833.042
       223.000         174.000
 01 11 12 16 43 59.9990000  0  7G25G22G20G 1G29G11G13
   2255597.42449   1755075.94247  21844667.721    21844667.438    21844677.090
       238.000         200.000
  -9058264.80749  -7038164.86747  20932434.030    20932433.587    20932444.529
       238.000         205.000
  -6239047.37549  -4847048.51847  20023079.587    20023079.279    20023087.399
       231.000         207.000
  -7168548.75249  -5573665.72147  21366572.861    21366572.757    21366582.354
       240.000         203.000
   1785755.66249   1389244.12346  22795073.748    22795073.391    22795086.407
       219.000         174.000
   3554114.37249   2765247.44645  23343349.114    23343348.538    23343360.172
       221.000         160.000
  -3192070.24249  -2474275.07446  23987529.942    23987530.151    23987541.625
       218.000         166.000
 01 11 12 16 44 29.9990000  0  7G25G22G20G 1G29G11G13
   2293407.64649   1784538.29447  21851862.875    21851862.599    21851872.272
       237.000         199.000
  -9149868.23349  -7109544.15047  20915002.485    20915002.018    20915012.972
       237.000         206.000
  -6295178.31049  -4890786.93947  20012398.274    20012397.953    20012406.083
       231.000         207.000
  -7250717.05849  -5637692.99647  21350936.817    21350936.663    21350946.247
       240.000         204.000
   1812367.22749   1409980.16446  22800137.947    22800137.582    22800150.718
       219.000         173.000
   3604932.46549   2804845.66345  23353019.864    23353019.195    23353030.790
       221.000         161.000
  -3303934.65249  -2561442.20745  23966242.884    23966243.083    23966254.604
       215.000         160.000
 01 11 12 16 44 59.9990000  0  7G25G22G20G 1G29G11G13
   2331400.84249   1814143.23047  21859092.764    21859092.568    21859102.278
       236.000         200.000
  -9240941.30549  -7180510.17447  20897671.828    20897671.380    20897682.348
       238.000         206.000
  -6350785.60749  -4934117.33747  20001816.612    20001816.265    20001824.376
       231.000         207.000
  -7332759.66349  -5701622.32147  21335324.656    21335324.496    21335334.084
       240.000         204.000
   1839089.60249   1430802.54346  22805223.129    22805222.851    22805236.116
       220.000         174.000
   3655839.05749   2844512.83545  23362707.393    23362706.654    23362718.198
       220.000         160.000
  -3415774.22449  -2648589.99245  23944960.627    23944960.799    23944972.352
       213.000         154.000
 01 11 12 16 45 29.9980000  0  7G25G22G20G 1G29G11G13
   2369582.05149   1843894.65747  21866358.486    21866358.300    21866368.054
       238.000         199.000
  -9331470.49149  -7251052.38847  20880444.707    20880444.242    20880455.214
       239.000         206.000
  -6405858.12849  -4977031.02447  19991336.708    19991336.346    19991344.442
       231.000         207.000
  -7414665.80049  -5765445.29847  21319738.448    21319738.304    21319747.894
       240.000         204.000
   1865929.90149   1451716.82746  22810330.937    22810330.603    22810343.932
       220.000         172.000
   3706837.49649   2884251.57245  23372412.414    23372411.563    23372423.104
       219.000         160.000
  -3527577.18749  -2735709.31545  23923685.124    23923685.454    23923697.035
       211.000         150.000
 01 11 12 16 45 59.9980000  0  7G25G22G20G 1G29G11G13
   2407973.34149   1873809.78747  21873664.246    21873664.022    21873673.799
       237.000         199.000
  -9421438.40149  -7321157.24547  20863324.455    20863323.912    20863334.909
       239.000         207.000
  -6460377.11949  -5019513.39247  19980962.102    19980961.753    19980969.856
       231.000         207.000
  -7496419.58549  -5829149.55747  21304181.288    21304181.114    21304190.667
       240.000         204.000
   1892910.95049   1472740.78146  22815465.408    22815465.087    22815478.453
       220.000         172.000
   3757949.35549   2924078.70745  23382138.727    23382137.994    23382149.615
       217.000         159.000
  -3639329.76749  -2822789.33445  23902419.246    23902419.690    23902431.239
       211.000         155.000
 01 11 12 16 46 29.9980000  0  7G25G22G20G 1G29G11G13
   2446545.81549   1903866.09447  21881004.436    21881004.229    21881014.064
       237.000         199.000
  -9510864.75949  -7390840.10747  20846307.107    20846306.634    20846317.673
       238.000         207.000
  -6514364.67049  -5061581.65747  19970688.683    19970688.299    19970696.390
       231.000         207.000
  -7578043.24949  -5892752.42047  21288648.861    21288648.675    21288658.234
       240.000         205.000
   1920006.94549   1493854.30246  22820621.815    22820621.467    22820634.853
       219.000         172.000
   3809144.78249   2963970.93945  23391880.996    23391880.320    23391892.121
       216.000         159.000
  -3751053.57549  -2909846.86546  23881159.032    23881159.423    23881171.060
       216.000         163.000
 01 11 12 16 46 59.9980000  0  7G25G22G20G 1G29G11G13
   2485300.28049   1934064.21247  21888379.281    21888379.076    21888388.953
       237.000         198.000
  -9599744.16249  -7460096.77547  20829393.916    20829393.452    20829404.505
       239.000         207.000
  -6567816.28149  -5103232.31147  19960517.214    19960516.843    19960524.926
       232.000         207.000
  -7659533.69049  -5956251.48047  21273141.774    21273141.587    21273151.136
       242.000         205.000
   1947220.85949   1515059.70346  22825800.596    22825800.256    22825813.744
       219.000         172.000
   3860423.80349   3003928.29845  23401639.277    23401638.589    23401650.555
       216.000         160.000
  -3862745.59449  -2996879.63546  23859904.753    23859905.169    23859916.844
       218.000         164.000
 01 11 12 16 47 29.9980000  0  7G25G22G20G 1G29G11G13
   2524230.99149   1964399.66247  21895787.625    21895787.452    21895797.399
       237.000         198.000
  -9688078.40749  -7528928.64247  20812584.440    20812584.006    20812595.090
       239.000         208.000
  -6620735.15749  -5144467.85047  19950447.134    19950446.739    19950454.846
       231.000         207.000
  -7740895.00349  -6019649.92647  21257659.275    21257659.067    21257668.643
       242.000         205.000
   1974548.59149   1536353.78346  22831000.970    22831000.682    22831014.289
       219.000         172.000
   3911779.08649   3043945.07145  23411411.971    23411411.350    23411423.534
       217.000         160.000
  -3974409.73849  -3083890.67145  23838655.920    23838656.219    23838667.973
       215.000         159.000
 01 11 12 16 47 59.9980000  0  7G25G22G20G 1G29G11G13
   2563345.57049   1994878.37447  21903231.071    21903230.823    21903240.843
       237.000         198.000
  -9775855.79549  -7597326.59647  20795880.938    20795880.504    20795891.602
       239.000         208.000
  -6673110.63349  -5185279.95747  19940480.413    19940480.032    19940488.170
       230.000         207.000
  -7822117.74549  -6082940.39047  21242203.095    21242202.912    21242212.510
       242.000         206.000
   2001999.76249   1557744.06246  22836224.913    22836224.632    22836238.315
       221.000         172.000
   3963216.97849   3084026.22745  23421200.589    23421199.864    23421212.118
       218.000         161.000
  -4086037.08449  -3170873.03645  23817413.948    23817414.247    23817426.104
       210.000         153.000
 01 11 12 16 48 29.9980000  0  7G25G22G20G 1G29G11G13
   2602630.04749   2025489.47947  21910706.767    21910706.542    21910716.608
       236.000         198.000
  -9863085.68749  -7665297.92847  20779281.644    20779281.210    20779292.315
       239.000         208.000
  -6724953.07049  -5225676.70947  19930615.131    19930614.772    19930622.929
       231.000         206.000
  -7903213.17349  -6146131.63947  21226771.103    21226770.993    21226780.597
       242.000         206.000
   2029562.77249   1579221.47446  22841470.284    22841469.934    22841483.631
       221.000         172.000
   4014722.95249   3124160.44245  23431002.125    23431001.350    23431013.643
       216.000         161.000
  -4197638.87249  -3257835.47145  23796176.805    23796177.144    23796189.103
       216.000         158.000
 01 11 12 16 48 59.9980000  0  7G25G22G20G 1G29G11G13
   2642098.23149   2056243.72447  21918217.445    21918217.202    21918227.319
       237.000         198.000
  -9949750.51849  -7732828.95347  20762789.935    20762789.466    20762800.544
       241.000         208.000
  -6776245.86749  -5265645.18147  19920854.453    19920854.112    19920862.265
       231.000         206.000
  -7984165.72549  -6209211.56847  21211366.405    21211366.260    21211375.892
       242.000         206.000
   2057253.03249   1600798.04346  22846739.714    22846739.426    22846753.198
       219.000         173.000
   4066309.51149   3164357.44045  23440819.021    23440818.215    23440830.624
       215.000         158.000
  -4309199.93749  -3344766.21945  23774947.541    23774947.847    23774959.730
       222.000         161.000
 01 11 12 16 49 29.9980000  0  7G25G22G20G 1G29G11G13
   2681728.55649   2087124.31647  21925758.998    21925758.758    21925768.885
       237.000         198.000
 -10035867.31049  -7799932.92647  20746402.498    20746401.996    20746413.056
       240.000         208.000
  -6827007.23749  -5305199.55047  19911194.977    19911194.585    19911202.705
       230.000         206.000
  -8064994.90449  -6272195.36047  21195985.176    21195985.018    21195994.633
       242.000         206.000
   2085051.19249   1622458.66446  22852029.684    22852029.453    22852043.258
       221.000         170.000
   4117954.07149   3204599.63945  23450646.746    23450646.089    23450658.647
       214.000         158.000
  -4420739.51049  -3431680.22746  23753722.216    23753722.594    23753734.501
       224.000         164.000
 01 11 12 16 49 59.9980000  0  7G25G22G20G 1G29G11G13
   2721543.82749   2118149.01847  21933335.756    21933335.496    21933345.625
       237.000         197.000
 -10121408.90549  -7866588.69347  20730124.451    20730123.974    20730135.010
       240.000         208.000
  -6877211.23049  -5344319.60447  19901641.507    19901641.130    19901649.231
       230.000         206.000
  -8145675.17449  -6335063.12747  21180632.284    21180632.096    21180641.728
       242.000         206.000
   2112982.40249   1644222.98246  22857345.055    22857344.791    22857358.589
       219.000         171.000
   4169678.55249   3244904.11245  23460489.830    23460489.108    23460501.855
       215.000         158.000
  -4532233.04549  -3518558.37246  23732505.878    23732506.171    23732518.076
       223.000         166.000
 01 11 12 16 50 29.9980000  0  7G25G22G20G 1G29G11G13
   2761534.10249   2149310.08447  21940945.855    21940945.523    21940955.663
       237.000         197.000
 -10206381.26949  -7932800.90147  20713954.749    20713954.270    20713965.281
       240.000         208.000
  -6926864.86549  -5383010.80147  19892192.806    19892192.409    19892200.512
       230.000         206.000
  -8226214.58749  -6397821.12747  21165306.121    21165305.958    21165315.606
       242.000         206.000
   2141038.34449   1666084.49246  22862684.170    22862683.846    22862697.736
       221.000         172.000
   4221471.80449   3285262.16845  23470345.863    23470345.222    23470358.124
       214.000         157.000
  -4643688.58749  -3605406.86245  23711296.753    23711296.974    23711308.778
       213.000         156.000
 01 11 12 16 50 59.9980000  0  7G25G22G20G 1G29G11G13
   2801681.26249   2180593.40447  21948585.702    21948585.405    21948595.584
       236.000         196.000
 -10290798.49549  -7998580.53147  20697890.627    20697890.191    20697901.219
       240.000         209.000
  -6975983.19749  -5421284.88847  19882845.936    19882845.547    19882853.664
       230.000         206.000
  -8306629.26749  -6460481.94247  21150003.730    21150003.573    21150013.198
       242.000         206.000
   2169202.98449   1688030.67246  22868043.920    22868043.628    22868057.609
       219.000         173.000
   4273314.71949   3325658.92645  23480211.634    23480210.905    23480223.821
       218.000         159.000
  -4755122.17649  -3692238.17045  23690091.412    23690091.740    23690103.682
       214.000         158.000
 01 11 12 16 51 29.9980000  0  7G25G22G20G 1G29G11G13
   2841987.59549   2212000.75947  21956255.955    21956255.603    21956265.770
       237.000         196.000
 -10374654.14249  -8063922.56447  20681933.413    20681932.990    20681944.020
       240.000         209.000
  -7024561.14949  -5459137.89247  19873601.885    19873601.494    19873609.625
       231.000         206.000
  -8386914.69149  -6523042.03047  21134725.930    21134725.761    21134735.410
       241.000         206.000
   2197480.31449   1710064.67646  22873425.074    22873424.816    22873438.866
       221.000         172.000
   4325208.42849   3366095.25145  23490087.124    23490086.259    23490099.132
       217.000         158.000
  -4866529.49449  -3779049.07746  23668891.459    23668891.739    23668903.508
       219.000         165.000
 01 11 12 16 51 59.9980000  0  7G25G22G20G 1G29G11G13
   2882461.31449   2243538.53947  21963958.008    21963957.656    21963967.864
       236.000         196.000
 -10457935.70849  -8128817.25547  20666085.441    20666085.021    20666096.058
       241.000         209.000
  -7072587.05249  -5496560.73147  19864462.900    19864462.518    19864470.641
       231.000         206.000
  -8467060.24049  -6585493.11947  21119474.788    21119474.608    21119484.229
       242.000         206.000
   2225881.36049   1732195.08746  22878829.821    22878829.567    22878843.639
       221.000         173.000
   4377160.35449   3406576.92945  23499973.752    23499972.705    23499985.473
       215.000         157.000
  -4977900.25349  -3865831.51246  23647698.262    23647698.592    23647710.347
       219.000         167.000
 01 11 12 16 52 29.9980000  0  7G25G22G20G 1G29G11G13
   2923101.53549   2275206.07247  21971691.763    21971691.390    21971701.615
       236.000         195.000
 -10540640.43549  -8193262.46247  20650347.298    20650346.851    20650357.857
       241.000         209.000
  -7120059.28349  -5533552.13847  19855429.297    19855428.898    19855437.040
       230.000         206.000
  -8547065.32349  -6647834.76347  21104250.367    21104250.176    21104259.812
       242.000         206.000
   2254406.42149   1754422.10946  22884258.256    22884257.938    22884272.053
       220.000         174.000
   4429168.18349   3447102.17545  23509870.811    23509869.736    23509882.588
       215.000         157.000
  -5089233.94249  -3952585.01846  23626512.127    23626512.525    23626524.265
       220.000         166.000
 01 11 12 16 52 59.9980000  0  7G25G22G20G 1G29G11G13
   2963890.86449   2306989.79647  21979453.850    21979453.465    21979463.762
       236.000         195.000
 -10622781.16449  -8257268.19447  20634716.382    20634715.982    20634726.959
       241.000         209.000
  -7166991.75249  -5570122.94547  19846498.405    19846497.984    19846506.133
       230.000         206.000
  -8626944.59449  -6710078.35947  21089049.830    21089049.653    21089059.320
       242.000         205.000
   2283040.86749   1776734.35746  22889707.451    22889707.135    22889721.363
       221.000         173.000
   4481213.96349   3487656.98845  23519774.841    23519773.910    23519786.941
       214.000         159.000
  -5200545.09849  -4039321.02946  23605330.379    23605330.752    23605342.414
       220.000         163.000
 01 11 12 16 53 29.9980000  0  7G25G22G20G 1G29G11G13
   3004832.16849   2338891.93847  21987244.787    21987244.445    21987254.815
       235.000         195.000
 -10704351.49849  -8320829.46147  20619194.046    20619193.657    20619204.599
       241.000         209.000
  -7213379.06649  -5606268.95647  19837671.261    19837670.824    19837678.959
       229.000         206.000
  -8706693.55049  -6772220.42147  21073874.090    21073873.929    21073883.615
       243.000         206.000
   2311788.90049   1799135.12946  22895178.308    22895177.933    22895192.203
       219.000         171.000
   4533299.09349   3528242.47645  23529686.412    23529685.590    23529698.776
       215.000         158.000
  -5311829.96949  -4126036.53345  23584153.524    23584153.944    23584165.631
       215.000         159.000
 01 11 12 16 53 59.9980000  0  7G25G22G20G 1G29G11G13
   3045931.64849   2370917.34047  21995065.875    21995065.537    21995075.949
       236.000         195.000
 -10785340.92549  -8383938.07447  20603782.272    20603781.869    20603792.779
       241.000         209.000
  -7259211.77349  -5641982.80147  19828949.604    19828949.187    19828957.331
       230.000         205.000
  -8786303.32349  -6834254.03347  21058724.886    21058724.728    21058734.388
       242.000         206.000
   2340659.24849   1821631.21146  22900672.313    22900672.007    22900686.311
       219.000         170.000
   4585428.90549   3568862.78845  23539606.727    23539605.804    23539619.037
       216.000         155.000
  -5423079.85549  -4212724.75845  23562983.393    23562983.803    23562995.495
       216.000         161.000
 01 11 12 16 54 29.9980000  0  7G25G22G20G 1G29G11G13
   3087204.54849   2403077.87947  22002920.026    22002919.637    22002930.086
       235.000         195.000
 -10865730.44949  -8446579.23247  20588484.622    20588484.223    20588495.126
       240.000         209.000
  -7304471.94449  -5677250.51747  19820336.960    19820336.513    19820344.649
       229.000         205.000
  -8865756.83049  -6896165.87147  21043605.364    21043605.228    21043614.894
       243.000         206.000
   2369668.93649   1844235.87446  22906192.870    22906192.553    22906206.966
       221.000         172.000
   4637617.56649   3609528.96145  23549538.182    23549537.314    23549550.540
       216.000         159.000
  -5534277.42849  -4299372.22346  23541823.214    23541823.623    23541835.345
       220.000         166.000
 01 11 12 16 54 59.9980000  0  7G25G22G20G 1G29G11G13
   3128612.61749   2435343.73947  22010799.761    22010799.439    22010809.962
       234.000         195.000
 -10945554.38249  -8508779.66947  20573294.576    20573294.213    20573305.080
       240.000         209.000
  -7349195.03949  -5712099.73047  19811826.437    19811826.005    19811834.182
       229.000         205.000
  -8945090.12049  -6957984.04447  21028508.833    21028508.654    21028518.275
       242.000         206.000
   2398781.52949   1866920.72646  22911733.149    22911732.736    22911747.187
       220.000         171.000
   4689825.84449   3650210.37945  23559473.337    23559472.460    23559485.834
       218.000         159.000
  -5645458.98549  -4386007.25846  23520666.140    23520666.509    23520678.210
       221.000         165.000
 01 11 12 16 55 29.9980000  0  7G25G22G20G 1G29G11G13
   3170167.82049   2467724.25147  22018707.477    22018707.249    22018717.831
       235.000         195.000
 -11024796.56449  -8570526.79747  20558215.278    20558214.907    20558225.759
       241.000         209.000
  -7393366.04949  -5746518.74547  19803420.977    19803420.559    19803428.765
       229.000         205.000
  -9024289.00349  -7019697.48447  21013437.777    21013437.604    21013447.227
       242.000         205.000
   2428011.16749   1889696.76346  22917295.594    22917295.216    22917309.715
       220.000         173.000
   4742064.78849   3690915.71845  23569414.449    23569413.513    23569426.945
       216.000         157.000
  -5756610.70949  -4472619.03445  23499514.747    23499515.056    23499526.650
       214.000         154.000
 01 11 12 16 55 59.9980000  0  7G25G22G20G 1G29G11G13
   3211879.88149   2500226.99047  22026645.241    22026644.942    22026655.564
       235.000         196.000
 -11103443.51949  -8631810.11947  20543249.254    20543248.885    20543259.664
       241.000         209.000
  -7436972.12549  -5780497.55247  19795123.001    19795122.614    19795130.861
       229.000         205.000
  -9103341.33049  -7081296.73047  20998394.561    20998394.450    20998404.091
       242.000         206.000
   2457369.72949   1912573.26646  22922882.757    22922882.252    22922896.770
       221.000         173.000
   4794343.21349   3731651.81345  23579363.053    23579362.053    23579375.574
       216.000         157.000
  -5867720.79649  -4559198.36345  23478371.029    23478371.477    23478383.053
       213.000         152.000
 01 11 12 16 56 29.9980000  0  7G25G22G20G 1G29G11G13
   3253739.35249   2532844.58047  22034611.036    22034610.689    22034621.391
       236.000         196.000
 -11181501.47049  -8692634.47947  20528395.319    20528394.932    20528405.664
       241.000         208.000
  -7480020.95049  -5814042.13547  19786931.151    19786930.733    19786939.004
       231.000         205.000
  -9182255.00749  -7142787.94547  20983377.858    20983377.701    20983387.328
       241.000         206.000
   2486849.14349   1935543.92546  22928492.706    22928492.202    22928506.859
       219.000         173.000
   4846649.68149   3772409.77445  23589316.841    23589315.895    23589329.422
       214.000         153.000
  -5978797.28349  -4645751.48845  23457234.033    23457234.386    23457246.030
       219.000         160.000
 01 11 12 16 56 59.9980000  0  7G25G22G20G 1G29G11G13
   3295745.98549   2565576.84947  22042604.750    22042604.444    22042615.168
       236.000         195.000
 -11258966.55549  -8752996.87247  20513654.129    20513653.775    20513664.515
       240.000         209.000
  -7522509.55249  -5847150.17247  19778845.885    19778845.466    19778853.761
       231.000         205.000
  -9261027.91249  -7204169.46147  20968387.840    20968387.720    20968397.381
       241.000         207.000
   2516451.31849   1958610.24646  22934126.014    22934125.493    22934140.278
       219.000         171.000
   4898983.57049   3813189.10445  23599275.905    23599274.942    23599288.544
       215.000         154.000
  -6089838.03749  -4732276.83446  23436103.852    23436104.115    23436115.612
       222.000         165.000
 01 11 12 16 57 29.9980000  0  7G25G22G20G 1G29G11G13
   3337882.42049   2598410.25647  22050623.238    22050622.882    22050633.647
       235.000         194.000
 -11335852.14349  -8812907.71347  20499023.296    20499022.919    20499033.638
       241.000         209.000
  -7564452.21449  -5879832.80447  19770864.477    19770864.078    19770872.409
       230.000         205.000
  -9339675.19249  -7265453.09847  20953421.834    20953421.664    20953431.366
       242.000         207.000
   2546161.11249   1981760.42546  22939779.682    22939779.246    22939794.071
       219.000         170.000
   4951326.47949   3853975.43645  23609236.533    23609235.722    23609249.399
       213.000         154.000
  -6200858.49249  -4818786.28545  23414977.435    23414977.679    23414989.186
       217.000         161.000
 01 11 12 16 57 59.9980000  0  7G25G22G20G 1G29G11G13
   3380179.74949   2631369.03447  22058672.312    22058671.935    22058682.737
       235.000         193.000
 -11412123.75149  -8872340.12947  20484509.284    20484508.908    20484519.620
       241.000         209.000
  -7605815.80349  -5912064.21247  19762993.246    19762992.870    19763001.209
       230.000         205.000
  -9418164.01549  -7326613.25947  20938485.880    20938485.759    20938495.504
       241.000         207.000
   2576010.90049   2005019.69846  22945460.197    22945459.716    22945474.543
       221.000         172.000
   5003707.94949   3894791.81745  23619204.483    23619203.806    23619217.613
       215.000         155.000
  -6311826.17649  -4905254.65745  23393860.872    23393861.198    23393872.742
       221.000         158.000
 01 11 12 16 58 29.9980000  0  8G25G22G20G 1G 4G29G11G13
   3422620.08349   2664439.23647  22066748.515    22066748.180    22066759.044
       234.000         193.000
 -11487795.47049  -8931305.10047  20470109.443    20470109.048    20470119.746
       241.000         209.000
  -7646615.28849  -5943856.05747  19755229.374    19755229.020    19755237.357
       230.000         205.000
  -9496509.68849  -7387661.87947  20923577.235    20923577.116    20923586.833
       242.000         207.000
   -167608.78655                  24336723.883                    24336737.781
       206.000         134.000
   2605985.27449   2028376.05346  22951164.335    22951163.867    22951178.786
       219.000         170.000
   5056109.40049   3935623.74845  23629176.463    23629175.734    23629189.592
       216.000         156.000
  -6422756.42349  -4991693.87046  23372751.617    23372751.899    23372763.437
       225.000         169.000
 01 11 12 16 58 59.9980000  0  8G25G22G20G 1G 4G29G11G13
   3465201.95349   2697619.72247  22074851.676    22074851.366    22074862.270
       235.000         193.000
 -11562865.05249  -8989800.88347  20455824.177    20455823.764    20455834.447
       240.000         209.000
  -7686849.38249  -5975207.33347  19747573.098    19747572.765    19747581.094
       230.000         205.000
  -9574711.66149  -7448598.51647  20908695.982    20908695.809    20908705.518
       242.000         207.000
   -316151.84849   -229905.45745  24321510.822    24321511.712    24321523.763
       205.000         135.000
   2636084.48649   2051829.67946  22956892.296    22956891.794    22956906.811
       219.000         171.000
   5108528.33249   3976469.32045  23639151.628    23639150.988    23639164.926
       212.000         154.000
  -6533648.89349  -5078103.62446  23351649.564    23351649.817    23351661.409
       226.000         171.000
 01 11 12 16 59 29.9980000  0  8G25G22G20G 1G 4G29G11G13
   3507932.01949   2730915.68347  22082983.054    22082982.763    22082993.710
       234.000         192.000
 -11637322.24149  -9047819.48047  20441655.393    20441655.006    20441665.700
       241.000         209.000
  -7726508.90349  -6006110.88647  19740026.178    19740025.833    19740034.197
       230.000         205.000
  -9652761.33349  -7509416.48247  20893843.725    20893843.505    20893853.184
       242.000         207.000
   -395607.73259   -291819.20455  24306390.887    24306391.176    24306406.112
       207.000         137.000
   2666317.03949   2075387.19546  22962645.564    22962645.071    22962660.145
       218.000         170.000
   5160970.21649   4017332.75145  23649130.988    23649130.507    23649144.506
       213.000         154.000
  -6644495.48349  -5164477.58346  23330556.142    23330556.460    23330568.109
       223.000         166.000
 01 11 12 16 59 59.9980000  0  9G27G25G22G20G 1G 4G29G11G13
  -1070039.34559   -807530.83055  24973219.724    24973219.907    24973237.592
       203.000         140.000
   3550796.86149   2764316.66847  22091140.141    22091139.825    22091150.743
       234.000         192.000
 -11711176.99149  -9105368.64747  20427601.300    20427600.902    20427611.580
       241.000         209.000
  -7765604.84749  -6036575.28747  19732586.481    19732586.156    19732594.517
       231.000         205.000
  -9730669.90049  -7570124.48647  20879018.210    20879018.018    20879027.687
       241.000         207.000
   -474582.92749   -353358.41345  24291362.534    24291363.268    24291376.486
       209.000         139.000
   2696671.36349   2099039.59846  22968422.005    22968421.560    22968436.665
       221.000         170.000
   5213420.43049   4058202.68645  23659112.393    23659111.737    23659125.761
       217.000         153.000
  -6755307.07249  -5250824.32146  23309469.443    23309469.742    23309481.479
       225.000         168.000
 01 11 12 17  0 29.9980000  0  9G27G25G22G20G 1G 4G29G11G13
  -1191978.05749   -902547.98445  24950015.691    24950015.803    24950033.387
       203.000         136.000
   3593798.52349   2797824.26147  22099323.257    22099322.914    22099333.862
       234.000         192.000
 -11784423.69749  -9162444.02247  20413662.862    20413662.502    20413673.170
       240.000         209.000
  -7804132.67049  -6066596.99747  19725254.947    19725254.590    19725262.959
       230.000         204.000
  -9808433.25849  -7630719.34347  20864220.350    20864220.142    20864229.816
       241.000         207.000
   -553072.32149   -414519.07245  24276426.409    24276426.893    24276440.454
       210.000         144.000
   2727151.46149   2122790.03846  22974222.390    22974221.928    22974237.105
       219.000         167.000
   5265880.19649   4099080.04645  23669095.606    23669094.820    23669108.700
       214.000         150.000
  -6866079.90649  -5337140.88145  23288390.047    23288390.390    23288402.153
       221.000         161.000
 01 11 12 17  0 59.9980000  0  9G27G25G22G20G 1G 4G29G11G13
  -1313798.05849   -997472.62244  24926834.196    24926834.144    24926851.768
       195.000         130.000
   3636937.81949   2831439.10347  22107532.532    22107532.180    22107543.159
       234.000         192.000
 -11857057.86749  -9219042.09647  20399840.999    20399840.645    20399851.341
       240.000         209.000
  -7842088.72649  -6096173.16947  19718032.153    19718031.800    19718040.203
       230.000         205.000
  -9886048.19449  -7691198.54747  20849450.675    20849450.528    20849460.256
       241.000         208.000
   -631072.21149   -475298.27245  24261583.494    24261583.995    24261597.601
       211.000         146.000
   2757760.17749   2146640.68346  22980047.292    22980046.784    22980062.058
       218.000         170.000
   5318349.01049   4139964.46445  23679080.325    23679079.522    23679093.483
       214.000         152.000
  -6976811.25449  -5423425.05246  23267318.489    23267318.905    23267330.690
       217.000         163.000
 01 11 12 17  1 29.9980000  0  9G27G25G22G20G 1G 4G29G11G13
  -1435503.70548  -1092308.10944  24903674.426    24903674.320    24903692.078
       192.000         128.000
   3680208.46149   2865156.29447  22115766.838    22115766.464    22115777.471
       235.000         191.000
 -11929082.71249  -9275165.37147  20386135.181    20386134.776    20386145.446
       240.000         209.000
  -7879477.36849  -6125307.21347  19710917.368    19710917.019    19710925.425
       230.000         205.000
  -9963519.31749  -7751565.68347  20834708.380    20834708.251    20834718.039
       242.000         207.000
   -708586.44149   -535699.04445  24246833.205    24246833.649    24246847.163
       214.000         149.000
   2788492.59349   2170587.70846  22985895.627    22985895.192    22985910.594
       221.000         171.000
   5370819.31349   4180850.04345  23689065.547    23689064.596    23689078.668
       215.000         153.000
  -7087505.79949  -5509680.51046  23246253.899    23246254.387    23246266.325
       223.000         172.000
 01 11 12 17  1 59.9980000  0  9G27G25G22G20G 1G 4G29G11G13
  -1557089.94148  -1187050.48444  24880537.317    24880537.284    24880554.967
       189.000         125.000
   3723612.35049   2898977.31147  22124026.455    22124026.077    22124037.126
       233.000         192.000
 -12000492.20049  -9330809.15047  20372546.411    20372545.990    20372556.693
       240.000         210.000
  -7916293.44349  -6153995.09447  19703911.588    19703911.207    19703919.593
       230.000         205.000
 -10040842.02649  -7811817.17447  20819994.474    20819994.291    20820004.058
       241.000         208.000
   -785609.91949   -595717.42145  24232176.178    24232176.559    24232190.011
       218.000         148.000
   2819353.00749   2194634.48846  22991768.427    22991767.989    22991783.439
       220.000         169.000
   5423292.60149   4221737.92645  23699051.259    23699050.217    23699064.426
       212.000         149.000
  -7198159.27749  -5595904.02546  23225197.436    23225197.848    23225209.715
       223.000         171.000
 01 11 12 17  2 29.9980000  0  9G27G25G22G20G 1G 4G29G11G13
  -1678570.78748  -1281710.78244  24857420.039    24857419.997    24857437.790
       192.000         121.000
   3767133.03549   2932889.34147  22132308.271    22132307.933    22132319.051
       233.000         192.000
 -12071299.39549  -9385983.60747  20359072.321    20359071.842    20359082.551
       241.000         210.000
  -7952551.23449  -6182247.95247  19697012.003    19697011.618    19697020.004
       231.000         205.000
 -10118030.69149  -7871964.20647  20805305.947    20805305.785    20805315.580
       241.000         207.000
   -862156.09449   -655363.90245  24217609.975    24217610.287    24217623.783
       218.000         156.000
   2850326.71649   2218769.54646  22997662.818    22997662.327    22997677.859
       221.000         170.000
   5475751.13849   4262614.32445  23709033.941    23709033.035    23709047.249
       212.000         147.000
  -7308786.10749  -5682106.73346  23204145.895    23204146.290    23204158.194
       221.000         172.000
 01 11 12 17  2 59.9980000  0  9G27G25G22G20G 1G 4G29G11G13
  -1799923.28548  -1376271.03144  24834327.509    24834327.256    24834344.988
       189.000         118.000
   3810791.30149   2966908.57447  22140616.247    22140615.951    22140627.170
       233.000         192.000
 -12141480.57949  -9440670.26747  20345717.230    20345716.804    20345727.530
       240.000         210.000
  -7988227.72949  -6210047.86047  19690223.030    19690222.648    19690231.018
       230.000         205.000
 -10195062.66049  -7931989.13147  20790647.277    20790647.113    20790656.923
       241.000         208.000
   -938201.73449   -714620.28845  24203139.221    24203139.436    24203152.862
       223.000         160.000
   2881436.31749   2243010.48346  23003583.184    23003582.546    23003598.161
       221.000         170.000
   5528214.38149   4303494.39345  23719017.618    23719016.719    23719030.973
       216.000         150.000
  -7419363.96849  -5768271.22346  23183103.584    23183104.032    23183115.981
       219.000         170.000
 01 11 12 17  3 29.9980000  0  9G27G25G22G20G 1G 4G29G11G13
  -1921153.74648  -1470736.16744  24811258.261    24811258.008    24811275.808
       190.000         119.000
   3854578.32749   3001028.13947  22148948.817    22148948.485    22148959.757
       233.000         191.000
 -12211040.86049  -9494873.10647  20332480.300    20332479.905    20332490.670
       240.000         210.000
  -8023329.28749  -6237399.75747  19683543.390    19683543.063    19683551.466
       230.000         205.000
 -10271944.54249  -7991897.10347  20776017.233    20776017.031    20776026.821
       242.000         208.000
  -1013752.82549   -773491.37845  24188762.312    24188762.558    24188776.013
       222.000         159.000
   2912674.92749   2267351.95746  23009527.968    23009527.318    23009543.020
       220.000         168.000
   5580672.59149   4344370.55645  23729000.514    23728999.520    23729013.876
       215.000         151.000
  -7529899.68349  -5854402.96046  23162069.487    23162069.822    23162081.742
       222.000         170.000
 01 11 12 17  3 59.9980000  0  9G27G25G22G20G 1G 4G29G11G13
  -2042267.47048  -1565110.35844  24788210.930    24788210.595    24788228.689
       189.000         119.000
   3898486.47549   3035242.08647  22157304.401    22157304.079    22157315.420
       234.000         191.000
 -12279984.80649  -9548595.68547  20319360.711    20319360.327    20319371.093
       241.000         211.000
  -8057861.33449  -6264307.88247  19676972.202    19676971.839    19676980.261
       230.000         204.000
 -10348682.08649  -8051692.59947  20761414.563    20761414.384    20761424.202
       242.000         209.000
  -1088814.47649   -831981.03745  24174478.607    24174478.800    24174492.367
       222.000         159.000
   2944036.51649   2291789.26846  23015496.081    23015495.488    23015511.206
       222.000         168.000
   5633116.83549   4385235.82945  23738980.528    23738979.613    23738994.102
       216.000         152.000
  -7640398.99549  -5940506.30146  23141042.074    23141042.476    23141054.424
       219.000         168.000
 01 11 12 17  4 29.9980000  0  9G27G25G22G20G 1G 4G29G11G13
  -2163250.27148  -1659382.54444  24765188.540    24765188.386    24765206.431
       189.000         114.000
   3942527.24549   3069559.37247  22165685.238    22165684.920    22165696.300
       233.000         191.000
 -12348297.22549  -9601826.15947  20306361.358    20306360.931    20306371.690
       241.000         211.000
  -8091809.70849  -6290761.19447  19670512.071    19670511.708    19670520.138
       230.000         205.000
 -10425261.20349  -8111364.64547  20746842.081    20746841.889    20746851.763
       242.000         208.000
  -1163372.34649   -890078.17945  24160290.758    24160290.969    24160304.487
       225.000         162.000
   2975534.64249   2316332.95046  23021490.249    23021489.630    23021505.367
       218.000         166.000
   5685558.06349   4426098.70745  23748960.060    23748959.132    23748973.645
       213.000         149.000
  -7750848.06049  -6026570.51946  23120024.400    23120024.780    23120036.692
       226.000         172.000
 01 11 12 17  4 59.9980000  0  9G27G25G22G20G 1G 4G29G11G13
  -2284084.93648  -1753539.29944  24742194.534    24742194.120    24742212.332
       192.000         117.000
   3986715.81949   3103991.83447  22174094.309    22174093.899    22174105.305
       234.000         191.000
 -12415960.01149  -9654550.41947  20293485.638    20293485.161    20293495.921
       241.000         212.000
  -8125157.29349  -6316746.36447  19664166.277    19664165.907    19664174.339
       231.000         205.000
 -10501664.78949  -8170899.92047  20732302.951    20732302.793    20732312.670
       242.000         208.000
  -1237408.83949   -947768.99146  24146202.166    24146202.363    24146215.907
       225.000         164.000
   3007186.15249   2340996.17046  23027513.552    23027512.933    23027528.721
       218.000         167.000
   5738009.93949   4466969.90845  23758941.653    23758940.735    23758955.212
       212.000         147.000
  -7861230.24649  -6112582.63446  23099019.398    23099019.758    23099031.708
       221.000         171.000
 01 11 12 17  5 29.9980000  0  9G27G25G22G20G 1G 4G29G11G13
  -2404799.25149  -1847602.31344  24719223.084    24719222.932    24719241.183
       195.000         116.000
   4031021.61849   3138515.63547  22182525.576    22182525.162    22182536.628
       234.000         190.000
 -12483000.34049  -9706789.64547  20280728.345    20280727.836    20280738.604
       242.000         211.000
  -8157932.22449  -6342285.31447  19657929.486    19657929.093    19657937.509
       230.000         204.000
 -10577921.24549  -8230320.54647  20717791.817    20717791.684    20717801.572
       241.000         208.000
  -1310951.61049  -1005075.10346  24132207.483    24132207.674    24132221.348
       227.000         163.000
   3038962.46549   2365756.64646  23033560.555    23033559.996    23033575.881
       217.000         167.000
   5790441.19649   4507825.06245  23768919.137    23768918.343    23768932.887
       210.000         149.000
  -7971574.34449  -6198564.99846  23078021.515    23078021.910    23078034.002
       222.000         171.000
 01 11 12 17  5 59.9980000  0  9G27G25G22G20G 1G 4G29G11G13
  -2525379.39549  -1941560.82244  24696277.120    24696277.029    24696295.160
       199.000         111.000
   4075456.56649   3173140.07347  22190981.401    22190981.015    22190992.517
       233.000         189.000
 -12549403.34049  -9758532.24347  20268092.303    20268091.775    20268102.562
       241.000         212.000
  -8190120.48149  -6367367.11547  19651804.257    19651803.889    19651812.313
       230.000         204.000
 -10654016.76049  -8289615.77447  20703311.303    20703311.184    20703321.113
       241.000         208.000
  -1383986.48449  -1061985.50845  24118309.527    24118309.693    24118323.325
       221.000         159.000
   3070876.86149   2390624.68746  23039633.859    23039633.326    23039649.283
       217.000         167.000
   5842862.24349   4548672.22145  23778894.916    23778894.066    23778908.826
       216.000         152.000
  -8081866.32749  -6284506.84146  23057033.709    23057034.077    23057046.017
       223.000         164.000
 01 11 12 17  6 29.9980000  0  9G27G25G22G20G 1G 4G29G11G13
  -2645844.06048  -2035429.40244  24673353.324    24673353.132    24673371.484
       191.000         116.000
   4119999.34549   3207848.53147  22199457.784    22199457.381    22199468.888
       233.000         189.000
 -12615186.83049  -9809792.09447  20255574.107    20255573.612    20255584.414
       241.000         212.000
  -8221740.99749  -6392006.52347  19645787.069    19645786.703    19645795.172
       230.000         204.000
 -10729970.14449  -8348800.24447  20688857.854    20688857.743    20688867.674
       241.000         207.000
  -1456532.00549  -1118514.56845  24104504.638    24104504.767    24104518.484
       221.000         153.000
   3102910.12549   2415585.37646  23045729.829    23045729.278    23045745.271
       219.000         168.000
   5895250.70949   4589494.01545  23788864.527    23788863.589    23788878.487
       212.000         149.000
  -8192125.29149  -6370422.97546  23036052.134    23036052.488    23036064.296
       223.000         167.000
 01 11 12 17  6 59.9980000  0  9G27G25G22G20G 1G 4G29G11G13
  -2766200.69549  -2129213.68144  24650450.019    24650450.035    24650468.106
       196.000         115.000
   4164639.88349   3242633.15747  22207952.696    22207952.325    22207963.887
       232.000         188.000
 -12680357.68749  -9860574.57147  20243172.559    20243172.016    20243182.832
       241.000         212.000
  -8252801.50149  -6416209.55447  19639876.492    19639876.122    19639884.592
       231.000         205.000
 -10805789.13549  -8407879.98647  20674430.013    20674429.882    20674439.803
       242.000         208.000
  -1528595.47949  -1174667.97845  24090791.372    24090791.544    24090805.218
       220.000         153.000
   3135054.18349   2440632.36246  23051846.968    23051846.318    23051862.414
       219.000         168.000
   5947595.79449   4630281.96945  23798825.906    23798824.899    23798839.857
       209.000         148.000
  -8302359.66549  -6456319.89946  23015075.222    23015075.570    23015087.403
       222.000         169.000
 01 11 12 17  7 29.9970000  0  9G27G25G22G20G 1G 4G29G11G13
  -2886417.31248  -2222888.95544  24627573.682    24627573.412    24627591.494
       188.000         109.000
   4209402.60249   3277512.97947  22216470.890    22216470.541    22216482.149
       232.000         188.000
 -12744884.92649  -9910855.52447  20230893.383    20230892.896    20230903.725
       241.000         212.000
  -8283273.12449  -6439953.71847  19634077.933    19634077.576    19634086.089
       230.000         205.000
 -10881443.50649  -8466831.46047  20660033.546    20660033.362    20660043.229
       242.000         208.000
  -1600146.20649  -1230421.85445  24077175.842    24077176.007    24077189.629
       223.000         157.000
   3167335.36749   2465786.23246  23057990.086    23057989.482    23058005.593
       219.000         169.000
   5999920.45749   4671053.99045  23808783.228    23808782.216    23808797.419
       210.000         150.000
  -8412537.99749  -6542173.20546  22994109.038    22994109.329    22994121.068
       223.000         166.000
 01 11 12 17  7 59.9970000  0  9G27G25G22G20G 1G 4G29G11G13
  -3006525.30748  -2316479.69544  24604717.881    24604717.602
       186.000         110.000
   4254265.05149   3312470.50047  22225008.172    22225007.730    22225019.415
       232.000         189.000
 -12808795.48449  -9960655.94347  20218731.597    20218731.113    20218741.942
       241.000         212.000
  -8313181.54649  -6463259.02647  19628386.592    19628386.231    19628394.754
       230.000         205.000
 -10956962.01649  -8525677.05947  20645662.825    20645662.673    20645672.529
       242.000         208.000
  -1671212.12249  -1285797.96145  24063652.421    24063652.670    24063666.288
       217.000         152.000
   3199731.94549   2491030.00246  23064155.273    23064154.616    23064170.763
       220.000         170.000
   6052201.25949   4711791.85945  23818732.240    23818731.221    23818746.614
       212.000         149.000
  -8522691.34549  -6628006.96946  22973147.420    22973147.811    22973159.555
       216.000         167.000
 01 11 12 17  8 29.9970000  0  9G27G25G22G20G 1G 4G29G11G13
                  -2409962.11844  24581888.260
       182.000         106.000
   4299249.13049   3347522.80547  22233568.475    22233568.078    22233579.818
       232.000         189.000
 -12872060.27649 -10009953.15947  20206692.738    20206692.231    20206703.069
       241.000         212.000
  -8342499.71049  -6486104.39447  19622807.598    19622807.211    19622815.755
       230.000         205.000
 -11032316.07249  -8584394.52047  20631323.439    20631323.279    20631333.152
       241.000         208.000
  -1741764.82149  -1340774.10045  24050226.759    24050226.977    24050240.639
       217.000         149.000
   3232268.53249   2516382.88746  23070346.961    23070346.355    23070362.547
       218.000         168.000
   6104459.36849   4752512.04745  23828676.808    23828675.871    23828691.411
       212.000         146.000
  -8632790.24249  -6713798.32046  22952196.380    22952196.706    22952208.456
       224.000         169.000
 01 11 12 17  8 59.9970000  0  9G27G25G22G20G 1G 4G29G11G13
  -3246331.80548  -2503341.88944  24559084.164    24559083.677    24559101.220
       191.000         109.000
   4344345.90249   3382662.92047  22242150.349    22242149.908    22242161.655
       233.000         189.000
 -12934685.68049 -10058752.15347  20194775.471    20194775.013    20194785.845
       241.000         212.000
  -8371235.04049  -6508495.60947  19617339.498    19617339.105    19617347.655
       231.000         205.000
 -11107512.87249  -8642989.44447  20617013.919    20617013.802    20617023.721
       241.000         208.000
  -1811810.96649  -1395355.59145  24036897.390    24036897.593    24036911.411
       216.000         148.000
   3264937.51449   2541838.90346  23076563.853    23076563.295    23076579.567
       220.000         168.000
   6156684.33849   4793206.40045  23838615.144    23838614.223    23838629.823
       211.000         144.000
  -8742842.26249  -6799553.20446  22931254.211    22931254.500    22931266.136
       221.000         165.000
 01 11 12 17  9 29.9970000  0  9G27G25G22G20G 1G 4G29G11G13
  -3366059.63348  -2596636.37244  24536300.636    24536300.572    24536317.963
       190.000         112.000
   4389530.46249   3417871.42547  22250748.917    22250748.431    22250760.256
       232.000         189.000
 -12996693.55749 -10107069.96047  20182975.725    20182975.283    20182986.136
       241.000         212.000
  -8399409.97149  -6530450.15647  19611977.992    19611977.622    19611986.211
       230.000         205.000
 -11182574.81649  -8701479.28647  20602730.105    20602729.981    20602739.954
       241.000         208.000
  -1881372.94949  -1449559.76645  24023660.288    24023660.478    24023674.305
       213.000         148.000
   3297715.81349   2567380.12346  23082801.565    23082801.047    23082817.382
       219.000         168.000
   6208850.35549   4833854.84445  23848542.213    23848541.375    23848557.098
       209.000         142.000
  -8852870.07749  -6885289.18046  22910316.616    22910316.944    22910328.634
       224.000         172.000
 01 11 12 17  9 59.9970000  0  9G27G25G22G20G 1G 4G29G11G13
                  -2689812.94044  24513546.205
       197.000         106.000
   4434842.60049   3453179.35147  22259371.598    22259371.198    22259383.092
       233.000         189.000
 -13058041.21549 -10154873.30447  20171301.646    20171301.200    20171312.072
       241.000         212.000
  -8426982.95749  -6551935.65047  19606730.986    19606730.669    19606739.302
       230.000         205.000
 -11257460.23349  -8759831.57647  20588479.905    20588479.770    20588489.764
       241.000         208.000
  -1950408.77149  -1503353.99945  24010523.139    24010523.401    24010537.369
       218.000         153.000
   3330644.95849   2593038.88846  23089068.019    23089067.466    23089083.892
       219.000         168.000
   6260996.03049   4874487.39845  23858465.520    23858464.696    23858480.682
       210.000         145.000
  -8962832.08449  -6970973.88746  22889391.554    22889391.907    22889403.534
       224.000         169.000
 01 11 12 17 10 29.9970000  0  9G27G25G22G20G 1G 4G29G11G13
  -3605093.86648  -2782896.91044  24490814.422    24490813.972    24490831.282
       189.000         115.000
   4480247.43149   3488559.49747  22268012.076    22268011.647    22268023.573
       232.000         189.000
 -13118760.57849 -10202187.07447  20159747.117    20159746.702    20159757.550
       241.000         212.000
  -8453986.85849  -6572977.70647  19601592.332    19601592.015    19601600.691
       230.000         205.000
 -11332201.88449  -8818071.83447  20574257.043    20574256.905    20574266.924
       241.000         207.000
  -2018950.92049  -1556763.54445  23997480.138    23997480.301    23997494.151
       216.000         150.000
   3363691.60849   2618789.20446  23095356.781    23095356.277    23095372.773
       219.000         165.000
   6313085.42449   4915076.07645  23868378.270    23868377.397    23868393.511
       212.000         148.000
  -9072761.29749  -7056633.04846  22868472.779    22868473.101    22868484.748
       225.000         174.000
 01 11 12 17 10 59.9970000  0  9G27G25G22G20G 1G 4G29G11G13
  -3724431.40748  -2875887.26144  24468105.076    24468104.723    24468122.408
       188.000         113.000
   4525744.16449   3524011.25447  22276669.998    22276669.555    22276681.504
       232.000         188.000
 -13178849.63749 -10249009.70347  20148312.560    20148312.110    20148322.982
       241.000         212.000
  -8480420.59349  -6593575.48147  19596562.197    19596561.873    19596570.570
       231.000         205.000
 -11406798.53249  -8876199.11647  20560061.782    20560061.635    20560071.632
       242.000         207.000
  -2086998.09349  -1609787.34145  23984531.143    23984531.400    23984545.273
       214.000         152.000
   3396856.70349   2644631.82345  23101668.179    23101667.629    23101684.132
       219.000         162.000
   6365116.48449   4955619.31645  23878279.774    23878278.854    23878295.066
       210.000         147.000
  -9182656.76049  -7142265.90046  22847560.390    22847560.737    22847572.453
       222.000         176.000
 01 11 12 17 11 29.9970000  0  9G27G25G22G20G 1G 4G29G11G13
  -3843635.06549  -2968773.25844  24445421.247    24445420.858    24445438.567
       195.000         119.000
   4571344.19149   3559543.49046  22285347.570    22285347.133    22285359.155
       231.000         187.000
 -13238294.30749 -10295330.21647  20137000.526    20137000.134    20137011.041
       241.000         212.000
  -8506270.85849  -6613718.61347  19591643.121    19591642.759    19591651.475
       231.000         205.000
 -11481236.52249  -8934202.76147  20545896.695    20545896.577    20545906.555
       241.000         207.000
  -2154536.26949  -1662414.54745  23971679.083    23971679.357    23971693.230
       215.000         153.000
   3430153.70549   2670577.20046  23108004.587    23108004.044    23108020.652
       217.000         164.000
   6417099.72649   4996125.27245  23888172.105    23888171.209    23888187.553
       210.000         144.000
  -9292504.92049  -7227861.86346  22826657.047    22826657.367    22826669.095
       227.000         175.000
 01 11 12 17 11 59.9970000  0  9G27G25G22G20G 1G 4G29G11G13
  -3962690.22549  -3061543.52344  24422765.689    24422765.297    24422783.019
       195.000         120.000
   4617059.93249   3595165.90646  22294047.178    22294046.738    22294058.780
       231.000         187.000
 -13297079.44949 -10341136.81747  20125814.028    20125813.661    20125824.607
       241.000         212.000
  -8531523.57349  -6633396.12147  19586837.750    19586837.378    19586846.089
       230.000         205.000
 -11555501.41049  -8992071.51847  20531764.573    20531764.461    20531774.425
       242.000         207.000
  -2221550.93049  -1714633.80445  23958926.710    23958926.957    23958940.846
       218.000         156.000
   3463596.20949   2696635.96245  23114368.781    23114368.196    23114384.809
       219.000         160.000
   6469046.14449   5036602.51245  23898057.414    23898056.589    23898072.982
       211.000         140.000
  -9402291.78149  -7313410.10146  22805765.315    22805765.650    22805777.341
       222.000         174.000
 01 11 12 17 12 29.9970000  0  9G27G25G22G20G 1G 4G29G11G13
  -4081604.78749  -3154204.20644  24400137.167    24400136.469    24400154.229
       202.000         121.000
   4662881.18349   3630870.51846  22302766.810    22302766.390    22302778.527
       231.000         186.000
 -13355212.29849 -10386435.13948  20114751.769    20114751.342    20114762.270
       241.000         213.000
  -8556186.85049  -6652614.32647  19582144.512    19582144.136    19582152.876
       231.000         205.000
 -11629601.07449  -9049811.52947  20517663.903    20517663.773    20517673.722
       241.000         207.000
  -2288049.93649  -1766451.25945  23946272.507    23946272.687    23946286.550
       221.000         154.000
   3497175.76349   2722801.51845  23120759.110    23120758.429    23120775.025
       215.000         159.000
   6520944.96049   5077042.68045  23907934.096    23907933.075    23907949.188
       209.000         139.000
  -9512025.37949  -7398916.75546  22784883.614    22784884.022    22784895.871
       225.000         175.000
 01 11 12 17 12 59.9970000  0  9G27G25G22G20G 1G 4G29G11G13
  -4200396.29149  -3246768.94344  24377532.156    24377531.480    24377548.642
       204.000         124.000
   4708788.57149   3666642.26746  22311502.909    22311502.464    22311514.604
       231.000         184.000
 -13412709.87249 -10431238.45348  20103810.332    20103809.920    20103820.815
       242.000         213.000
  -8580278.43249  -6671387.05547  19577560.079    19577559.697    19577568.460
       231.000         205.000
 -11703553.25849  -9107436.62347  20503591.249    20503591.149    20503601.108
       241.000         208.000
  -2354050.70849  -1817880.54145  23933713.062    23933713.254    23933726.941
       221.000         153.000
   3530874.71849   2749060.11645  23127171.992    23127171.359    23127187.959
       215.000         159.000
   6572775.17149   5117429.36445  23917797.214    23917796.428    23917812.573
       202.000         140.000
  -9621723.61149  -7484395.88246  22764008.646    22764009.103    22764021.051
       225.000         173.000
 01 11 12 17 13 29.9970000  0  9G27G25G22G20G 1G 4G29G11G13
  -4319053.34649  -3339228.88144  24354952.686    24354951.911    24354969.278
       199.000         129.000
   4754790.81049   3702487.92746  22320257.010    22320256.559    22320268.736
       232.000         185.000
 -13469560.51549 -10475537.66147  20092992.010    20092991.609    20093002.467
       241.000         212.000
  -8603787.84049  -6689706.13747  19573086.418    19573086.052    19573094.825
       231.000         205.000
 -11777346.78149  -9164938.08447  20489548.853    20489548.735    20489558.657
       242.000         208.000
  -2419542.19449  -1868912.94345  23921250.550    23921250.670    23921264.295
       216.000         156.000
   3564703.60849   2775419.96145  23133609.645    23133609.048    23133625.673
       217.000         159.000
   6624544.82049   5157768.83245  23927648.770    23927648.008    23927664.492
       202.000         136.000
  -9731375.51449  -7569838.92746  22743142.495    22743143.045    22743154.938
       227.000         174.000
 01 11 12 17 13 59.9970000  0  9G27G25G22G20G 1G 4G29G11G13
  -4437562.16049  -3431573.31144  24332401.029    24332400.423    24332418.006
       198.000         130.000
   4800899.77549   3738416.74946  22329031.505    22329031.002    22329043.287
       230.000         184.000
 -13525749.92349 -10519321.62548  20082299.632    20082299.157    20082309.950
       242.000         213.000
  -8626701.25949  -6707560.81347  19568726.214    19568725.813    19568734.596
       230.000         205.000
 -11850967.84449  -9222305.16047  20475539.233    20475539.114    20475549.069
       241.000         208.000
  -2484510.40849  -1919537.61245  23908887.417    23908887.657    23908901.418
       216.000         159.000
   3598675.70149   2801891.38945  23140074.619    23140073.946    23140090.740
       214.000         159.000
   6676264.42249   5198069.35945  23937490.934    23937490.091    23937506.803
       203.000         139.000
  -9840967.40749  -7655235.17646  22722287.914    22722288.425    22722300.340
       224.000         171.000
 01 11 12 17 14 29.9970000  0  9G27G25G22G20G 1G 4G29G11G13
  -4555932.96949  -3523810.21745  24309875.588    24309875.211    24309892.877
       196.000         133.000
   4847102.91349   3774418.95846  22337823.854    22337823.338    22337835.712
       229.000         185.000
 -13581287.78849 -10562597.90848  20071731.092    20071730.651    20071741.440
       242.000         213.000
  -8649029.46249  -6724959.47947  19564477.376    19564476.957    19564485.730
       232.000         206.000
 -11924426.76549  -9279545.90647  20461560.465    20461560.364    20461570.302
       241.000         208.000
  -2548965.59949  -1969762.51645  23896622.112    23896622.331    23896636.018
       213.000         151.000
   3632780.36749   2828466.09545  23146564.670    23146564.073    23146581.098
       214.000         160.000
   6727920.64949   5238320.44345  23947321.277    23947320.232    23947337.196
       209.000         143.000
  -9950509.92449  -7740592.96446  22701442.648    22701443.157    22701455.057
       228.000         173.000
 01 11 12 17 14 59.9970000  0  9G27G25G22G20G 1G 4G29G11G13
  -4674176.41048  -3615947.82545  24287374.265    24287374.174    24287391.943
       194.000         136.000
   4893387.75149   3810484.82446  22346631.611    22346631.190    22346643.675
       230.000         184.000
 -13636184.04449 -10605374.24148  20061284.635    20061284.229    20061295.054
       241.000         213.000
  -8670783.48749  -6741910.73347  19560337.803    19560337.360    19560346.137
       231.000         205.000
 -11997733.92849  -9336668.39447  20447610.628    20447610.509    20447620.450
       241.000         209.000
  -2612918.28549  -2019595.86945  23884452.072    23884452.454    23884466.348
       201.000         139.000
   3667006.59049   2855135.53745  23153078.108    23153077.385    23153094.489
       216.000         161.000
   6779499.70149   5278511.43545  23957136.966    23957135.761    23957152.807
       210.000         140.000
 -10060013.89049  -7825920.66746  22680604.693    22680605.214    22680617.151
       223.000         170.000
 01 11 12 17 15 29.9970000  0  9G27G25G22G20G 1G 4G29G11G13
  -4792271.50649  -3707969.88045  24264901.625    24264901.458    24264919.297
       204.000         140.000
   4939773.16349   3846629.07346  22355458.617    22355458.188    22355470.717
       230.000         185.000
 -13690417.39949 -10647634.02348  20050964.358    20050963.952    20050974.811
       241.000         213.000
  -8691942.69349  -6758398.48847  19556311.346    19556310.931    19556319.717
       231.000         205.000
 -12070868.36349  -9393656.28447  20433693.633    20433693.499    20433703.453
       242.000         208.000
  -2676347.49549  -2069021.27445  23872381.959    23872382.299    23872396.241
       200.000         140.000
   3701374.85749   2881915.65345  23159618.309    23159617.662    23159634.879
       218.000         160.000
   6831019.44449   5318656.13445  23966941.472    23966940.086    23966957.114
       206.000         139.000
 -10169458.14449  -7911201.91246  22659778.199    22659778.688    22659790.586
       228.000         175.000
 01 11 12 17 15 59.9970000  0  9G27G25G22G20G 1G 4G29G11G13
  -4910213.58549  -3799872.68145  24242458.153    24242457.937    24242475.760
       206.000         144.000
   4986261.72349   3882853.69246  22364305.151    22364304.820    22364317.413
       230.000         185.000
 -13743982.99649 -10689373.47248  20040771.130    20040770.737    20040781.643
       241.000         213.000
  -8712502.97149  -6774419.54447  19552398.912    19552398.490    19552407.277
       232.000         206.000
 -12143825.50649  -9450506.01647  20419810.327    20419810.223    20419820.178
       242.000         208.000
  -2739248.88949  -2118035.43045  23860412.250    23860412.650    23860426.594
       206.000         145.000
   3735889.33349   2908809.69945  23166186.267    23166185.778    23166203.107
       214.000         161.000
   6882481.28449   5358755.75245  23976734.646    23976733.297    23976750.433
       205.000         138.000
 -10278838.47449  -7996433.25346  22638963.882    22638964.294    22638976.275
       223.000         172.000
 01 11 12 17 16 29.9970000  0  9G27G25G22G20G 1G 4G29G11G13
  -5028040.05449  -3891685.38645  24220036.498    24220036.359    24220054.053
       208.000         142.000
   5032813.73549   3919127.75146  22373163.876    22373163.536    22373176.155
       231.000         184.000
 -13796917.77349 -10730621.38148  20030698.006    20030697.595    20030708.506
       242.000         214.000
  -8732502.27649  -6790003.47747  19548593.237    19548592.802    19548601.602
       232.000         206.000
 -12216642.77249  -9507246.75047  20405953.688    20405953.579    20405963.526
       241.000         208.000
  -2801659.80648  -2166667.37245  23848535.616    23848536.237    23848550.328
       193.000         136.000
   3770511.97049   2935788.01746  23172775.080    23172774.536    23172791.948
       215.000         163.000
   6933844.47749   5398778.47045  23986509.109    23986507.889    23986524.991
       209.000         136.000
 -10388192.84249  -8081644.42646  22618154.336    22618154.782    22618166.729
       224.000         170.000
 01 11 12 17 16 59.9970000  0  9G27G25G22G20G 1G 4G29G11G13
  -5145721.54849  -3983385.11445  24197642.623    24197642.347    24197659.906
       206.000         140.000
   5079456.70249   3955472.68546  22382040.037    22382039.581    22382052.208
       230.000         185.000
 -13849192.08749 -10771354.63948  20020750.587    20020750.148    20020761.051
       242.000         214.000
  -8751911.77849  -6805127.82747  19544899.773    19544899.338    19544908.164
       232.000         206.000
 -12289290.74449  -9563855.57447  20392129.240    20392129.142    20392139.101
       241.000         209.000
  -2863551.13049  -2214894.40845  23836758.166    23836758.591    23836772.901
       208.000         143.000
   3805271.63949   2962873.10846  23179390.115    23179389.353    23179406.866
       216.000         163.000
   6985135.20249   5438744.76345  23996269.623    23996268.632    23996285.531
       209.000         137.000
 -10497491.80349  -8166812.41846  22597355.524    22597355.932    22597367.864
       226.000         172.000
 01 11 12 17 17 29.9970000  0  9G27G25G22G20G 1G 4G29G11G13
  -5263261.64849  -4074974.67045  24175275.455    24175275.266    24175292.566
       200.000         135.000
   5126185.02049   3991884.12146  22390932.220    22390931.838    22390944.571
       231.000         184.000
 -13900809.26549 -10811575.83948  20010928.224    20010927.751    20010938.649
       242.000         214.000
  -8770735.47249  -6819795.70247  19541317.779    19541317.349    19541326.212
       232.000         206.000
 -12361772.91249  -9620335.19547  20378336.392    20378336.257    20378346.240
       241.000         208.000
  -2924926.60249  -2262719.48145  23825078.892    23825079.343    23825093.669
       213.000         150.000
   3840164.30849   2990061.82245  23186030.205    23186029.428    23186047.039
       215.000         160.000
   7036346.88849   5478649.44045  24006015.257    24006014.340    24006031.275
       206.000         135.000
 -10606739.23249  -8251940.24946  22576566.333    22576566.809    22576578.744
       223.000         168.000
 01 11 12 17 17 59.9970000  0  9G27G25G22G20G 1G 4G29G11G13
  -5380661.90348  -4166455.25944  24152934.092    24152934.488    24152951.918
       187.000         127.000
   5172994.88849   4028359.12146  22399840.148    22399839.659    22399852.377
       230.000         184.000
 -13951770.57449 -10851285.97748  20001230.613    20001230.153    20001241.051
       242.000         214.000
  -8788975.60849  -6834008.85447  19537846.820    19537846.409    19537855.296
       232.000         206.000
 -12434090.73249  -9676686.75347  20364574.799    20364574.656    20364584.619
       241.000         208.000
  -2985787.76749  -2310143.85845  23813497.583    23813497.951    23813512.140
       216.000         154.000
   3875187.90649   3017352.57845  23192695.243    23192694.479    23192712.157
       214.000         160.000
   7087474.78349   5518488.83745  24015744.871    24015743.898    24015761.171
       200.000         134.000
 -10715936.68849  -8337029.13246  22555786.866    22555787.248    22555799.115
       228.000         174.000
 01 11 12 17 18 29.9970000  0  9G27G25G22G20G 1G 4G29G11G13
  -5497919.50749  -4257824.69344  24130620.351    24130620.772    24130638.510
       197.000         122.000
   5219887.05649   4064898.23146  22408763.495    22408763.105    22408775.925
       227.000         183.000
 -14002073.00549 -10890482.69548  19991658.407    19991657.938    19991668.825
       242.000         214.000
  -8806630.06649  -6847765.63247  19534487.304    19534486.925    19534495.822
       232.000         207.000
 -12506241.38249  -9732908.05347  20350844.960    20350844.840    20350854.832
       241.000         208.000
  -3046131.99149  -2357165.44345  23802014.666    23802014.937    23802029.120
       215.000         161.000
   3910344.89049   3044747.28645  23199385.656    23199384.871    23199402.646
       216.000         160.000
   7138518.72349   5558262.77945  24025458.456    24025457.530    24025475.086
       205.000         139.000
 -10825081.60449  -8422077.10446  22535017.276    22535017.692    22535029.441
       226.000         172.000
 01 11 12 17 18 59.9970000  0  9G27G25G22G20G 1G 4G29G11G13
  -5615047.78149  -4349093.44144  24108331.807    24108332.158    24108349.706
       197.000         123.000
   5266845.99849   4101489.37446  22417699.647    22417699.275    22417712.184
       229.000         181.000
 -14051729.37949 -10929175.98548  19982209.134    19982208.653    19982219.549
       242.000         214.000
  -8823712.31849  -6861076.53547  19531236.739    19531236.325    19531245.257
       233.000         207.000
 -12578237.97849  -9789009.31347  20337144.438    20337144.340    20337154.350
       241.000         208.000
  -3105972.68749  -2403794.57045  23790627.352    23790627.666    23790641.868
       220.000         159.000
   3945621.51549   3072235.22545  23206098.810    23206098.092    23206115.897
       213.000         160.000
   7189462.22749   5597958.44445  24035153.228    24035152.183    24035169.784
       201.000         139.000
 -10934187.44749  -8507094.62746  22514254.959    22514255.502    22514267.198
       227.000         173.000
 01 11 12 17 19 29.9970000  0  9G27G25G22G20G 1G 4G29G11G13
  -5732026.11849  -4440245.28544  24086072.053    24086071.919    24086089.200
       202.000         124.000
   5313890.88449   4138147.46746  22426652.314    22426651.812    22426664.753
       229.000         181.000
 -14100718.97949 -10967349.71248  19972886.735    19972886.267    19972897.129
       241.000         213.000
  -8840202.39249  -6873925.99947  19528098.857    19528098.426    19528107.367
       232.000         207.000
 -12650059.82849  -9844974.41547  20323477.205    20323477.108    20323487.126
       241.000         208.000
  -3165289.40649  -2450015.47145  23779339.988    23779340.259    23779354.358
       217.000         155.000
   3981037.82149   3099831.96345  23212838.448    23212837.813    23212855.814
       212.000         159.000
   7240322.92849   5637589.59945  24044831.600    24044830.856    24044849.003
       197.000         134.000
 -11043233.52149  -8592065.56446  22493504.102    22493504.671    22493516.374
       225.000         171.000
 01 11 12 17 19 59.9970000  0  9G27G25G22G20G 1G 4G29G11G13
  -5848870.60449  -4531292.82245  24063837.378    24063837.166    24063854.349
       208.000         134.000
   5361003.23949   4174858.14946  22435617.583    22435617.171    22435630.163
       226.000         180.000
 -14149057.69049 -11005016.25048  19963688.180    19963687.706    19963698.596
       242.000         213.000
  -8856117.35449  -6886327.33047  19525070.420    19525069.964    19525078.919
       233.000         206.000
 -12721723.15649  -9900815.98847  20309840.157    20309840.055    20309850.087
       241.000         209.000
  -3224098.56849  -2495840.86045  23768148.946    23768149.217    23768163.301
       217.000         154.000
   4016577.11749   3127524.56345  23219601.619    23219600.979    23219619.088
       212.000         160.000
   7291081.41649   5677141.11345  24054490.671    24054490.086    24054508.738
       197.000         134.000
 -11152236.32149  -8677002.81046  22472761.558    22472762.081    22472773.802
       226.000         176.000
 01 11 12 17 20 29.9970000  0  9G27G25G22G20G 1G 4G29G11G13
  -5965568.02349  -4622225.76645  24041630.411    24041630.288    24041647.433
       211.000         141.000
   5408194.57849   4211630.35646  22444597.868    22444597.530    22444610.616
       228.000         180.000
 -14196732.24249 -11042165.25548  19954616.059    19954615.556    19954626.452
       241.000         214.000
  -8871444.63249  -6898270.71547  19522153.748    19522153.310    19522162.287
       232.000         206.000
 -12793214.68249  -9956523.68947  20296235.800    20296235.667    20296245.720
       241.000         208.000
  -3282387.24749  -2541260.67445  23757057.137    23757057.408    23757071.508
       218.000         158.000
   4052252.30849   3155323.04045  23226390.650    23226389.986    23226408.215
       213.000         161.000
   7341747.88749   5716620.83145  24064132.623    24064131.849    24064150.847
       204.000         138.000
 -11261182.73549  -8761896.15646  22452029.704    22452030.267    22452041.909
       228.000         177.000
 01 11 12 17 20 59.9970000  0  9G27G25G22G20G 1G 4G29G11G13
  -6082137.05249  -4713058.67645  24019448.055    24019447.968    24019464.998
       213.000         149.000
   5455444.07849   4248447.87246  22453589.360    22453588.978    22453602.168
       228.000         180.000
 -14243761.22549 -11078811.21848  19945666.742    19945666.243    19945677.151
       242.000         214.000
  -8886203.29249  -6909771.02447  19519345.313    19519344.881    19519353.852
       233.000         207.000
 -12864553.00649 -10012112.02247  20282660.601    20282660.458    20282670.455
       241.000         207.000
  -3340174.23749  -2586289.64945  23746060.764    23746060.980    23746075.077
       217.000         158.000
   4088044.28249   3183212.52345  23233202.002    23233201.241    23233219.617
       215.000         161.000
   7392300.71949   5756012.03745  24073752.973    24073752.146    24073771.079
       207.000         141.000
 -11370091.54249  -8846760.15446  22431305.034    22431305.604    22431317.309
       226.000         177.000
 01 11 12 17 21 29.9970000  0  9G27G25G22G20G 1G 4G29G11G13
  -6198550.12149  -4803770.02245  23997295.292    23997295.307    23997312.337
       210.000         149.000
   5502777.30749   4285330.63746  22462596.894    22462596.406    22462609.650
       228.000         180.000
 -14290116.78849 -11114932.44148  19936845.577    19936845.082    19936855.979
       242.000         213.000
  -8900366.53549  -6920807.37147  19516650.188    19516649.763    19516658.747
       233.000         207.000
 -12935710.19649 -10067559.20447  20269119.810    20269119.690    20269129.716
       241.000         208.000
  -3397432.28649  -2630906.35745  23735165.023    23735165.187    23735179.382
       218.000         157.000
   4123979.84849   3211213.89145  23240040.668    23240039.844    23240058.304
       209.000         159.000
   7442764.19449   5795333.66545  24083356.770    24083355.605    24083374.382
       211.000         144.000
 -11478935.17549  -8931573.38246  22410592.940    22410593.408    22410605.101
       229.000         180.000
 01 11 12 17 21 59.9970000  0  9G27G25G22G20G 1G 4G29G11G13
  -6314851.95149  -4894394.67445  23975163.807    23975163.768    23975180.808
       208.000         149.000
   5550147.48149   4322242.19346  22471611.374    22471610.863    22471624.111
       227.000         179.000
 -14335843.74649 -11150563.84048  19928144.029    19928143.528    19928154.445
       241.000         213.000
  -8913979.79449  -6931415.15747  19514059.720    19514059.289    19514068.300
       233.000         206.000
 -13006730.67749 -10122899.86147  20255605.016    20255604.940    20255614.970
       241.000         208.000
  -3454206.14849  -2675145.80445  23724361.424    23724361.570    23724375.719
       215.000         154.000
   4160014.08749   3239292.16445  23246898.054    23246897.240    23246915.719
       210.000         153.000
   7493090.82949   5834548.61845  24092934.224    24092932.979    24092951.795
       205.000         140.000
 -11587758.60249  -9016370.85946  22389884.592    22389885.027    22389896.734
       228.000         180.000
 01 11 12 17 22 29.9970000  0  9G27G25G22G20G 1G 4G29G11G13
  -6430980.96949  -4984884.67045  23953065.183    23953065.097    23953082.130
       209.000         144.000
   5597614.33649   4359229.09046  22480644.111    22480643.679    22480656.942
       227.000         179.000
 -14380880.34149 -11185657.29048  19919573.840    19919573.370    19919584.276
       242.000         213.000
  -8926982.19249  -6941546.94647  19511585.482    19511585.047    19511594.064
       232.000         206.000
 -13077552.92149 -10178086.04747  20242128.010    20242127.927    20242137.963
       240.000         208.000
  -3510434.81949  -2718960.41645  23713661.263    23713661.526    23713675.783
       211.000         151.000
   4196208.09649   3267494.91145  23253785.707    23253784.948    23253803.487
       211.000         155.000
   7543338.77449   5873702.28045  24102496.312    24102495.161    24102514.129
       205.000         137.000
 -11696500.14349  -9101104.52446  22369191.797    22369192.198    22369203.927
       229.000         180.000
 01 11 12 17 22 59.9970000  0  9G27G25G22G20G 1G 4G29G11G13
  -6546993.66049  -5075284.07745  23930988.264    23930988.366    23931005.466
       207.000         140.000
   5645119.86049   4396246.07946  22489684.267    22489683.835    22489697.215
       229.000         178.000
 -14425283.12349 -11220256.87748  19911124.252    19911123.809    19911134.714
       241.000         213.000
  -8939431.02849  -6951247.39747  19509216.573    19509216.143    19509225.161
       233.000         206.000
 -13148233.13849 -10233161.57647  20228678.062    20228677.953    20228688.000
       241.000         208.000
  -3566174.89649  -2762394.36245  23703054.318    23703054.614    23703068.953
       213.000         154.000
   4232504.79449   3295777.67445  23260692.944    23260692.225    23260710.863
       210.000         154.000
   7593448.87049   5912748.50145  24112032.328    24112031.288    24112050.247
       207.000         138.000
 -11805216.37249  -9185818.49946  22348503.810    22348504.211    22348515.913
       228.000         181.000
 01 11 12 17 23 29.9970000  0  9G27G25G22G20G 1G 4G29G11G13
  -6662852.82849  -5165563.85145  23908940.970    23908940.964    23908957.969
       210.000         144.000
   5692699.18949   4433320.60046  22498738.561    22498738.064    22498751.464
       229.000         179.000
 -14469014.87549 -11254333.57348  19902802.371    19902801.930    19902812.832
       242.000         213.000
  -8951289.85749  -6960488.09147  19506959.940    19506959.503    19506968.537
       233.000         206.000
 -13218734.06849 -10288097.39447  20215262.249    20215262.104    20215272.126
       241.000         208.000
  -3621389.78149  -2805419.01045  23692547.225    23692547.569    23692561.983
       211.000         148.000
   4268940.90449   3324169.08945  23267626.658    23267626.054    23267644.722
       212.000         155.000
   7643455.32049   5951713.91245  24121548.979    24121547.713    24121566.802
       207.000         143.000
 -11913870.15149  -9270483.78246  22327827.647    22327828.076    22327839.772
       230.000         179.000
 01 11 12 17 23 59.9970000  0  9G27G25G22G20G 1G 4G29G11G13
  -6778543.65949  -5255712.41145  23886925.550    23886925.687    23886942.657
       212.000         149.000
   5740365.07449   4470462.57446  22507809.305    22507808.771    22507822.216
       228.000         177.000
 -14512060.81449 -11287875.87748  19894610.999    19894610.551    19894621.467
       242.000         213.000
  -8962544.75749  -6969258.19747  19504818.212    19504817.785    19504826.832
       233.000         206.000
 -13289040.71249 -10342881.81947  20201883.397    20201883.239    20201893.222
       241.000         208.000
  -3676064.75349  -2848022.97345  23682143.106    23682143.387    23682157.673
       213.000         149.000
   4305530.86249   3352680.37545  23274589.705    23274589.181    23274607.880
       212.000         154.000
   7693370.04249   5990607.87945  24131048.145    24131046.778    24131065.881
       207.000         140.000
 -12022446.65149  -9355088.85146  22307166.246    22307166.663    22307178.326
       229.000         182.000
 01 11 12 17 24 29.9970000  0  9G27G25G22G20G 1G 4G29G11G13
  -6894095.65349  -5345752.85345  23864936.775    23864936.880    23864953.651
       217.000         154.000
   5788086.38449   4507647.71046  22516890.532    22516890.027    22516903.532
       226.000         177.000
 -14554450.42549 -11320906.76348  19886544.588    19886544.090    19886555.008
       242.000         213.000
  -8973225.84649  -6977581.17447  19502785.662    19502785.267    19502794.346
       232.000         206.000
 -13359182.22349 -10397537.56447  20188535.931    20188535.779    20188545.780
       242.000         209.000
  -3730229.54449  -2890229.39245  23671836.001    23671836.298    23671850.434
       213.000         153.000
   4342244.76349   3381288.24145  23281576.281    23281575.859    23281594.655
       208.000         153.000
   7743160.46249   6029404.98745  24140523.520    24140522.107    24140541.283
       208.000         139.000
 -12130975.34949  -9439656.67046  22286513.955    22286514.341    22286526.048
       227.000         179.000
 01 11 12 17 24 59.9970000  0  9G27G25G22G20G 1G 4G29G11G13
  -7009514.58849  -5435689.62345  23842973.293    23842973.423    23842989.961
       217.000         157.000
   5835855.38749   4544870.00446  22525980.832    22525980.362    22525993.959
       227.000         176.000
 -14596189.50649 -11353430.74448  19878601.946    19878601.428    19878612.354
       242.000         213.000
  -8983339.50449  -6985462.00547  19500861.136    19500860.730    19500869.828
       233.000         206.000
 -13429164.23949 -10452069.03047  20175218.872    20175218.687    20175228.661
       242.000         209.000
  -3783890.49349  -2932043.17045  23661624.723    23661625.016    23661639.246
       219.000         160.000
   4379076.38149   3409987.82245  23288585.401    23288584.938    23288603.829
       213.000         151.000
   7792817.82949   6068098.41145  24149973.229    24149972.119    24149991.323
       204.000         134.000
 -12239462.16549  -9524191.85046  22265869.533    22265869.968    22265881.655
       226.000         177.000
 01 11 12 17 25 29.9970000  0  9G27G25G22G20G 1G 4G29G11G13
  -7124772.65749  -5525501.04945  23821040.190    23821040.420    23821057.062
       213.000         158.000
   5883698.26149   4582149.87246  22535085.362    22535084.795    22535098.403
       228.000         177.000
 -14637250.18649 -11385426.10948  19870788.386    19870787.845    19870798.759
       242.000         213.000
  -8992858.71049  -6992879.62647  19499049.723    19499049.312    19499058.445
       234.000         207.000
 -13498958.47849 -10506454.17747  20161937.481    20161937.298    20161947.267
       241.000         208.000
  -3837019.84049  -2973442.77145  23651514.633    23651514.937    23651529.087
       217.000         162.000
   4416053.25549   3438800.63545  23295622.145    23295621.659    23295640.500
       210.000         150.000
   7842367.17549   6106707.64845  24159402.308    24159401.316    24159420.762
       205.000         134.000
 -12347878.69349  -9608672.22146  22245238.525    22245238.968    22245250.656
       226.000         177.000
 01 11 12 17 25 59.9970000  0  9G27G25G22G20G 1G 4G29G11G13
  -7239889.53549  -5615202.46045  23799134.022    23799134.266    23799151.001
       207.000         156.000
   5931593.31549   4619470.40346  22544199.735    22544199.167    22544212.833
       226.000         177.000
 -14677652.40549 -11416908.39248  19863100.095    19863099.570    19863110.478
       242.000         213.000
  -9001804.09449  -6999850.11347  19497347.549    19497347.110    19497356.241
       234.000         207.000
 -13568584.54249 -10560708.26147  20148688.064    20148687.917    20148697.891
       242.000         209.000
  -3889637.92249  -3014443.97145  23641501.789    23641502.100    23641516.262
       218.000         162.000
   4453155.22249   3467710.91545  23302682.863    23302682.199    23302701.013
       214.000         153.000
   7891786.05649   6145215.27845  24168806.976    24168805.878    24168825.450
       206.000         136.000
 -12456245.06849  -9693113.50446  22224617.089    22224617.545    22224629.215
       227.000         176.000
 01 11 12 17 26 29.9970000  0  9G27G25G22G20G 1G 4G29G11G13
  -7354852.52049  -5704783.90545  23777257.206    23777257.417    23777274.169
       210.000         155.000
   5979551.20349   4656839.89246  22553326.036    22553325.494    22553339.140
       227.000         176.000
 -14717383.48549 -11447867.71748  19855539.544    19855539.017    19855549.892
       242.000         213.000
  -9010163.86949  -7006364.28147  19495756.794    19495756.347    19495765.473
       234.000         207.000
 -13638029.35049 -10614821.11347  20135473.189    20135473.029    20135483.001
       242.000         209.000
  -3941732.21149  -3055037.01546  23631588.706    23631588.978    23631603.129
       219.000         164.000
   4490394.32949   3496728.02845  23309769.441    23309768.833    23309787.692
       214.000         155.000
   7941084.21749   6183628.81345  24178188.842    24178187.506    24178207.458
       204.000         138.000
 -12564548.38249  -9777505.66846  22204007.532    22204008.066    22204019.696
       224.000         175.000
 01 11 12 17 26 59.9970000  0  9G27G25G22G20G 1G 4G29G11G13
  -7469664.24049  -5794247.49845  23755409.384    23755409.459    23755426.105
       211.000         157.000
   6027567.63649   4694254.98046  22562463.422    22562462.917    22562476.621
       226.000         177.000
 -14756446.39249 -11478306.39348  19848106.166    19848105.629    19848116.477
       242.000         213.000
  -9017941.50949  -7012424.84147  19494276.798    19494276.351    19494285.485
       233.000         206.000
 -13707295.48749 -10668794.73747  20122292.310    20122292.154    20122302.071
       241.000         209.000
  -3993305.96949  -3095224.39946  23621774.665    23621774.918    23621789.083
       222.000         165.000
   4527767.64149   3525849.71945  23316881.731    23316881.055    23316900.025
       214.000         155.000
   7990255.90549   6221943.81045  24187546.168    24187544.873    24187565.144
       206.000         137.000
 -12672791.47249  -9861850.91646  22183409.589    22183410.088    22183421.717
       228.000         177.000
 01 11 12 17 27 29.9970000  0  9G27G25G22G20G 1G 4G29G11G13
  -7584330.35549  -5883597.65645  23733589.034    23733589.175    23733605.769
       216.000         160.000
   6075635.36849   4731710.05846  22571610.608    22571610.122    22571623.833
       227.000         177.000
 -14794846.90949 -11508228.92548  19840798.787    19840798.254    19840809.123
       242.000         213.000
  -9025143.60049  -7018036.91947  19492906.255    19492905.847    19492915.019
       234.000         206.000
 -13776388.11849 -10722633.16847  20109144.466    20109144.289    20109154.211
       242.000         209.000
  -4044365.45449  -3135011.08846  23612058.382    23612058.618    23612072.967
       222.000         167.000
   4565268.97649   3555071.19245  23324018.360    23324017.682    23324036.709
       215.000         153.000
   8039292.75549   6260153.65545  24196878.091    24196876.699    24196897.150
       210.000         140.000
 -12780979.78849  -9946153.46046  22162821.964    22162822.470    22162834.173
       227.000         177.000
 01 11 12 17 27 59.9970000  0  9G27G25G22G20G 1G 4G29G11G13
  -7698854.83949  -5972837.49845  23711795.900    23711795.931    23711812.395
       218.000         161.000
   6123748.57749   4769200.56446  22580766.514    22580765.976    22580779.711
       225.000         176.000
 -14832589.13749 -11537638.50448  19833616.642    19833616.158    19833627.039
       242.000         213.000
  -9031775.07649  -7023204.36147  19491644.366    19491643.962    19491653.128
       234.000         206.000
 -13845311.10149 -10776339.39747  20096028.792    20096028.664    20096038.617
       241.000         209.000
  -4094914.79749  -3174400.27246  23602439.246    23602439.481    23602453.881
       222.000         165.000
   4602893.99349   3584389.07945  23331178.546    23331177.816    23331196.923
       211.000         155.000
   8088188.08649   6298253.22445  24206183.361    24206181.836    24206201.996
       208.000         143.000
 -12889117.08849 -10030416.23146  22142244.114    22142244.639    22142256.295
       228.000         178.000
 01 11 12 17 28 29.9970000  0  9G27G25G22G20G 1G 4G29G11G13
  -7813220.82949  -6061953.85745  23690032.682    23690032.724    23690049.213
       215.000         156.000
   6171922.34649   4806738.24746  22589933.912    22589933.346    22589947.143
       227.000         177.000
 -14869656.53049 -11566522.23348  19826562.967    19826562.483    19826573.381
       242.000         213.000
  -9037820.06749  -7027914.80547  19490494.111    19490493.696    19490502.851
       234.000         206.000
 -13914047.23749 -10829900.03547  20082948.792    20082948.651    20082958.570
       242.000         209.000
  -4144937.75349  -3213379.26746  23592920.231    23592920.461    23592934.983
       221.000         166.000
   4640659.14749   3613816.10645  23338365.479    23338364.616    23338383.868
       212.000         156.000
   8136955.55749   6336253.24845  24215464.152    24215462.490    24215482.762
       205.000         142.000
 -12997186.40549 -10114626.04846  22121679.260    22121679.739    22121691.337
       228.000         175.000
 01 11 12 17 28 59.9970000  0  9G27G25G22G20G 1G 4G29G11G13
  -7927449.60449  -6150963.25745  23668295.457    23668295.590    23668312.064
       213.000         156.000
   6220133.89249   4844305.39046  22599108.576    22599107.944    22599121.771
       227.000         176.000
 -14906070.64749 -11594896.91848  19819633.660    19819633.131    19819644.053
       242.000         213.000
  -9043300.63149  -7032185.43447  19489451.263    19489450.841    19489459.981
       235.000         207.000
 -13982617.58549 -10883331.48047  20069900.308    20069900.156    20069910.103
       241.000         209.000
  -4194456.25649  -3251965.21946  23583497.291    23583497.511    23583511.918
       221.000         166.000
   4678542.64749   3643335.38945  23345574.729    23345573.900    23345593.160
       213.000         157.000
   8185571.24649   6374134.99345  24224715.641    24224714.161    24224734.635
       207.000         140.000
 -13105209.02849 -10198799.47346  22101123.171    22101123.683    22101135.208
       229.000         177.000
 01 11 12 17 29 29.9970000  0  9G27G25G22G20G 1G 4G29G11G13
  -8041534.88149  -6239860.81145  23646585.691    23646585.816    23646602.348
       212.000         160.000
   6268387.59549   4881905.37646  22608291.119    22608290.546    22608304.417
       226.000         175.000
 -14941825.40249 -11622757.80648  19812829.771    19812829.262    19812840.196
       242.000         213.000
  -9048211.44049  -7036012.10047  19488516.858    19488516.401    19488525.550
       235.000         207.000
 -14051015.38249 -10936628.46047  20056884.636    20056884.515    20056894.447
       241.000         209.000
  -4243464.22549  -3290153.34546  23574171.450    23574171.671    23574186.118
       224.000         168.000
   4716550.56749   3672951.60945  23352807.631    23352806.823    23352826.170
       211.000         156.000
   8234038.88149   6411901.34445  24233939.504    24233937.798    24233958.510
       206.000         140.000
 -13213178.64249 -10282931.60046  22080577.250    22080577.726    22080589.253
       228.000         179.000
 01 11 12 17 29 59.9960000  0  9G27G25G22G20G 1G 4G29G11G13
  -8155444.27349  -6328621.28245  23624909.310    23624909.481    23624926.213
       209.000         162.000
   6316708.41749   4919557.64146  22617486.557    22617485.906    22617499.909
       226.000         174.000
 -14976891.46349 -11650082.04648  19806157.011    19806156.446    19806167.375
       242.000         213.000
  -9052524.88349  -7039373.29047  19487696.107    19487695.639    19487704.780
       235.000         207.000
 -14119209.42849 -10989766.67747  20043907.747    20043907.619    20043917.565
       242.000         209.000
  -4291932.29249  -3327920.75946  23564948.329    23564948.561    23564963.059
       222.000         168.000
   4754709.41549   3702685.44345  23360069.399    23360068.479    23360088.048
       210.000         155.000
   8282382.12249   6449570.77345  24243139.771    24243137.841    24243158.763
       202.000         139.000
 -13321062.99149 -10366997.27346  22060047.591    22060048.017    22060059.525
       231.000         179.000
 01 11 12 17 30 29.9960000  0  9G27G25G22G20G 1G 4G29G11G13
  -8269210.48949  -6417270.14446  23603260.334    23603260.376    23603277.303
       212.000         166.000
   6365072.98549   4957244.02846  22626690.292    22626689.627    22626703.683
       224.000         171.000
 -15011296.54849 -11676891.22948  19799609.932    19799609.413    19799620.344
       242.000         214.000
  -9056267.20449  -7042289.44447  19486984.042    19486983.562    19486992.686
       233.000         207.000
 -14187228.99549 -11042768.92947  20030964.073    20030963.950    20030973.911
       241.000         209.000
  -4339888.95849  -3365289.68946  23555822.555    23555822.805    23555837.325
       223.000         168.000
   4792996.49049   3732519.20245  23367355.359    23367354.526    23367374.193
       213.000         154.000
   8330576.74949   6487124.35845  24252311.451    24252309.483    24252330.581
       199.000         137.000
 -13428894.12649 -10451021.51046  22039528.135    22039528.467    22039539.867
       230.000         179.000
 01 11 12 17 30 59.9960000  0  9G27G25G22G20G 1G 4G29G11G13
  -8382831.30749  -6505805.72546  23581638.963    23581639.003    23581656.037
       215.000         171.000
   6413476.76149   4994960.96546  22635901.372    22635900.788    22635914.931
       225.000         170.000
 -15045041.41249 -11703185.94548  19793188.497    19793187.997    19793198.955
       242.000         213.000
  -9059441.07449  -7044762.65347  19486380.100    19486379.636    19486388.772
       233.000         207.000
 -14255073.20749 -11095634.54647  20018053.773    20018053.642    20018063.601
       242.000         209.000
  -4387335.04849  -3402260.73246  23546793.933    23546794.165    23546808.732
       221.000         163.000
   4831408.47649   3762450.29645  23374665.258    23374664.365    23374684.057
       208.000         152.000
   8378616.49649   6524557.29145  24261453.241    24261451.475    24261472.880
       202.000         134.000
 -13536669.76049 -10535002.48246  22019019.018    22019019.422    22019030.778
       229.000         180.000
 01 11 12 17 31 29.9960000  0  9G27G25G22G20G 1G 4G29G11G13
  -8496311.78249  -6594231.93446  23560044.357    23560044.424    23560061.385
       218.000         173.000
   6461912.92149   5032703.11546  22645118.636    22645118.093    22645132.370
       225.000         171.000
 -15078131.55849 -11728970.48648  19786891.669    19786891.179    19786902.128
       244.000         213.000
  -9062052.47149  -7046797.56947  19485883.214    19485882.751    19485891.925
       234.000         207.000
 -14322746.54349 -11148367.01647  20005175.965    20005175.828    20005185.785
       241.000         209.000
  -4434276.05849  -3438838.20845  23537861.414    23537861.627    23537876.204
       220.000         161.000
   4869939.67349   3792474.28545  23381997.546    23381996.814    23382016.601
       204.000         151.000
   8426493.81049   6561863.64144  24270564.529    24270562.689    24270584.166
       204.000         125.000
 -13644394.66949 -10618943.91646  21998519.613    21998520.039    21998531.379
       230.000         180.000
 01 11 12 17 31 59.9960000  0  8G27G25G22G20G 1G 4G29G13
  -8609630.95149  -6682532.43046  23538480.599    23538480.548    23538497.341
       219.000         169.000
   6510400.58949   5070485.41246  22654345.809    22654345.202    22654359.647
       225.000         172.000
 -15110546.31549 -11754228.73848  19780723.404    19780722.884    19780733.831
       244.000         213.000
  -9064081.24849  -7048378.49547  19485497.202    19485496.733    19485505.936
       234.000         207.000
 -14390227.71249 -11200949.73547  19992334.689    19992334.579    19992344.558
       241.000         209.000
  -4480691.48349  -3475006.18246  23529028.987    23529029.176    23529043.673
       224.000         164.000
   4908610.96349   3822607.44945  23389356.300    23389355.801    23389375.760
       213.000         150.000
 -13752048.03349 -10702829.62646  21978033.889    21978034.284    21978045.559
       228.000         180.000
 01 11 12 17 32 29.9960000  0  8G27G25G22G20G 1G 4G29G13
  -8722808.56349  -6770722.64445  23516943.474    23516943.511    23516960.214
       212.000         159.000
   6558918.38949   5108291.19046  22663578.620    22663578.028    22663592.568
       225.000         171.000
 -15142305.70849 -11778976.32048  19774679.839    19774679.294    19774690.242
       244.000         213.000
  -9065548.26249  -7049521.69247  19485218.005    19485217.588    19485226.844
       233.000         207.000
 -14457535.83849 -11253397.62647  19979526.365    19979526.253    19979536.258
       241.000         209.000
  -4526601.77949  -3510780.54646  23520292.574    23520292.798    23520307.321
       222.000         163.000
   4947402.27449   3852834.12945  23396738.228    23396737.787    23396757.823
       213.000         151.000
 -13859648.81649 -10786674.32246  21957558.000    21957558.492    21957569.815
       227.000         179.000
 01 11 12 17 32 59.9960000  0  8G27G25G22G20G 1G 4G29G13
  -8835845.52649  -6858803.24645  23495433.166    23495433.214    23495449.849
       215.000         150.000
   6607463.97849   5146118.61346  22672816.721    22672816.133    22672830.788
       224.000         170.000
 -15173411.19349 -11803214.36148  19768760.691    19768760.137    19768771.077
       244.000         214.000
  -9066455.36149  -7050228.59247  19485045.445    19485045.016    19485054.280
       235.000         207.000
 -14524671.51649 -11305711.14347  19966750.866    19966750.778    19966760.769
       241.000         209.000
  -4572008.41749  -3546162.41945  23511651.953    23511652.248    23511666.748
       221.000         160.000
   4986312.14149   3883153.23445  23404143.076    23404142.414    23404162.391
       206.000         153.000
 -13967198.09649 -10870478.91846  21937092.093    21937092.539    21937103.808
       228.000         180.000
 01 11 12 17 33 29.9960000  0  8G27G25G22G20G 1G 4G29G13
  -8948709.04249  -6946748.75645  23473955.886    23473955.963    23473972.543
       214.000         147.000
   6656068.51449   5183991.98246  22682066.079    22682065.505    22682080.231
       223.000         170.000
 -15203830.53249 -11826917.74348  19762972.083    19762971.554    19762982.481
       244.000         213.000
  -9066771.10049  -7050474.69147  19484985.457    19484985.005    19484994.256
       234.000         207.000
 -14591601.59449 -11357864.44447  19954014.476    19954014.391    19954024.395
       241.000         209.000
  -4616879.30449  -3581126.85046  23503113.386    23503113.651    23503128.099
       225.000         164.000
   5025372.95949   3913589.93645  23411576.681    23411575.715    23411595.847
       215.000         153.000
 -14074662.80549 -10954217.58946  21916642.160    21916642.636    21916653.934
       230.000         179.000
 01 11 12 17 33 59.9960000  0  8G27G25G22G20G 1G 4G29G13
  -9061424.09249  -7034578.56745  23452506.685    23452506.864    23452523.465
       217.000         147.000
   6704705.65549   5221890.74046  22691321.451    22691321.041    22691335.881
       223.000         171.000
 -15233589.04949 -11850106.20248  19757309.229    19757308.717    19757319.635
       244.000         213.000
  -9066521.67949  -7050280.40447  19485033.008    19485032.530    19485041.774
       234.000         207.000
 -14658350.47849 -11409876.55547  19941312.621    19941312.504    19941322.503
       241.000         209.000
  -4661239.86749  -3615693.61746  23494672.002    23494672.202    23494686.698
       223.000         165.000
   5064559.34149   3944124.50045  23419033.936    23419032.934    23419052.905
       217.000         151.000
 -14182067.52249 -11037909.53946  21896203.605    21896204.146    21896215.461
       228.000         180.000
 01 11 12 17 34 29.9960000  0  8G27G25G22G20G 1G 4G29G13
  -9173975.14649  -7122280.62545  23431088.855    23431089.061    23431105.392
       218.000         150.000
   6753389.40549   5259825.83246  22700585.902    22700585.443    22700600.391
       224.000         172.000
 -15262671.81149 -11872768.10148  19751774.979    19751774.458    19751785.381
       244.000         213.000
  -9065692.32049  -7049634.21247  19485190.866    19485190.391    19485199.665
       235.000         207.000
 -14724902.17249 -11461735.00947  19928648.280    19928648.157    19928658.124
       241.000         209.000
  -4705075.31649  -3649851.19645  23486330.437    23486330.686    23486345.212
       221.000         162.000
   5103886.60349   3974768.85245  23426517.812    23426516.983    23426536.881
       216.000         154.000
 -14289396.54349 -11121542.51746  21875779.492    21875780.064    21875791.369
       228.000         180.000
 01 11 12 17 34 59.9960000  0  8G27G25G22G20G 1G 4G29G13
  -9286365.96949  -7209857.81645  23409701.684    23409701.771    23409717.921
       217.000         157.000
   6802113.94049   5297792.70046  22709858.095    22709857.642    22709872.657
       224.000         170.000
 -15291083.22349 -11894906.87248  19746368.512    19746367.967    19746378.896
       245.000         213.000
  -9064288.20749  -7048540.15947  19485458.123    19485457.646    19485466.930
       235.000         207.000
 -14791260.06249 -11513442.44247  19916020.797    19916020.657    19916030.661
       241.000         209.000
  -4748390.25949  -3683603.19846  23478087.958    23478088.215    23478102.742
       223.000         163.000
   5143350.25249   4005519.46245  23434027.925    23434027.009    23434046.857
       213.000         151.000
 -14396653.28949 -11205119.13446  21855369.107    21855369.711    21855381.038
       228.000         181.000
 01 11 12 17 35 29.9960000  0  8G27G25G22G20G 1G 4G29G13
  -9398606.77049  -7297318.06545  23388342.625    23388342.877    23388359.122
       209.000         154.000
   6850867.82549   5335782.45546  22719135.997    22719135.461    22719150.490
       225.000         171.000
 -15318833.97049 -11916530.84748  19741087.724    19741087.188    19741098.120
       244.000         213.000
  -9062320.63649  -7047007.05147  19485832.626    19485832.114    19485841.412
       235.000         207.000
 -14857433.91949 -11565006.48547  19903428.335    19903428.210    19903438.229
       241.000         209.000
  -4791195.40749  -3716957.96145  23469942.505    23469942.783    23469957.175
       223.000         158.000
   5182939.97749   4036368.32345  23441561.618    23441560.895    23441580.916
       212.000         148.000
 -14503847.62049 -11288647.12546  21834970.633    21834971.268    21834982.680
       230.000         183.000
 01 11 12 17 35 59.9960000  0  8G27G25G22G20G 1G 4G29G13
  -9510693.25849  -7384658.04845  23367013.007    23367013.333    23367029.705
       202.000         151.000
   6899653.73049   5373797.11446  22728420.108    22728419.403    22728434.438
       224.000         172.000
 -15345920.29649 -11937637.10548  19735933.372    19735932.834    19735943.753
       244.000         213.000
  -9059786.42249  -7045032.40447  19486314.801    19486314.366    19486323.727
       234.000         207.000
 -14923418.87549 -11616423.33747  19890871.804    19890871.673    19890881.714
       241.000         209.000
  -4833487.18649  -3749912.67746  23461894.672    23461894.964    23461909.404
       222.000         164.000
   5222659.49249   4067318.32245  23449120.273    23449119.478    23449139.615
       212.000         151.000
 -14610975.13549 -11372123.05346  21814584.929    21814585.567    21814597.004
       229.000         184.000
 01 11 12 17 36 29.9960000  0  8G27G25G22G20G 1G 4G29G13
  -9622640.91749  -7471889.80445  23345709.884    23345710.302    23345726.803
       207.000         156.000
   6948454.58649   5411823.44246  22737706.755    22737706.135    22737721.209
       224.000         170.000
 -15372358.28949 -11958238.17648  19730902.375    19730901.872    19730912.765
       244.000         213.000
  -9056702.36849  -7042629.31247  19486901.692    19486901.272    19486910.682
       235.000         207.000
 -14989229.81849 -11667704.60047  19878348.372    19878348.274    19878358.292
       241.000         209.000
  -4875281.66749  -3782479.87746  23453941.649    23453941.850    23453956.331
       224.000         166.000
   5262493.17049   4098357.25945  23456700.872    23456699.884    23456720.129
       213.000         155.000
 -14718050.89349 -11455558.66646  21794208.972    21794209.648    21794221.074
       232.000         181.000
 01 11 12 17 36 59.9960000  0  8G27G25G22G20G 1G 4G29G13
  -9734438.97549  -7559005.07546  23324435.529    23324435.824    23324452.285
       219.000         169.000
   6997279.80549   5449868.76846  22746998.120    22746997.496    22747012.574
       223.000         172.000
 -15398137.95549 -11978326.26448  19725996.633    19725996.174    19726007.062
       244.000         213.000
  -9053058.88249  -7039790.29647  19487595.068    19487594.646    19487604.064
       234.000         207.000
 -15054855.65349 -11718841.62247  19865860.139    19865860.074    19865870.089
       240.000         208.000
  -4916569.16849  -3814652.05546  23446085.004    23446085.181    23446099.717
       225.000         168.000
   5302451.25749   4129493.12945  23464304.902    23464303.935    23464324.213
       209.000         153.000
 -14825063.63549 -11538945.16146  21773845.093    21773845.738    21773857.191
       232.000         181.000
 01 11 12 17 37 29.9960000  0  8G27G25G22G20G 1G 4G29G13
  -9846056.90849  -7645979.98546  23303195.383    23303195.598    23303212.110
       222.000         177.000
   7046158.35549   5487955.62046  22756299.552    22756298.991    22756314.217
       224.000         173.000
 -15423229.47249 -11997878.13648  19721221.961    19721221.433    19721232.324
       244.000         213.000
  -9048826.48949  -7036492.39647  19488400.488    19488400.077    19488409.518
       236.000         207.000
 -15120265.19749 -11769810.10847  19853413.121    19853413.061    19853423.054
       240.000         209.000
  -4957319.79149  -3846405.85946  23438330.536    23438330.652    23438345.242
       225.000         163.000
   5342563.81249   4160749.38845  23471938.365    23471937.370    23471957.717
       203.000         150.000
 -14931982.80949 -11622258.79346  21753499.156    21753499.699    21753511.075
       231.000         183.000
 01 11 12 17 37 59.9960000  0  8G27G25G22G20G 1G 4G29G13
  -9957533.68549  -7732844.92046  23281981.958    23281982.243    23281998.725
       216.000         176.000
   7095049.97649   5526052.64246  22765603.483    22765602.921    22765618.304
       223.000         169.000
 -15447672.37549 -12016924.60248  19716570.672    19716570.125    19716581.021
       244.000         213.000
  -9044045.52149  -7032767.04047  19489310.321    19489309.909    19489319.387
       237.000         207.000
 -15185496.92949 -11820640.04647  19840999.936    19840999.861    19841009.871
       240.000         209.000
  -4997573.26849  -3877772.27345  23430670.624    23430670.787    23430685.264
       222.000         157.000
   5382791.29649   4192095.16245  23479594.146    23479592.682    23479613.028
       209.000         153.000
 -15038846.72349 -11705529.33646  21733163.699    21733164.176    21733175.547
       229.000         181.000
 01 11 12 17 38 29.9960000  0  8G27G25G22G20G 1G 4G29G13
 -10068878.09649  -7819606.65346  23260793.601    23260793.963    23260810.586
       210.000         170.000
   7143944.23149   5564151.76246  22774908.005    22774907.401    22774922.820
       222.000         169.000
 -15471476.06449 -12035472.97848  19712040.994    19712040.465    19712051.366
       244.000         213.000
  -9038726.06449  -7028622.07047  19490322.603    19490322.204    19490331.717
       237.000         207.000
 -15250559.12249 -11871337.87247  19828619.008    19828618.933    19828628.969
       240.000         209.000
  -5037339.06949  -3908758.67845  23423103.408    23423103.613    23423118.110
       220.000         154.000
   5423125.01949   4223523.74045  23487269.425    23487268.121    23487288.646
       200.000         149.000
 -15145664.13349 -11788763.64246  21712837.008    21712837.471    21712848.781
       231.000         182.000
 01 11 12 17 38 59.9960000  0  8G27G25G22G20G 1G 4G29G13
 -10180039.24449  -7906225.58046  23239640.036    23239640.475    23239657.320
       212.000         169.000
   7192890.85049   5602291.62246  22784222.408    22784221.837    22784237.395
       221.000         169.000
 -15494590.47549 -12053484.26147  19707642.542    19707641.959    19707652.874
       244.000         212.000
  -9032818.37849  -7024018.75047  19491446.835    19491446.447    19491455.983
       238.000         207.000
 -15315400.23149 -11921863.43047  19816280.118    19816280.083    19816290.101
       240.000         209.000
  -5076567.16749  -3939326.11545  23415638.584    23415638.783    23415653.287
       217.000         155.000
   5463615.32849   4255074.30745  23494974.502    23494973.313    23494993.970
       209.000         151.000
 -15252383.47249 -11871921.54846  21692529.001    21692529.471    21692540.695
       233.000         182.000
 01 11 12 17 39 29.9960000  0  8G27G25G22G20G 1G 4G29G13
 -10291058.72249  -7992734.13846  23218513.657    23218514.091    23218530.957
       218.000         169.000
   7241846.68449   5640438.69646  22793538.753    22793538.079    22793553.724
       221.000         169.000
 -15517057.97749 -12070991.45647  19703367.099    19703366.557    19703377.472
       244.000         212.000
  -9026365.45249  -7018990.56547  19492674.871    19492674.458    19492683.979
       237.000         207.000
 -15380061.35649 -11972248.74047  19803975.509    19803975.463    19803985.499
       240.000         209.000
  -5115300.07649  -3969507.67645  23408267.892    23408268.174    23408282.882
       216.000         156.000
   5504220.12748   4286714.07145  23502701.243    23502700.345    23502721.210
       189.000         144.000
 -15359045.95349 -11955035.15546  21672231.777    21672232.254    21672243.473
       230.000         184.000
 01 11 12 17 39 59.9960000  0  8G27G25G22G20G 1G 4G29G13
 -10401924.25749  -8079122.79846  23197416.778    23197417.073    23197433.821
       221.000         165.000
   7290822.54749   5678601.36246  22802858.869    22802858.163    22802873.849
       223.000         170.000
 -15538867.18549 -12087985.68547  19699217.000    19699216.423    19699227.337
       244.000         212.000
  -9019356.53649  -7013529.13547  19494008.681    19494008.269    19494017.794
       237.000         207.000
 -15444529.58949 -12022483.75047  19791707.627    19791707.557    19791717.625
       240.000         208.000
  -5153526.37049  -3999294.47545  23400993.781    23400994.047    23401008.704
       220.000         161.000
   5544951.19849   4318452.25845  23510452.398    23510451.369    23510472.337
       213.000         146.000
 -15465638.97649 -12038094.62746  21651947.798    21651948.248    21651959.502
       230.000         182.000
 01 11 12 17 40 29.9960000  0  8G27G25G22G20G 1G 4G29G13
 -10512653.19549  -8165405.00145  23176345.889    23176346.086    23176362.572
       219.000         159.000
   7339799.68049   5716765.00446  22812179.239    22812178.498    22812194.277
       222.000         171.000
 -15560036.13349 -12104480.99947  19695188.658    19695188.110    19695199.050
       244.000         212.000
  -9011809.92149  -7007648.72247  19495444.824    19495444.395    19495453.941
       237.000         207.000
 -15508821.51449 -12072581.37747  19779473.278    19779473.212    19779483.271
       241.000         209.000
  -5191264.02249  -4028700.47445  23393812.570    23393812.889    23393827.661
       218.000         160.000
   5585790.97249   4350275.16445  23518223.927    23518223.114    23518244.061
       210.000         153.000
 -15572179.27749 -12121113.01046  21631673.707    21631674.232    21631685.507
       230.000         182.000
 01 11 12 17 40 59.9960000  0  8G27G25G22G20G 1G 4G29G13
 -10623220.55749  -8251561.27145  23155305.462    23155305.749    23155322.114
       215.000         161.000
   7388801.64449   5754947.99246  22821504.299    22821503.553    22821519.390
       222.000         169.000
 -15580540.52449 -12120458.46947  19691286.821    19691286.281    19691297.219
       244.000         212.000
  -9003702.23749  -7001331.10747  19496987.738    19496987.292    19496996.876
       238.000         207.000
 -15572911.52649 -12122521.67347  19767277.382    19767277.312    19767287.360
       241.000         209.000
  -5228488.97749  -4057707.00845  23386728.969    23386729.264    23386744.116
       218.000         157.000
   5626764.21848   4382202.05345  23526020.901    23526020.341    23526041.444
       193.000         151.000
 -15678641.47149 -12204070.54946  21611414.633    21611415.142    21611426.364
       229.000         183.000
 01 11 12 17 41 29.9960000  0  8G27G25G22G20G 1G 4G29G13
 -10733642.36949  -8337604.07746  23134292.765    23134293.063    23134309.534
       217.000         167.000
   7437810.86549   5793136.61746  22830830.762    22830829.949    22830845.903
       221.000         169.000
 -15600397.30949 -12135931.31647  19687508.241    19687507.683    19687518.642
       243.000         212.000
  -8995050.59649  -6994589.63247  19498634.105    19498633.672    19498643.319
       238.000         207.000
 -15636815.05149 -12172316.65947  19755116.993    19755116.884    19755126.953
       241.000         209.000
  -5265218.08249  -4086327.15845  23379739.662    23379739.983    23379754.891
       220.000         158.000
   5667854.59749   4414220.18345  23533840.256    23533839.760    23533861.026
       200.000         154.000
 -15785040.99749 -12286979.25146  21591167.402    21591167.938    21591179.211
       230.000         184.000
 01 11 12 17 41 59.9960000  0  8G27G25G22G20G 1G 4G29G13
 -10843904.87849  -8423522.76346  23113310.391    23113310.720    23113327.204
       220.000         171.000
   7486839.72849   5831340.54446  22840160.867    22840160.139    22840176.167
       222.000         168.000
 -15619593.84349 -12150889.67747  19683855.267    19683854.713    19683865.711
       243.000         212.000
  -8985842.88449  -6987414.85947  19500386.349    19500385.889    19500395.566
       238.000         207.000
 -15700517.88349 -12221955.25347  19742994.740    19742994.643    19743004.741
       241.000         209.000
  -5301438.67849  -4114551.14245  23372847.279    23372847.518    23372862.479
       221.000         157.000
   5709075.20549   4446339.79645  23541684.440    23541683.983    23541705.250
       212.000         150.000
 -15891364.08649 -12369828.38446  21570934.714    21570935.275    21570946.609
       230.000         183.000
 01 11 12 17 42 29.9960000  0  8G27G25G22G20G 1G 4G29G13
 -10953996.78849  -8509308.52846  23092360.484    23092360.864    23092377.320
       220.000         167.000
   7535898.45049   5869567.75646  22849496.703    22849495.979    22849512.043
       221.000         166.000
 -15638119.65349 -12165325.39247  19680329.899    19680329.363    19680340.395
       244.000         211.000
  -8976069.23949  -6979799.10147  19502246.255    19502245.811    19502255.508
       238.000         207.000
 -15764008.25249 -12271428.29347  19730912.949    19730912.850    19730922.974
       242.000         209.000
  -5337140.51749  -4142370.88245  23366053.488    23366053.753    23366068.610
       215.000         153.000
   5750436.90849   4478569.29845  23549556.030    23549555.167    23549576.319
       212.000         152.000
 -15997598.53449 -12452608.43946  21550718.937    21550719.486    21550730.863
       231.000         184.000
 01 11 12 17 42 59.9960000  0  8G27G25G22G20G 1G 4G29G13
 -11063939.49149  -8594978.01446  23071438.945    23071439.369    23071455.738
       218.000         165.000
   7584964.26349   5907800.45746  22858833.966    22858833.171    22858849.305
       221.000         166.000
 -15655997.01849 -12179255.82047  19676927.884    19676927.417    19676938.483
       243.000         211.000
  -8965752.33349  -6971760.02147  19504209.566    19504209.113    19504218.833
       238.000         208.000
 -15827306.83549 -12320751.88547  19718867.685    19718867.564    19718877.709
       241.000         209.000
  -5372345.70049  -4169803.55945  23359354.177    23359354.438    23359369.535
       219.000         154.000
   5791918.13449   4510892.03645  23557450.026    23557449.105    23557470.112
       211.000         154.000
 -16103765.65649 -12535336.04146  21530516.019    21530516.525    21530527.903
       231.000         185.000
 01 11 12 17 43 29.9960000  0  8G27G25G22G20G 1G 4G29G13
 -11173717.88349  -8680519.44446  23050548.823    23050549.159    23050565.468
       218.000         163.000
   7634051.20649   5946049.65546  22868175.255    22868174.419    22868190.555
       221.000         167.000
 -15673211.66949 -12192669.85347  19673652.097    19673651.614    19673662.680
       243.000         211.000
  -8954878.48449  -6963286.96747  19506278.867    19506278.397    19506288.138
       238.000         207.000
 -15890397.68249 -12369913.61447  19706861.907    19706861.778    19706871.952
       242.000         209.000
  -5407040.10349  -4196838.25845  23352752.157    23352752.426    23352767.495
       218.000         152.000
   5833533.50849   4543319.25945  23565369.433    23565368.526    23565389.586
       210.000         154.000
 -16209849.56349 -12617998.80646  21510328.958    21510329.450    21510340.813
       231.000         185.000
 01 11 12 17 43 59.9960000  0  8G27G25G22G20G 1G 4G29G13
 -11283322.43049  -8765925.42245  23029691.546    23029691.993    23029708.244
       215.000         162.000
   7683167.42549   5984321.64446  22877522.061    22877521.205    22877537.482
       220.000         168.000
 -15689755.32749 -12205561.03247  19670503.944    19670503.457    19670514.535
       243.000         210.000
  -8943439.71949  -6954373.71547  19508455.618    19508455.165    19508464.943
       238.000         207.000
 -15953270.72649 -12418905.62147  19694897.587    19694897.468    19694907.645
       242.000         210.000
  -5441215.13949  -4223468.23045  23346248.965    23346249.224    23346264.186
       217.000         149.000
   5875292.19649   4575858.13045  23573316.186    23573315.190    23573336.366
       214.000         155.000
 -16315840.10849 -12700588.81846  21490159.594    21490160.099    21490171.435
       233.000         186.000
 01 11 12 17 44 29.9960000  0  8G27G25G22G20G 1G 4G29G13
 -11392783.12949  -8851219.29246  23008861.820    23008862.193    23008878.373
       217.000         164.000
   7732281.55049   6022591.99346  22886868.349    22886867.552    22886883.958
       219.000         166.000
 -15705658.81749 -12217953.38547  19667477.582    19667477.127    19667488.206
       243.000         211.000
  -8931467.42449  -6945044.72447  19510733.935    19510733.468    19510743.262
       238.000         207.000
 -16015955.19749 -12467750.67947  19682969.161    19682969.030    19682979.214
       241.000         209.000
  -5474901.88349  -4249717.70345  23339838.613    23339838.871    23339853.917
       213.000         150.000
   5917163.99449   4608485.20745  23581284.452    23581283.437    23581304.570
       213.000         152.000
 -16421766.69249 -12783129.00146  21470002.468    21470002.969    21470014.227
       234.000         186.000
 01 11 12 17 44 59.9960000  0  8G27G25G22G20G 1G 4G29G13
 -11502090.51649  -8936393.73045  22988061.187    22988061.552    22988077.708
       218.000         162.000
   7781401.61849   6060866.97546  22896215.904    22896215.094    22896231.574
       221.000         168.000
 -15720913.74349 -12229840.37347  19664574.669    19664574.223    19664585.290
       243.000         211.000
  -8918953.57349  -6935293.74447  19513115.253    19513114.803    19513124.631
       238.000         207.000
 -16078441.05149 -12516440.97747  19671078.487    19671078.367    19671088.568
       242.000         209.000
  -5508091.81049  -4275580.07745  23333522.799    23333523.122    23333538.210
       214.000         153.000
   5959157.89349   4641207.38945  23589275.941    23589274.882    23589296.361
       205.000         150.000
 -16527619.72049 -12865611.83546  21449859.311    21449859.834    21449871.082
       234.000         187.000
 01 11 12 17 45 29.9960000  0  8G27G25G22G20G 1G 4G29G13
 -11611252.97449  -9021455.24746  22967288.223    22967288.537    22967304.550
       220.000         163.000
   7830517.79149   6099138.96046  22905562.681    22905561.911    22905578.373
       220.000         165.000
 -15735529.50449 -12241229.31247  19661793.409    19661792.939    19661804.026
       243.000         211.000
  -8905908.05949  -6925128.47747  19515597.757    19515597.320    19515607.179
       238.000         207.000
 -16140735.80049 -12564982.35647  19659224.234    19659224.084    19659234.327
       242.000         210.000
  -5540794.39549  -4301062.68845  23327299.652    23327299.989    23327315.366
       211.000         150.000
   6001264.98949   4674017.80345  23597288.668    23597287.845    23597309.347
       208.000         147.000
 -16633406.78149 -12948043.26046  21429728.645    21429729.193    21429740.478
       232.000         186.000
 01 11 12 17 45 59.9960000  0  8G27G25G22G20G 1G 4G29G13
 -11720255.92349  -9106392.47346  22946545.674    22946545.932    22946561.812
       223.000         168.000
   7879643.82849   6137418.57146  22914911.201    22914910.507    22914927.133
       218.000         167.000
 -15749492.60149 -12252109.69247  19659136.373    19659135.872    19659146.973
       243.000         210.000
  -8892317.84049  -6914538.76747  19518183.967    19518183.499    19518193.375
       239.000         207.000
 -16202823.99249 -12613362.77647  19647409.256    19647409.112    19647419.373
       241.000         209.000
  -5572995.91549  -4326154.88845  23321172.076    23321172.312    23321187.727
       214.000         151.000
   6043499.78749   4706927.65945  23605325.659    23605325.050    23605346.808
       204.000         143.000
 -16739112.34849 -13030411.18746  21409613.399    21409614.025    21409625.344
       233.000         187.000
 01 11 12 17 46 29.9960000  0  8G27G25G22G20G 1G 4G29G13
 -11829089.38849  -9191197.64246  22925835.288    22925835.508    22925851.350
       220.000         169.000
   7928788.32649   6175712.59546  22924263.443    22924262.663    22924279.412
       220.000         168.000
 -15762794.08849 -12262474.53947  19656605.206    19656604.703    19656615.814
       243.000         210.000
  -8878174.31849  -6903517.90947  19520875.465    19520874.991    19520884.868
       238.000         207.000
 -16264695.06949 -12661574.01547  19635635.628    19635635.454    19635645.704
       242.000         209.000
  -5604687.56749  -4350849.79745  23315141.307    23315141.587    23315156.967
       212.000         150.000
   6085871.70349   4739944.41245  23613388.798    23613388.338    23613410.311
       205.000         148.000
 -16844726.23149 -13112707.69146  21389515.822    21389516.375    21389527.636
       234.000         186.000
 01 11 12 17 46 59.9960000  0  8G27G25G22G20G 1G 4G29G13
 -11937760.37149  -9275876.19146  22905155.732    22905155.968    22905171.836
       221.000         169.000
   7977943.44549   6214014.88746  22933617.629    22933616.870    22933633.681
       218.000         167.000
 -15775442.08449 -12272330.18247  19654198.357    19654197.890    19654208.999
       243.000         210.000
  -8863486.11249  -6892072.62947  19523670.571    19523670.109    19523680.019
       239.000         207.000
 -16326355.36149 -12709621.00347  19623902.098    19623901.910    19623912.166
       242.000         209.000
  -5635877.34749  -4375153.63045  23309206.193    23309206.466    23309221.806
       217.000         150.000
   6128373.56749   4773062.42945  23621476.442    23621476.426    23621498.504
       202.000         146.000
 -16950254.76649 -13194937.67946  21369434.480    21369434.970    21369446.194
       234.000         187.000
 01 11 12 17 47 29.9960000  0  8G27G25G22G20G 1G 4G29G13
 -12046288.70249  -9360443.58946  22884503.472    22884503.670    22884519.463
       223.000         173.000
   8027087.63049   6252308.66246  22942969.936    22942969.079    22942985.930
       219.000         169.000
 -15787457.71349 -12281693.07947  19651911.891    19651911.414    19651922.518
       242.000         210.000
  -8848274.69649  -6880219.64347  19526565.232    19526564.786    19526574.704
       238.000         207.000
 -16387824.03349 -12757518.67647  19612204.949    19612204.805    19612215.071
       241.000         209.000
  -5666586.11749  -4399082.61645  23303362.603    23303362.831    23303378.121
       218.000         150.000
   6170984.97449   4806265.79845  23629585.388    23629585.297    23629607.636
       201.000         144.000
 -17055717.05249 -13277116.04846  21349365.685    21349366.144    21349377.376
       233.000         186.000
 01 11 12 17 47 59.9960000  0  8G27G25G22G20G 1G 4G29G13
 -12154655.32149  -9444885.01546  22863881.902    22863882.098    22863897.876
       223.000         177.000
   8076239.22449   6290608.21046  22952323.470    22952322.645    22952339.535
       222.000         167.000
 -15798822.81749 -12290549.07447  19649749.217    19649748.739    19649759.844
       243.000         210.000
  -8832522.38249  -6867945.18147  19529562.837    19529562.399    19529572.337
       239.000         207.000
 -16449081.06049 -12805251.42647  19600548.107    19600548.000    19600558.245
       241.000         209.000
  -5696796.13149  -4422622.98745  23297613.964    23297614.185    23297629.394
       212.000         144.000
   6213724.86749   4839569.28645  23637718.700    23637718.612    23637741.107
       203.000         144.000
 -17161093.39049 -13359227.44046  21329313.252    21329313.686    21329324.875
       232.000         186.000
 01 11 12 17 48 29.9960000  0  8G27G25G22G20G 1G 4G29G13
 -12262861.16849  -9529201.13046  22843290.802    22843291.080    22843306.969
       217.000         175.000
   8125395.91049   6328911.75146  22961678.194    22961677.175    22961694.130
       220.000         169.000
 -15809539.53249 -12298899.83547  19647709.956    19647709.456    19647720.578
       243.000         210.000
  -8816231.87549  -6855251.34847  19532662.860    19532662.423    19532672.421
       239.000         208.000
 -16510126.60149 -12852819.38647  19588931.562    19588931.432    19588941.688
       241.000         209.000
  -5726509.10449  -4445776.07145  23291959.679    23291959.944    23291975.185
       212.000         146.000
   6256591.94949   4872971.90845  23645876.366    23645876.166    23645898.727
       204.000         145.000
 -17266384.18049 -13441272.16946  21309276.980    21309277.454    21309288.673
       231.000         186.000
 01 11 12 17 48 59.9960000  0  8G27G25G22G20G 1G 4G29G13
 -12370911.30749  -9613395.88746  22822729.402    22822729.714    22822745.633
       221.000         176.000
   8174551.56349   6367214.45646  22971032.419    22971031.490    22971048.592
       218.000         169.000
 -15819614.09849 -12306750.22047  19645792.962    19645792.389    19645803.499
       243.000         210.000
  -8799409.76749  -6842143.28347  19535864.113    19535863.634    19535873.644
       240.000         208.000
 -16570964.86349 -12900225.82647  19577354.411    19577354.305    19577364.580
       241.000         209.000
  -5755731.27049  -4468546.67845  23286398.963    23286399.225    23286414.498
       209.000         145.000
   6299580.90449   4906469.42945  23654056.910    23654056.877    23654079.606
       200.000         142.000
 -17371593.62749 -13523253.49746  21289256.132    21289256.680    21289267.946
       232.000         186.000
 01 11 12 17 49 29.9960000  0  8G27G25G22G20G 1G 4G29G13
 -12478815.57449  -9697477.03446  22802195.761    22802196.075    22802211.983
       221.000         172.000
   8223694.98949   6405507.61646  22980384.188    22980383.429    22980400.717
       219.000         170.000
 -15829057.75949 -12314108.99447  19643995.982    19643995.377    19644006.460
       243.000         210.000
  -8782067.50349  -6828629.90247  19539164.280    19539163.813    19539173.823
       239.000         207.000
 -16631604.98149 -12947477.87547  19565814.952    19565814.852    19565825.152
       241.000         209.000
  -5784473.91349  -4490943.58245  23280929.456    23280929.723    23280944.987
       214.000         149.000
   6342681.16549   4940053.72245  23662258.965    23662258.774    23662281.593
       205.000         148.000
 -17476731.05749 -13605178.72846  21269249.031    21269249.650    21269260.941
       233.000         187.000
 01 11 12 17 49 59.9960000  0  8G27G25G22G20G 1G 4G29G13
 -12586558.23549  -9781432.24946  22781693.041    22781693.286    22781709.038
       224.000         171.000
   8272841.17349   6443802.94546  22989736.778    22989735.961    22989753.381
       217.000         165.000
 -15837855.91249 -12320964.76047  19642321.756    19642321.183    19642332.278
       243.000         210.000
  -8764190.98749  -6814700.21247  19542566.195    19542565.678    19542575.686
       239.000         208.000
 -16692030.46849 -12994562.67347  19554316.379    19554316.274    19554326.594
       241.000         209.000
  -5812722.09749  -4512955.20045  23275554.011    23275554.318    23275569.704
       211.000         148.000
   6385908.45149   4973737.08545  23670485.356    23670484.873    23670507.822
       207.000         149.000
 -17581780.03249 -13687035.01846  21249258.823    21249259.431    21249270.746
       233.000         186.000
 01 11 12 17 50 29.9960000  0  8G27G25G22G20G 1G 4G29G13
 -12694122.63349  -9865248.58346  22761224.115    22761224.380    22761240.023
       222.000         171.000
   8322005.24249   6482112.18146  22999092.821    22999091.845    22999109.449
       217.000         165.000
 -15845993.20249 -12327305.57247  19640773.307    19640772.741    19640783.870
       243.000         210.000
  -8745765.19849  -6800342.52747  19546072.576    19546072.041    19546082.094
       239.000         208.000
 -16752223.97149 -13041466.71247  19542862.008    19542861.874    19542872.163
       241.000         209.000
  -5840460.59349  -4534569.80845  23270275.693    23270275.921    23270291.306
       211.000         144.000
   6429278.72949   5007531.84445  23678738.914    23678738.224    23678761.351
       208.000         151.000
 -17686723.26349 -13768808.94246  21229288.775    21229289.353    21229300.604
       234.000         186.000
 01 11 12 17 50 59.9960000  0  8G27G25G22G20G 1G 4G29G13
 -12801544.19649  -9948953.61146  22740782.255    22740782.610    22740798.268
       220.000         172.000
   8371150.60449   6520406.86846  23008445.166    23008444.195    23008461.895
       219.000         166.000
 -15853506.41749 -12333160.09047  19639343.692    19639343.076    19639354.236
       243.000         211.000
  -8726827.37449  -6785585.85547  19549676.379    19549675.856    19549685.920
       239.000         208.000
 -16812220.12849 -13088216.97147  19531445.136    19531444.988    19531455.291
       241.000         209.000
  -5867726.12549  -4555815.79145  23265087.241    23265087.520    23265102.877
       212.000         142.000
   6472756.27649   5041410.17645  23687012.489    23687012.021    23687035.254
       204.000         153.000
 -17791595.32249 -13850527.40347  21209332.338    21209332.874    21209344.098
       236.000         189.000
 01 11 12 17 51 29.9960000  0  8G27G25G22G20G 1G 4G29G13
 -12908826.20449 -10032549.86146  22720367.006    22720367.392    22720383.125
       221.000         173.000
   8420273.06749   6558683.72646  23017792.980    23017792.169    23017809.979
       220.000         165.000
 -15860400.03749 -12338531.79847  19638031.933    19638031.314    19638042.495
       243.000         210.000
  -8707382.31749  -6770433.93747  19553376.686    19553376.177    19553386.259
       239.000         207.000
 -16872021.20849 -13134815.21947  19520065.371    19520065.227    19520075.528
       241.000         209.000
  -5894522.88149  -4576696.46445  23259988.196    23259988.336    23260003.678
       216.000         140.000
   6516337.54849   5075369.31945  23695305.923    23695305.410    23695328.856
       208.000         152.000
 -17896398.62449 -13932192.28147  21189388.918    21189389.456    21189400.667
       235.000         189.000
 01 11 12 17 51 59.9960000  0  8G27G25G22G20G 1G 4G29G13
 -13015929.54549 -10116006.91346  22699985.922    22699986.246    22700001.952
       225.000         174.000
   8469410.56349   6596972.26746  23027143.945    23027143.044    23027160.927
       220.000         166.000
 -15866636.47049 -12343391.40947  19636845.213    19636844.601    19636855.823
       242.000         210.000
  -8687392.79049  -6754857.75947  19557180.597    19557180.106    19557190.232
       240.000         207.000
 -16931587.36749 -13181230.41347  19508730.357    19508730.190    19508740.483
       241.000         209.000
  -5920813.25549  -4597182.58045  23254985.328    23254985.511    23255000.974
       212.000         138.000
   6560061.26449   5109439.47745  23703626.732    23703626.004    23703649.560
       207.000         155.000
 -18001093.81749 -14013772.89547  21169466.072    21169466.599    21169477.867
       236.000         192.000
 01 11 12 17 52 29.9960000  0  9G27G25G22G20G 1G 4G29G 3G13
 -13122878.64049 -10199343.79546  22679634.142    22679634.442    22679650.019
       221.000         169.000
   8518537.61249   6635252.67745  23036492.962    23036491.981    23036509.923
       218.000         161.000
 -15872241.37449 -12347758.91647  19635778.620    19635778.046    19635789.305
       243.000         210.000
  -8666884.69149  -6738877.50247  19561083.235    19561082.739    19561092.874
       240.000         208.000
 -16990942.19149 -13227480.92647  19497435.524    19497435.349    19497445.622
       241.000         208.000
  -5946622.83149  -4617293.97945  23250074.057    23250074.225    23250089.692
       214.000         144.000
   6603902.66749   5143601.34445  23711969.612    23711968.895    23711992.665
       202.000         150.000
  -2518260.45759  -1944683.91955  23954780.070    23954779.273    23954803.184
       212.000         148.000
 -18105704.20049 -14095287.43847  21149559.375    21149559.882    21149571.188
       236.000         191.000
 01 11 12 17 52 59.9950000  0  9G27G25G22G20G 1G 4G29G 3G13
 -13229660.90949 -10282550.68546  22659314.171    22659314.407    22659329.833
       221.000         169.000
   8567660.93949   6673530.20545  23045841.091    23045840.166    23045858.144
       218.000         162.000
 -15877206.91249 -12351628.21647  19634833.769    19634833.160    19634844.486
       242.000         211.000
  -8645851.46849  -6722488.05647  19565085.806    19565085.289    19565095.431
       239.000         208.000
 -17050073.68349 -13273557.42347  19486183.143    19486182.996    19486193.250
       239.000         208.000
  -5971942.88149  -4637023.97245  23245255.812    23245256.034    23245271.602
       209.000         143.000
   6647869.03749   5177860.58745  23720336.352    23720335.696    23720359.477
       199.000         147.000
  -2625166.24949  -2027987.39145  23934437.064    23934435.967    23934459.842
       210.000         149.000
 -18210216.59449 -14176725.62447  21129671.274    21129671.825    21129683.150
       236.000         191.000
 01 11 12 17 53 29.9950000  0  9G27G25G22G20G 1G 4G29G 3G13
 -13336286.30849 -10365635.32446  22639024.087    22639024.220    22639039.601
       222.000         172.000
   8616779.68649   6711804.13345  23055188.336    23055187.403    23055205.540
       218.000         162.000
 -15881537.56049 -12355002.79447  19634009.755    19634009.127    19634020.460
       242.000         211.000
  -8624296.28749  -6705691.89447  19569187.689    19569187.169    19569197.336
       239.000         207.000
 -17108987.76649 -13319464.51147  19474972.130    19474972.013    19474982.277
       238.000         208.000
  -5996779.01149  -4656376.86645  23240529.760    23240529.989    23240545.648
       213.000         142.000
   6691959.96549   5212216.97045  23728726.927    23728726.229    23728749.836
       209.000         145.000
  -2732094.91149  -2111308.60145  23914089.326    23914088.323    23914112.187
       205.000         148.000
 -18314639.75949 -14258094.29047  21109800.256    21109800.747    21109812.107
       236.000         192.000
 01 11 12 17 53 59.9950000  0  9G27G25G22G20G 1G 4G29G 3G13
 -13442751.85549 -10448595.39046  22618764.211    22618764.362    22618779.784
       222.000         172.000
   8665890.76049   6750072.08846  23064534.080    23064533.186    23064551.475
       217.000         163.000
 -15885235.15249 -12357884.08247  19633306.182    19633305.549    19633316.891
       242.000         211.000
  -8602221.98549  -6688491.21347  19573388.337    19573387.837    19573398.013
       238.000         207.000
 -17167682.07149 -13365200.34347  19463802.978    19463802.869    19463813.139
       239.000         208.000
  -6021132.21549  -4675353.46145  23235895.679    23235895.784    23235911.625
       213.000         144.000
   6736173.34349   5246668.72645  23737140.971    23737140.070    23737163.642
       205.000         142.000
  -2839040.55949  -2194643.00645  23893738.491    23893737.398    23893761.368
       207.000         146.000
 -18418970.03049 -14339390.57147  21089946.852    21089947.332    21089958.698
       236.000         192.000
 01 11 12 17 54 29.9950000  0  9G27G25G22G20G 1G 4G29G 3G13
 -13549055.03449 -10531428.97046  22598535.493    22598535.528    22598550.859
       223.000         173.000
   8714995.73649   6788335.29245  23073878.712    23073877.875    23073896.245
       217.000         160.000
 -15888298.64649 -12360271.27347  19632723.303    19632722.626    19632733.996
       242.000         211.000
  -8579628.01049  -6670885.60147  19577687.901    19577687.392    19577697.600
       239.000         207.000
 -17226153.38949 -13410762.41947  19452676.276    19452676.156    19452686.413
       239.000         208.000
  -6045001.46849  -4693952.98145  23231353.631    23231353.692    23231369.459
       212.000         143.000
   6780511.20949   5281217.49745  23745578.198    23745577.403    23745601.019
       200.000         140.000
  -2945998.53549  -2277986.86145  23873385.677    23873384.239    23873408.103
       207.000         149.000
 -18523204.10249 -14420611.87847  21070111.740    21070112.205    21070123.626
       236.000         192.000
 01 11 12 17 54 59.9950000  0  8G27G25G22G20G 1G 4G 3G13
 -13655204.36049 -10614142.68146  22578335.815    22578335.919    22578351.273
       223.000         171.000
   8764084.84949   6826586.17345  23083220.303    23083219.509    23083237.910
       217.000         160.000
 -15890738.10149 -12362172.20647  19632259.129    19632258.450    19632269.846
       242.000         210.000
  -8556524.78449  -6652883.16747  19582084.354    19582083.862    19582094.110
       239.000         207.000
 -17284409.46549 -13456156.78247  19441590.532    19441590.416    19441600.633
       239.000         208.000
  -6068396.59749  -4712183.06445  23226901.535    23226901.727    23226917.660
       211.000         146.000
  -3052974.69949  -2361344.83645  23853028.779    23853027.467    23853051.333
       207.000         146.000
 -18627349.79449 -14501764.31747  21050293.447    21050293.934    21050305.346
       235.000         192.000
 01 11 12 17 55 29.9950000  0  8G27G25G22G20G 1G 4G 3G13
 -13761196.15749 -10696733.62246  22558166.187    22558166.326    22558181.604
       223.000         171.000
   8813160.68549   6864826.68645  23092559.402    23092558.623    23092577.130
       218.000         159.000
 -15892551.26449 -12363585.12047  19631914.112    19631913.456    19631924.882
       242.000         210.000
  -8532910.34849  -6634482.38947  19586578.111    19586577.595    19586587.908
       239.000         207.000
 -17342445.57649 -13501379.74047  19430546.631    19430546.501    19430556.744
       238.000         208.000
  -6091315.28749  -4730041.87545  23222540.467    23222540.577    23222556.523
       212.000         148.000
  -3159962.64249  -2444711.86245  23832669.337    23832668.425    23832692.459
       206.000         145.000
 -18731402.48049 -14582844.26947  21030492.801    21030493.334    21030504.810
       235.000         191.000
 01 11 12 17 55 59.9950000  0  8G27G25G22G20G 1G 4G 3G13
 -13867023.67449 -10779196.56546  22538027.802    22538027.935    22538043.180
       225.000         171.000
   8862229.35549   6903061.60445  23101897.250    23101896.340    23101914.919
       217.000         159.000
 -15893732.92949 -12364505.95547  19631689.307    19631688.640    19631700.077
       242.000         210.000
  -8508779.72449  -6615679.38747  19591170.021    19591169.549    19591179.911
       238.000         207.000
 -17400253.89549 -13546425.19947  19419545.995    19419545.925    19419556.198
       239.000         208.000
  -6113752.05149  -4747525.19045  23218270.985    23218271.067    23218286.910
       211.000         144.000
  -3266952.96049  -2528080.72145  23812309.301    23812308.828    23812333.036
       201.000         145.000
 -18835354.56849 -14663845.84547  21010711.352    21010711.875    21010723.312
       234.000         190.000
 01 11 12 17 56 29.9950000  0  8G27G25G22G20G 1G 4G 3G13
 -13972664.91849 -10861514.34246  22517924.866    22517925.039    22517940.243
       222.000         173.000
   8911311.95749   6941307.39445  23111237.851    23111236.743    23111255.471
       217.000         162.000
 -15894262.48049 -12364918.65747  19631588.599    19631587.921    19631599.351
       242.000         210.000
  -8484112.44749  -6596458.22147  19595864.105    19595863.627    19595874.031
       239.000         207.000
 -17457811.40849 -13591275.22347  19408593.180    19408593.096    19408603.372
       238.000         208.000
  -6135685.92549  -4764616.66945  23214097.151    23214097.246    23214113.088
       209.000         140.000
  -3373920.72049  -2611431.96445  23791953.549    23791953.473    23791977.921
       201.000         138.000
 -18939182.85749 -14744750.94747  20990953.455    20990953.974    20990965.373
       236.000         191.000
 01 11 12 17 56 59.9950000  0  8G27G25G22G20G 1G 4G 3G13
 -14078149.93349 -10943710.40046  22497851.696    22497851.852    22497867.023
       226.000         175.000
   8960377.31149   6979539.72045  23120574.944    23120573.821    23120592.679
       216.000         161.000
 -15894171.48849 -12364847.82147  19631605.944    19631605.274    19631616.715
       242.000         210.000
  -8458940.66849  -6576843.92747  19600654.210    19600653.718    19600664.134
       239.000         206.000
 -17515147.27549 -13635952.54047  19397682.536    19397682.461    19397692.734
       239.000         208.000
  -6157148.78749  -4781341.06545  23210013.103    23210013.127    23210028.779
       214.000         145.000
  -3480893.87749  -2694787.32445  23771597.341    23771597.168    23771621.669
       204.000         135.000
 -19042916.98949 -14825582.68947  20971213.553    20971214.003    20971225.301
       235.000         191.000
 01 11 12 17 57 29.9950000  0  8G27G25G22G20G 1G 4G 3G13
 -14183478.88049 -11025784.85846  22477808.207    22477808.339    22477823.570
       223.000         178.000
   9009424.22449   7017757.68745  23129908.667    23129907.458    23129926.415
       217.000         161.000
 -15893461.92949 -12364294.99547  19631741.006    19631740.342    19631751.784
       243.000         210.000
  -8433266.51749  -6556838.18547  19605539.882    19605539.393    19605549.843
       239.000         206.000
 -17572260.83749 -13680456.63347  19386814.207    19386814.117    19386824.394
       239.000         208.000
  -6178142.10149  -4797699.55145  23206018.394    23206018.481    23206033.953
       212.000         148.000
  -3587869.64749  -2778144.81845  23751240.369    23751240.457    23751264.591
       204.000         138.000
 -19146556.07249 -14906340.36047  20951491.617    20951492.127    20951503.337
       235.000         191.000
 01 11 12 17 57 59.9950000  0  8G27G25G22G20G 1G 4G 3G13
 -14288645.16749 -11107732.54346  22457795.470    22457795.711    22457811.088
       218.000         173.000
   9058458.56849   7055965.83945  23139239.909    23139238.744    23139257.806
       215.000         160.000
 -15892128.69349 -12363256.18547  19631994.758    19631994.099    19632005.556
       242.000         210.000
  -8407085.06649  -6536437.14047  19610522.109    19610521.619    19610532.071
       238.000         206.000
 -17629144.69549 -13724781.73347  19375989.563    19375989.480    19375999.773
       239.000         208.000
  -6198660.60849  -4813688.11245  23202113.831    23202113.946    23202129.619
       212.000         147.000
  -3694838.73649  -2861497.00245  23730885.200    23730884.812    23730909.014
       206.000         145.000
 -19250092.65349 -14987018.15947  20931789.208    20931789.744    20931800.892
       236.000         192.000
 01 11 12 17 58 29.9950000  0  8G27G25G22G20G 1G 4G 3G13
 -14393629.25349 -11189538.23846  22437817.449    22437817.761    22437833.237
       221.000         174.000
   9107498.60449   7094178.48045  23148572.124    23148571.039    23148590.213
       214.000         157.000
 -15890153.92149 -12361717.47647  19632370.555    19632369.937    19632381.402
       242.000         210.000
  -8380378.87449  -6515627.20747  19615604.172    19615603.691    19615614.160
       238.000         206.000
 -17685778.32949 -13768911.85847  19365212.595    19365212.481    19365222.779
       239.000         208.000
  -6218686.35449  -4829292.73945  23198303.071    23198303.218    23198318.915
       213.000         140.000
  -3801779.07849  -2944826.80745  23710534.484    23710534.698    23710558.852
       195.000         140.000
 -19353506.33649 -15067600.19347  20912110.320    20912110.743    20912121.910
       235.000         193.000
 01 11 12 17 58 59.9950000  0  8G27G25G22G20G 1G 4G 3G13
 -14498464.05249 -11271227.60646  22417868.092    22417868.327    22417883.787
       224.000         178.000
   9156511.23249   7132369.70945  23157898.900    23157898.061    23157917.518
       212.000         158.000
 -15887572.20349 -12359705.82247  19632861.911    19632861.283    19632872.739
       242.000         210.000
  -8353182.54549  -6494435.35147  19620779.488    19620779.039    19620789.515
       239.000         206.000
 -17742193.69849 -13812871.90147  19354477.136    19354477.004    19354487.290
       239.000         208.000
  -6238253.56749  -4844540.01745  23194579.693    23194579.757    23194595.328
       217.000         137.000
  -3908721.07249  -3028157.86245  23690183.688    23690184.097    23690208.358
       208.000         140.000
 -19456829.28049 -15148111.52547  20892448.457    20892448.976    20892460.204
       234.000         193.000
 01 11 12 17 59 29.9950000  0  8G27G25G22G20G 1G 4G 3G13
 -14603136.19549 -11352790.25146  22397949.667    22397949.872    22397965.264
       225.000         178.000
   9205508.16749   7170548.68145  23167223.161    23167222.164    23167241.831
       215.000         161.000
 -15884371.58449 -12357211.90647  19633471.059    19633470.394    19633481.842
       242.000         209.000
  -8325484.62849  -6472852.64947  19626050.304    19626049.857    19626060.299
       239.000         206.000
 -17798376.26649 -13856650.54247  19343785.951    19343785.830    19343796.127
       239.000         208.000
  -6257350.24249  -4859420.61845  23190945.832    23190945.936    23190961.313
       218.000         140.000
  -4015648.38849  -3111477.53045  23669835.882    23669836.389    23669860.631
       209.000         146.000
 -19560046.98949 -15228540.86747  20872806.721    20872807.243    20872818.491
       235.000         193.000
 01 11 12 17 59 59.9950000  0  8G27G25G22G20G 1G 4G 3G13
 -14707651.38049 -11434230.59446  22378061.175    22378061.298    22378076.619
       223.000         179.000
   9254483.40549   7208710.79745  23176543.235    23176542.180    23176561.914
       214.000         160.000
 -15880559.50649 -12354241.53647  19634196.574    19634195.877    19634207.316
       242.000         210.000
  -8297292.75049  -6450885.04247  19631415.143    19631414.667    19631425.126
       239.000         206.000
 -17854330.82249 -13900251.51047  19333138.147    19333138.033    19333148.345
       239.000         208.000
  -6275983.61849  -4873940.19645  23187400.132    23187400.173    23187415.682
       218.000         145.000
  -4122563.92049  -3194788.10045  23649490.452    23649490.944    23649514.924
       209.000         149.000
 -19663163.99849 -15308891.74647  20853184.153    20853184.710    20853195.969
       237.000         194.000
 01 11 12 18  0 29.9950000  0  8G27G25G22G20G 1G 4G 3G13
 -14812013.38149 -11515551.52446  22358201.770    22358201.868    22358217.174
       225.000         181.000
   9303432.30449   7246852.36845  23185858.063    23185857.089    23185876.912
       212.000         154.000
 -15876141.30749 -12350798.86247  19635037.420    19635036.687    19635048.140
       242.000         210.000
  -8268612.41249  -6428536.81547  19636872.885    19636872.400    19636882.901
       239.000         206.000
 -17910060.08649 -13943676.92847  19322533.272    19322533.131    19322543.400
       239.000         208.000
  -6294158.64549  -4888102.68545  23183941.548    23183941.697    23183957.244
       213.000         147.000
  -4229468.38849  -3278089.98345  23629147.293    23629147.589    23629171.415
       205.000         146.000
 -19766183.05349 -15389166.29647  20833580.309    20833580.818    20833592.050
       237.000         194.000
 01 11 12 18  0 59.9950000  0  8G27G25G22G20G 1G 4G 3G13
 -14916228.52649 -11596758.05246  22338370.265    22338370.392    22338385.616
       226.000         181.000
   9352347.58749   7284967.75745  23195166.329    23195165.576    23195185.453
       211.000         152.000
 -15871125.11749 -12346890.21847  19635992.039    19635991.315    19636002.748
       242.000         209.000
  -8239452.01649  -6405814.51547  19642421.933    19642421.474    19642432.034
       239.000         206.000
 -17965569.47649 -13986931.00847  19311970.192    19311970.060    19311980.324
       238.000         208.000
  -6311883.39749  -4901914.28645  23180568.578    23180568.728    23180584.395
       213.000         144.000
  -4336365.57449  -3361386.16145  23608805.072    23608805.491    23608829.272
       201.000         140.000
 -19869109.74049 -15469368.86047  20813993.978    20813994.472    20814005.682
       236.000         193.000
 01 11 12 18  1 29.9950000  0  8G27G25G22G20G 1G 4G 3G13
 -15020279.81749 -11677836.91246  22318570.069    22318570.093    22318585.254
       226.000         182.000
   9401245.57149   7323069.64145  23204471.491    23204470.796    23204490.767
       213.000         154.000
 -15865495.58549 -12342503.64447  19637063.384    19637062.644    19637074.062
       242.000         209.000
  -8209796.56849  -6382706.46947  19648065.225    19648064.761    19648075.371
       239.000         206.000
 -18020840.91749 -14029999.67647  19301452.380    19301452.259    19301462.531
       239.000         208.000
  -6329142.33749  -4915362.91945  23177284.403    23177284.557    23177300.346
       211.000         148.000
  -4443235.79049  -3444661.38145  23588468.171    23588468.581    23588492.338
       203.000         143.000
 -19971925.82349 -15549485.24447  20794428.700    20794429.194    20794440.343
       236.000         192.000
 01 11 12 18  1 59.9950000  0  8G27G25G22G20G 1G 4G 3G13
 -15124163.48149 -11758785.14446  22298801.648    22298801.684    22298816.793
       223.000         182.000
   9450129.16049   7361160.31145  23213774.076    23213773.360    23213793.310
       215.000         156.000
 -15859250.60949 -12337637.49947  19638251.865    19638251.090    19638262.476
       242.000         208.000
  -8179644.22349  -6359211.22547  19653803.048    19653802.610    19653813.237
       238.000         205.000
 -18075869.63549 -14072879.20647  19290980.785    19290980.642    19290990.922
       239.000         208.000
  -6345933.01249  -4928446.63145  23174089.241    23174089.490    23174105.340
       211.000         148.000
  -4550072.31349  -3527910.35845  23568137.649    23568138.134    23568161.872
       203.000         148.000
 -20074626.51549 -15629511.71247  20774885.388    20774885.878    20774896.936
       238.000         194.000
 01 11 12 18  2 29.9950000  0  8G27G25G22G20G 1G 4G 3G13
 -15227878.00749 -11839601.55346  22279065.297    22279065.360    22279080.538
       223.000         179.000
   9498999.13449   7399240.39145  23223074.377    23223073.382    23223093.368
       217.000         160.000
 -15852390.53749 -12332292.06647  19639557.301    19639556.565    19639567.957
       241.000         208.000
  -8148995.22749  -6335328.99147  19659635.453    19659634.986    19659645.611
       239.000         205.000
 -18130652.91549 -14115567.48747  19280555.865    19280555.751    19280566.026
       238.000         208.000
  -6362255.52349  -4941165.59645  23170983.343    23170983.543    23170999.416
       212.000         153.000
  -4656870.92649  -3611129.76745  23547814.327    23547814.888    23547838.621
       205.000         147.000
 -20177209.18949 -15709446.21947  20755364.534    20755365.027    20755376.010
       237.000         194.000
 01 11 12 18  2 59.9950000  0  8G27G25G22G20G 1G 4G 3G13
 -15331427.67249 -11920289.51846  22259360.323    22259360.436    22259375.621
       226.000         182.000
   9547850.23649   7437305.71945  23232370.850    23232369.875    23232389.953
       213.000         159.000
 -15844921.45149 -12326472.07147  19640978.609    19640977.910    19640989.350
       241.000         207.000
  -8117856.23749  -6311064.93847  19665561.151    19665560.619    19665571.237
       239.000         205.000
 -18185194.22449 -14158067.21747  19270177.063    19270176.907    19270187.160
       239.000         208.000
  -6378115.90749  -4953524.43145  23167965.120    23167965.398    23167981.417
       212.000         152.000
  -4763633.31449  -3694321.00545  23527498.116    23527498.543    23527522.236
       204.000         145.000
 -20279677.47349 -15789291.58947  20735865.454    20735865.931    20735876.887
       236.000         194.000
 01 11 12 18  3 29.9950000  0  8G27G25G22G20G 1G 4G 3G13
 -15434805.77049 -12000843.81446  22239688.127    22239688.236    22239703.300
       225.000         179.000
   9596688.40549   7475360.98645  23241664.510    23241663.729    23241683.996
       209.000         156.000
 -15836838.53649 -12320173.77547  19642516.782    19642516.085    19642527.550
       241.000         207.000
  -8086222.52849  -6286415.39647  19671580.862    19671580.361    19671591.009
       238.000         205.000
 -18239485.74949 -14200372.31047  19259845.736    19259845.594    19259855.829
       239.000         208.000
  -6393508.99449  -4965519.14545  23165036.060    23165036.323    23165052.340
       215.000         157.000
  -4870349.86049  -3777476.50545  23507189.988    23507190.623    23507214.562
       208.000         147.000
 -20382023.38849 -15869041.60547  20716389.581    20716390.104    20716401.025
       235.000         194.000
 01 11 12 18  3 59.9950000  0  8G27G25G22G20G 1G 4G 3G13
 -15538055.70949 -12081298.20446  22220040.142    22220040.317    22220055.401
       224.000         177.000
   9645469.21249   7513371.54745  23250947.249    23250946.599    23250967.015
       212.000         153.000
 -15828186.98249 -12313432.38147  19644163.128    19644162.463    19644173.960
       240.000         207.000
  -8054139.49549  -6261415.72947  19677686.127    19677685.626    19677696.295
       239.000         205.000
 -18293570.02949 -14242515.90847  19249553.835    19249553.687    19249563.937
       238.000         208.000
  -6408479.71349  -4977184.77545  23162187.376    23162187.578    23162203.642
       213.000         156.000
  -4977061.14849  -3860627.91545  23486883.688    23486884.033    23486907.857
       212.000         150.000
 -20484289.36549 -15948729.34247  20696928.971    20696929.498    20696940.429
       237.000         195.000
 01 11 12 18  4 29.9950000  0  8G27G25G22G20G 1G 4G 3G13
 -15641127.78449 -12161614.02346  22200426.244    22200426.293    22200441.311
       224.000         177.000
   9694242.15449   7551376.02845  23260228.712    23260228.103    23260248.675
       215.000         154.000
 -15818918.85449 -12306210.53447  19645926.835    19645926.168    19645937.701
       241.000         207.000
  -8021559.32449  -6236028.67647  19683886.029    19683885.515    19683896.176
       238.000         205.000
 -18347396.11449 -14284458.30947  19239311.064    19239310.932    19239321.177
       238.000         208.000
  -6422979.92249  -4988483.76245  23159428.313    23159428.389    23159444.529
       212.000         153.000
  -5083714.65449  -3943734.32045  23466588.194    23466588.383    23466612.194
       212.000         149.000
 -20586424.64249 -16028315.21047  20677493.168    20677493.740    20677504.730
       236.000         195.000
 01 11 12 18  4 59.9950000  0  8G27G25G22G20G 1G 4G 3G13
 -15744026.90749 -12241795.05346  22180845.152    22180845.197    22180860.141
       224.000         179.000
   9743001.41549   7589369.85245  23269507.932    23269507.093    23269527.700
       216.000         156.000
 -15809040.93749 -12298513.53247  19647806.614    19647805.926    19647817.466
       241.000         206.000
  -7988488.98649  -6210259.68547  19690179.129    19690178.644    19690189.363
       239.000         205.000
 -18400967.80049 -14326202.48447  19229116.737    19229116.592    19229126.854
       238.000         208.000
  -6437016.23249  -4999421.23245  23156757.352    23156757.458    23156773.560
       214.000         155.000
  -5190312.68549  -4026797.60045  23446303.244    23446303.343    23446326.935
       208.000         146.000
 -20688432.80549 -16107802.04647  20658081.606    20658082.172    20658093.176
       236.000         194.000
 01 11 12 18  5 29.9950000  0  8G27G25G22G20G 1G 4G 3G13
 -15846748.20649 -12321837.51546  22161297.727    22161297.885    22161312.873
       225.000         180.000
   9791750.90349   7627356.03145  23278785.226    23278784.227    23278804.834
       214.000         152.000
 -15798550.17449 -12290338.98847  19649802.994    19649802.306    19649813.821
       240.000         206.000
  -7954925.67349  -6184106.55347  19696566.136    19696565.620    19696576.356
       239.000         205.000
 -18454279.35049 -14367743.95647  19218971.896    19218971.761    19218982.039
       238.000         208.000
  -6450585.21449  -5009994.60345  23154175.417    23154175.484    23154191.567
       215.000         158.000
  -5296847.44149  -4109811.56145  23426029.917    23426030.310    23426053.857
       200.000         145.000
 -20790308.14049 -16187185.38547  20638695.320    20638695.892    20638706.882
       236.000         195.000
 01 11 12 18  5 59.9950000  0  8G27G25G22G20G 1G 4G 3G13
 -15949302.74349 -12401750.04746  22141782.157    22141782.313    22141797.356
       225.000         178.000
   9840479.14549   7665325.70345  23288058.173    23288057.212    23288077.775
       211.000         147.000
 -15787459.64049 -12281697.09947  19651913.476    19651912.799    19651924.325
       240.000         206.000
  -7920882.74349  -6157579.70247  19703044.404    19703043.867    19703054.606
       239.000         205.000
 -18507340.67249 -14409090.44747  19208874.682    19208874.534    19208884.803
       238.000         208.000
  -6463699.80049  -5020213.86246  23151679.808    23151679.943    23151695.995
       220.000         163.000
  -5403326.65549  -4192782.22545  23405767.508    23405767.833    23405791.356
       207.000         151.000
 -20892060.68849 -16266473.04747  20619332.445    20619332.996    20619343.995
       238.000         196.000
 01 11 12 18  6 29.9950000  0  8G27G25G22G20G 1G 4G 3G13
 -16051674.66049 -12481520.26846  22122301.468    22122301.570    22122316.481
       226.000         178.000
   9889201.26649   7703290.54645  23297329.986    23297328.950    23297349.627
       209.000         148.000
 -15775755.23249 -12272576.86347  19654140.753    19654140.113    19654151.663
       240.000         206.000
  -7886346.31449  -6130668.30347  19709616.604    19709616.021    19709626.773
       240.000         205.000
 -18560134.87149 -14450228.78047  19198828.273    19198828.132    19198838.393
       239.000         208.000
  -6476345.56849  -5030067.82845  23149273.483    23149273.610    23149289.685
       216.000         162.000
  -5509731.76049  -4275695.13445  23385519.009    23385519.419    23385542.990
       211.000         148.000
 -20993673.36849 -16345651.71847  20599996.193    20599996.725    20600007.697
       237.000         196.000
 01 11 12 18  6 59.9950000  0  8G27G25G22G20G 1G 4G 3G13
 -16153903.66149 -12561179.11046  22102847.847    22102847.976    22102862.844
       225.000         178.000
   9937876.81649   7741219.13745  23306592.948    23306591.915    23306612.627
       212.000         150.000
 -15763478.57849 -12263010.72347  19656476.979    19656476.335    19656487.927
       240.000         206.000
  -7851357.89849  -6103404.70347  19716274.802    19716274.203    19716284.934
       240.000         205.000
 -18612700.48149 -14491188.99147  19188825.361    19188825.238    19188835.485
       237.000         207.000
  -6488563.66749  -5039588.55646  23146948.509    23146948.651    23146964.777
       219.000         163.000
  -5616099.79549  -4358579.18745  23365277.378    23365277.969    23365301.574
       206.000         144.000
 -21095184.40549 -16424751.17747  20580679.270    20580679.794    20580690.736
       237.000         196.000
 01 11 12 18  7 29.9950000  0  8G27G25G22G20G 1G 4G 3G13
 -16255956.60249 -12640700.75446  22083427.758    22083427.863    22083442.728
       225.000         179.000
   9986538.15749   7779136.64545  23315853.348    23315852.192    23315872.991
       209.000         152.000
 -15750598.56849 -12252974.44347  19658927.989    19658927.365    19658938.969
       240.000         205.000
  -7815886.61849  -6075764.85347  19723024.852    19723024.259    19723034.961
       240.000         205.000
 -18665003.25949 -14531944.40747  19178872.457    19178872.336    19178882.575
       238.000         207.000
  -6500322.98549  -5048751.78146  23144710.903    23144711.047    23144727.183
       220.000         165.000
  -5722395.00749  -4441406.52545  23345049.986    23345050.480    23345074.091
       207.000         146.000
 -21196559.72849 -16503744.89647  20561388.130    20561388.683    20561399.584
       238.000         196.000
 01 11 12 18  7 59.9950000  0  8G27G25G22G20G 1G 4G 3G13
 -16357824.50649 -12720078.19446  22064042.831    22064042.965    22064057.728
       225.000         178.000
  10035193.71049   7817049.65145  23325112.529    23325111.365    23325132.399
       209.000         152.000
 -15737108.04549 -12242462.43047  19661495.274    19661494.603    19661506.178
       240.000         205.000
  -7779925.67749  -6047743.45047  19729868.147    19729867.506    19729878.183
       240.000         205.000
 -18717033.10749 -14572487.14847  19168971.450    19168971.363    19168981.622
       238.000         207.000
  -6511616.17849  -5057551.78946  23142561.938    23142562.086    23142578.277
       222.000         168.000
  -5828605.08349  -4524167.50345  23324838.912    23324839.378    23324862.652
       212.000         149.000
 -21297789.18249 -16582624.94847  20542124.800    20542125.321    20542136.178
       237.000         195.000
 01 11 12 18  8 29.9950000  0  8G27G25G22G20G 1G 4G 3G13
 -16459532.45749 -12799330.99846  22044688.307    22044688.481    22044703.219
       223.000         178.000
  10083817.93249   7854938.22445  23334365.687    23334364.517    23334385.785
       205.000         152.000
 -15723034.00749 -12231495.73847  19664173.516    19664172.863    19664184.444
       240.000         205.000
  -7743502.06549  -6019361.52047  19736799.438    19736798.778    19736809.455
       239.000         204.000
 -18768813.90449 -14612835.82647  19159117.871    19159117.800    19159128.061
       237.000         207.000
  -6522469.73849  -5066009.22346  23140496.647    23140496.823    23140513.008
       220.000         164.000
  -5934752.20649  -4606879.44545  23304639.639    23304640.094    23304663.265
       213.000         147.000
 -21398896.69449 -16661409.97747  20522884.714    20522885.192    20522895.993
       238.000         195.000
 01 11 12 18  8 59.9950000  0  8G27G25G22G20G 1G 4G 3G13
 -16561063.07849 -12878445.63946  22025367.563    22025367.745    22025382.466
       228.000         180.000
  10132427.17949   7892815.13145  23343615.996    23343614.936    23343636.216
       209.000         153.000
 -15708361.30249 -12220062.54847  19666965.737    19666965.068    19666976.645
       240.000         205.000
  -7706600.60549  -5990607.24247  19743821.614    19743820.978    19743831.689
       239.000         204.000
 -18820327.21349 -14652976.07347  19149315.190    19149315.127    19149325.387
       237.000         207.000
  -6532868.11749  -5074111.95546  23138517.988    23138518.153    23138534.370
       221.000         165.000
  -6040816.08149  -4689526.50745  23284456.070    23284456.659    23284479.805
       214.000         145.000
 -21499863.62449 -16740085.45347  20503671.252    20503671.791    20503682.534
       238.000         195.000
 01 11 12 18  9 29.9950000  0  8G27G25G22G20G 1G 4G 3G13
 -16662449.43349 -12957447.85846  22006074.341    22006074.502    22006089.171
       224.000         179.000
  10180988.05149   7930654.37445  23352857.331    23352856.173    23352877.477
       210.000         153.000
 -15693124.74649 -12208189.99547  19669865.267    19669864.558    19669876.118
       240.000         204.000
  -7669256.66249  -5961508.17647  19750928.014    19750927.369    19750938.125
       240.000         204.000
 -18871604.86749 -14692932.69647  19139557.394    19139557.318    19139567.578
       238.000         207.000
  -6542846.10349  -5081887.11346  23136619.352    23136619.475    23136635.717
       221.000         164.000
  -6146826.83749  -4772132.19345  23264282.669    23264283.251    23264306.425
       209.000         146.000
 -21600721.64449 -16818676.07547  20484478.577    20484479.131    20484489.834
       238.000         197.000
 01 11 12 18  9 59.9950000  0  8G27G25G22G20G 1G 4G 3G13
 -16763677.28049 -13036326.55946  21986811.166    21986811.359    21986826.070
       223.000         179.000
  10229514.08149   7968466.43945  23362091.997    23362090.647    23362112.194
       209.000         154.000
 -15677312.14249 -12195868.56847  19672874.245    19672873.641    19672885.213
       239.000         204.000
  -7631458.08549  -5932054.85147  19758120.831    19758120.274    19758131.073
       239.000         204.000
 -18922631.74949 -14732693.91447  19129847.339    19129847.247    19129857.499
       238.000         207.000
  -6552391.34749  -5089325.09845  23134803.031    23134803.165    23134819.364
       220.000         162.000
  -6252767.48849  -4854683.19545  23244122.418    23244123.287    23244146.415
       207.000         142.000
 -21701455.48849 -16897169.93547  20465309.644    20465310.127    20465320.797
       239.000         197.000
 01 11 12 18 10 29.9950000  0  8G27G25G22G20G 1G 4G 3G13
 -16864743.69349 -13115079.47246  21967578.655    21967578.905    21967593.670
       221.000         180.000
  10278007.64449   8006253.21245  23371320.123    23371318.915    23371340.536
       208.000         152.000
 -15660922.80049 -12183097.73947  19675993.042    19675992.466    19676004.061
       240.000         204.000
  -7593204.05149  -5902246.62547  19765400.460    19765399.863    19765410.680
       240.000         204.000
 -18973403.72949 -14772256.51247  19120185.773    19120185.673    19120195.904
       238.000         207.000
  -6561502.60249  -5096424.91346  23133069.286    23133069.434    23133085.738
       223.000         163.000
  -6358631.91649  -4937174.85845  23223976.976    23223977.748    23224000.876
       214.000         149.000
 -21802061.14249 -16975563.89847  20446164.939    20446165.461    20446176.148
       237.000         196.000
 01 11 12 18 10 59.9950000  0  8G27G25G22G20G 1G 4G 3G13
 -16965646.07949 -13193704.57546  21948377.432    21948377.680    21948392.459
       226.000         181.000
  10326470.58049   8044016.11845  23380542.473    23380541.366    23380563.043
       210.000         152.000
 -15643956.01649 -12169876.95147  19679221.766    19679221.191    19679232.757
       240.000         204.000
  -7554494.16649  -5872083.19347  19772766.742    19772766.188    19772777.023
       239.000         203.000
 -19023916.96149 -14811617.49547  19110573.436    19110573.334    19110583.532
       237.000         208.000
  -6570178.98649  -5103185.86545  23131418.292    23131418.420    23131434.737
       220.000         160.000
  -6464414.88049  -5019602.99945  23203847.375    23203847.901    23203870.966
       214.000         151.000
 -21902534.62149 -17053854.86047  20427045.363    20427045.951    20427056.658
       238.000         197.000
 01 11 12 18 11 29.9950000  0  8G27G25G22G20G 1G 4G 3G13
 -17066380.18249 -13272198.54646  21929208.274    21929208.511    21929223.275
       226.000         182.000
  10374907.03149   8081758.38045  23389759.971    23389758.777    23389780.630
       209.000         154.000
 -15626409.50149 -12156204.43247  19682560.786    19682560.241    19682571.820
       239.000         204.000
  -7515326.33249  -5841562.91247  19780220.178    19780219.650    19780230.511
       239.000         203.000
 -19074166.05349 -14850772.64947  19101011.359    19101011.252    19101021.463
       238.000         208.000
  -6578417.91849  -5109605.92345  23129850.532    23129850.718    23129867.082
       219.000         159.000
  -6570108.83049  -5101961.78545  23183734.537    23183734.899    23183757.852
       212.000         148.000
 -22002870.13749 -17132038.31547  20407952.130    20407952.700    20407963.419
       237.000         197.000
 01 11 12 18 11 59.9950000  0  8G27G25G22G20G 1G 4G 3G13
 -17166950.97849 -13350565.27446  21910070.207    21910070.447    21910085.188
       227.000         184.000
  10423311.31449   8119475.59445  23398971.227    23398970.096    23398992.060
       213.000         155.000
 -15608290.52349 -12142085.83647  19686008.756    19686008.207    19686019.817
       239.000         203.000
  -7475707.84349  -5810691.47747  19787759.432    19787758.866    19787769.766
       238.000         203.000
 -19124154.92449 -14889725.03347  19091498.840    19091498.701    19091508.934
       237.000         208.000
  -6586226.25049  -5115690.48845  23128364.775    23128364.974    23128381.333
       218.000         159.000
  -6675716.04149  -5184252.95345  23163638.011    23163638.419    23163661.190
       217.000         153.000
 -22103071.94249 -17210117.58347  20388884.254    20388884.853    20388895.593
       237.000         196.000
 01 11 12 18 12 29.9950000  0  8G27G25G22G20G 1G 4G 3G13
 -17267340.21949 -13428790.55046  21890966.821    21890966.957    21890981.644
       228.000         185.000
  10471700.76049   8157181.24145  23408179.868    23408178.718    23408200.681
       214.000         158.000
 -15589582.72749 -12127508.43347  19689568.808    19689568.238    19689579.877
       240.000         204.000
  -7435622.34849  -5779456.14847  19795387.538    19795386.970    19795397.908
       238.000         203.000
 -19173863.91449 -14928459.33247  19082039.545    19082039.416    19082049.647
       238.000         208.000
  -6593587.37349  -5121426.55145  23126964.044    23126964.267    23126980.726
       215.000         157.000
  -6781215.32649  -5266460.04845  23143562.175    23143562.521    23143585.226
       213.000         151.000
 -22203120.23049 -17288077.25347  20369845.588    20369846.233    20369856.951
       237.000         196.000
 01 11 12 18 12 59.9950000  0  8G27G25G22G20G 1G 4G 3G13
 -17367569.15349 -13506890.90746  21871893.894    21871894.021    21871908.618
       228.000         186.000
  10520053.86649   8194858.55945  23417381.505    23417380.394    23417402.413
       214.000         157.000
 -15570309.53049 -12112490.45847  19693236.576    19693235.886    19693247.538
       240.000         204.000
  -7395093.42449  -5747875.29047  19803100.055    19803099.464    19803110.429
       238.000         202.000
 -19223313.26549 -14966991.32047  19072629.666    19072629.531    19072639.763
       237.000         208.000
  -6600524.54249  -5126832.24545  23125643.958    23125644.231    23125660.750
       215.000         157.000
  -6886624.62149  -5348596.97645  23123503.319    23123503.662    23123526.335
       210.000         151.000
 -22303035.12149 -17365932.95747  20350832.414    20350833.032    20350843.719
       238.000         197.000
 01 11 12 18 13 29.9950000  0  8G27G25G22G20G 1G 4G 3G13
 -17467632.83449 -13584862.49746  21852852.317    21852852.456    21852867.041
       226.000         185.000
  10568375.33849   8232511.23445  23426577.042    23426575.981    23426598.025
       215.000         154.000
 -15550468.05249 -12097029.66747  19697012.402    19697011.664    19697023.340
       239.000         204.000
  -7354118.38749  -5715946.81447  19810897.376    19810896.832    19810907.836
       237.000         201.000
 -19272496.77649 -15005316.15347  19063270.370    19063270.234    19063280.481
       237.000         208.000
  -6607034.52349  -5131905.06445  23124405.264    23124405.533    23124422.119
       217.000         155.000
  -6991936.30749  -5430657.81445  23103462.711    23103463.368    23103486.078
       210.000         152.000
 -22402809.96849 -17443679.53747  20331845.798    20331846.456    20331857.159
       238.000         197.000
 01 11 12 18 13 59.9950000  0  8G27G25G22G20G 1G 4G 3G13
 -17567530.57449 -13662704.78946  21833842.198    21833842.406    21833857.024
       226.000         186.000
  10616665.06249   8270139.19345  23435766.821    23435765.586    23435787.590
       215.000         153.000
 -15530059.78949 -12081127.22447  19700896.028    19700895.302    19700907.003
       239.000         204.000
  -7312698.93949  -5683672.04847  19818779.306    19818778.762    19818789.800
       237.000         202.000
 -19321412.65849 -15043432.43847  19053961.999    19053961.851    19053972.150
       237.000         208.000
  -6613118.41949  -5136645.90045  23123247.630    23123247.889    23123264.451
       213.000         148.000
  -7097146.43849  -5512639.50945  23083441.771    23083442.360    23083464.999
       213.000         154.000
 -22502442.72649 -17521315.40247  20312886.326    20312886.940    20312897.644
       238.000         198.000
 01 11 12 18 14 29.9950000  0  8G27G25G22G20G 1G 4G 3G13
 -17667266.93749 -13740421.33946  21814862.901    21814863.122    21814877.667
       228.000         187.000
  10664917.88149   8307738.39145  23444949.444    23444948.154    23444970.214
       211.000         150.000
 -15509091.39949 -12064788.33147  19704886.236    19704885.525    19704897.278
       240.000         204.000
  -7270841.72549  -5651056.16447  19826744.534    19826744.018    19826755.073
       238.000         202.000
 -19370064.29049 -15081342.81947  19044703.939    19044703.777    19044714.097
       238.000         208.000
  -6618782.65849  -5141059.71345  23122169.855    23122170.063    23122186.661
       210.000         149.000
  -7202256.84049  -5594543.46245  23063439.842    23063440.359    23063462.991
       213.000         150.000
 -22601937.18849 -17598843.49547  20293953.190    20293953.743    20293964.441
       237.000         197.000
 01 11 12 18 14 59.9950000  0  8G27G25G22G20G 1G 4G 3G13
 -17766839.01949 -13818009.87946  21795914.951    21795915.113    21795929.613
       229.000         187.000
  10713136.19749   8345310.69045  23454125.415    23454124.074    23454146.214
       213.000         147.000
 -15487562.27149 -12048012.49147  19708983.235    19708982.474    19708994.220
       239.000         203.000
  -7228545.96949  -5618098.55747  19834793.342    19834792.753    19834803.823
       238.000         202.000
 -19418447.63449 -15119044.13847  19035496.898    19035496.757    19035507.101
       237.000         208.000
  -6624026.24449  -5145145.75145  23121171.974    23121172.273    23121189.003
       212.000         153.000
  -7307261.60449  -5676365.04745  23043457.982    23043458.530    23043481.029
       215.000         155.000
 -22701288.71749 -17676260.21047  20275047.142    20275047.726    20275058.433
       239.000         198.000
 01 11 12 18 15 29.9950000  0  8G27G25G22G20G 1G 4G 3G13
 -17866247.93949 -13895471.29246  21776997.958    21776998.139    21777012.614
       226.000         187.000
  10761318.35949   8382854.82645  23463294.207    23463293.108    23463315.448
       205.000         142.000
 -15465475.64349 -12030802.25247  19713186.191    19713185.466    19713197.270
       239.000         203.000
  -7185815.17849  -5584801.96747  19842924.902    19842924.266    19842935.352
       238.000         202.000
 -19466562.57349 -15156536.31447  19026340.860    19026340.774    19026351.156
       237.000         208.000
  -6628852.20849  -5148906.37845  23120253.785    23120254.030    23120270.738
       213.000         151.000
  -7412158.67349  -5758102.72445  23023496.690    23023497.198    23023519.592
       216.000         152.000
 -22800497.17849 -17753565.46247  20256168.374    20256168.930    20256179.656
       239.000         198.000
 01 11 12 18 15 59.9940000  0  8G27G25G22G20G 1G 4G 3G13
 -17965483.69549 -13972797.76547  21758113.905    21758114.117    21758128.555
       230.000         188.000
  10809469.28449   8420374.64145  23472457.001    23472456.151    23472478.574
       205.000         142.000
 -15442827.83149 -12013154.72047  19717496.020    19717495.289    19717507.114
       239.000         203.000
  -7142646.43149  -5551164.11047  19851139.795    19851139.109    19851150.244
       238.000         201.000
 -19514399.61849 -15193811.95247  19017237.818    19017237.709    19017248.095
       237.000         208.000
  -6633255.69349  -5152337.80245  23119416.002    23119416.168    23119432.926
       212.000         149.000
  -7516935.13049  -5839746.34245  23003558.197    23003558.681    23003581.118
       214.000         150.000
 -22899551.31149 -17830750.45347  20237318.984    20237319.535    20237330.226
       239.000         198.000
 01 11 12 18 16 29.9940000  0  8G27G25G22G20G 1G 4G 3G13
 -18064558.01349 -14049998.45047  21739260.643    21739260.842    21739275.255
       228.000         188.000
  10857586.52749   8457868.21745  23481613.600    23481612.842    23481635.243
       209.000         144.000
 -15419624.71349 -11995074.47347  19721911.472    19721910.774    19721922.591
       239.000         203.000
  -7099044.23349  -5517188.50747  19859437.093    19859436.429    19859447.590
       237.000         201.000
 -19561965.93949 -15230876.63747  19008186.258    19008186.155    19008196.553
       237.000         208.000
  -6637243.81549  -5155445.55345  23118657.220    23118657.377    23118674.142
       214.000         151.000
  -7621599.92449  -5921303.00945  22983641.209    22983641.475    22983663.840
       216.000         157.000
 -22998461.43749 -17907823.23447  20218496.972    20218497.516    20218508.177
       238.000         199.000
 01 11 12 18 16 59.9940000  0  8G27G25G22G20G 1G 4G 3G13
 -18163470.91349 -14127073.32546  21720438.107    21720438.261    21720452.672
       229.000         187.000
  10905664.59749   8495331.26645  23490763.085    23490762.184    23490784.560
       210.000         150.000
 -15395872.29549 -11976566.20647  19726431.438    19726430.792    19726442.635
       239.000         202.000
  -7055015.81649  -5482880.78747  19867815.525    19867814.855    19867826.038
       238.000         201.000
 -19609261.86349 -15267730.62147  18999186.118    18999186.028    18999196.470
       237.000         208.000
  -6640821.65749  -5158233.59745  23117976.575    23117976.642    23117993.365
       213.000         150.000
  -7726149.69049  -6002769.96545  22963746.031    22963746.157    22963768.579
       215.000         152.000
 -23097226.00049 -17984782.58647  20199702.688    20199703.229    20199713.822
       239.000         199.000
 01 11 12 18 17 29.9940000  0  8G27G25G22G20G 1G 4G 3G13
 -18262229.24849 -14204027.79146  21701645.041    21701645.162    21701659.501
       228.000         186.000
  10953695.77949   8532757.76345  23499903.617    23499902.590    23499925.095
       210.000         153.000
 -15371579.83449 -11957637.12047  19731054.203    19731053.566    19731065.443
       239.000         202.000
  -7010570.12849  -5448247.91447  19876273.351    19876272.694    19876283.910
       238.000         201.000
 -19656293.18049 -15304378.41347  18990236.376    18990236.277    18990246.706
       236.000         207.000
  -6643997.92549  -5160708.73645  23117372.312    23117372.316    23117389.117
       213.000         153.000
  -7830588.65649  -6084150.61245  22943871.382    22943871.849    22943894.374
       211.000         154.000
 -23195850.67149 -18061632.92247  20180935.053    20180935.560    20180946.113
       239.000         200.000
 01 11 12 18 17 59.9940000  0  8G27G25G22G20G 1G 4G 3G13
 -18360823.93649 -14280854.74546  21682882.927    21682883.123    21682897.441
       229.000         185.000
  11001689.15849   8570154.79245  23509036.530    23509035.658    23509058.511
       203.000         150.000
 -15346740.58449 -11938281.97047  19735781.065    19735780.406    19735792.285
       239.000         202.000
  -6965700.52549  -5413284.72647  19884811.833    19884811.192    19884822.456
       238.000         201.000
 -19703049.58849 -15340811.99847  18981338.912    18981338.830    18981349.281
       237.000         208.000
  -6646765.65949  -5162865.57145  23116845.660    23116845.713    23116862.481
       211.000         147.000
  -7934904.58449  -6165435.38445  22924020.320    22924020.946    22924043.512
       217.000         153.000
 -23294324.74749 -18138365.92447  20162195.979    20162196.513    20162207.078
       240.000         199.000
 01 11 12 18 18 29.9940000  0  8G27G25G22G20G 1G 4G 3G13
 -18459256.87449 -14357555.65246  21664151.744    21664151.911    21664166.164
       231.000         186.000
  11049642.79249   8607520.80745  23518162.153    23518161.223    23518184.390
       205.000         146.000
 -15321358.68849 -11918503.98047  19740611.170    19740610.482    19740622.395
       239.000         202.000
  -6920411.19749  -5377994.47947  19893430.239    19893429.577    19893440.872
       238.000         201.000
 -19749531.74849 -15377031.88747  18972493.687    18972493.590    18972504.054
       237.000         208.000
  -6649128.71749  -5164707.05945  23116395.999    23116396.133    23116412.894
       214.000         152.000
  -8039096.30749  -6246623.40145  22904193.253    22904193.713    22904216.154
       213.000         157.000
 -23392648.77849 -18214982.00947  20143485.500    20143486.040    20143496.576
       240.000         199.000
 01 11 12 18 18 59.9940000  0  8G27G25G22G20G 1G 4G 3G13
 -18557523.55949 -14434127.00246  21645452.162    21645452.338    21645466.547
       229.000         186.000
  11097560.53749   8644858.93545  23527280.934    23527280.001    23527303.291
       205.000         147.000
 -15295431.85549 -11898301.36447  19745544.934    19745544.261    19745556.207
       238.000         202.000
  -6874699.98049  -5342375.48647  19902128.883    19902128.221    19902139.541
       237.000         200.000
 -19795734.03349 -15413033.69147  18963701.693    18963701.605    18963712.074
       237.000         208.000
  -6651084.35949  -5166231.07945  23116024.035    23116024.108    23116040.933
       216.000         156.000
  -8143156.40249  -6327708.88845  22884391.141    22884391.546    22884413.946
       205.000         158.000
 -23490817.17549 -18291476.82347  20124804.661    20124805.197    20124815.706
       239.000         199.000
 01 11 12 18 19 29.9940000  0  8G27G25G22G20G 1G 4G 3G13
 -18655634.72449 -14510577.16946  21626782.151    21626782.325    21626796.548
       231.000         187.000
  11145431.07349   8682160.21845  23536390.589    23536389.771    23536413.242
       208.000         148.000
 -15268972.99049 -11877684.18347  19750579.901    19750579.274    19750591.291
       238.000         201.000
  -6828579.78949  -5306437.81847  19910905.289    19910904.680    19910916.034
       237.000         199.000
 -19841665.78649 -15448824.68847  18954961.185    18954961.084    18954971.570
       237.000         208.000
  -6652645.51849  -5167447.67045  23115726.934    23115727.107    23115744.008
       214.000         153.000
  -8247092.42749  -6408697.64945  22864612.649    22864613.005    22864635.302
       216.000         156.000
 -23588838.70949 -18367857.19347  20106151.749    20106152.288    20106162.759
       239.000         199.000
 01 11 12 18 19 59.9940000  0  8G27G25G22G20G 1G 4G 3G13
 -18753550.31349 -14586874.95946  21608149.314    21608149.546    21608163.757
       228.000         187.000
  11193293.82249   8719455.52045  23545498.718    23545498.005    23545521.374
       210.000         143.000
 -15241944.67249 -11856623.27747  19755723.375    19755722.677    19755734.725
       239.000         202.000
  -6782013.17449  -5270152.29347  19919766.748    19919766.118    19919777.486
       238.000         199.000
 -19887285.85349 -15484372.82847  18946280.033    18946279.903    18946290.380
       237.000         208.000
  -6653773.96649  -5168327.11145  23115512.306    23115512.450    23115529.394
       215.000         155.000
  -8350861.48749  -6489556.38745  22844865.770    22844866.165    22844888.434
       213.000         152.000
 -23686672.19449 -18444091.02947  20087534.563    20087535.127    20087545.625
       238.000         200.000
 01 11 12 18 20 29.9940000  0  8G27G25G22G20G 1G 4G 3G13
 -18851315.64349 -14663055.63147  21589545.064    21589545.328    21589559.561
       229.000         188.000
  11241103.30949   8756709.31245  23554597.046    23554596.234    23554619.508
       210.000         146.000
 -15214394.13149 -11835155.43747  19760966.171    19760965.452    19760977.564
       239.000         202.000
  -6735047.51149  -5233555.80647  19928704.224    19928703.523    19928714.888
       237.000         199.000
 -19932638.03749 -15519712.21747  18937649.782    18937649.676    18937660.186
       236.000         208.000
  -6654516.89949  -5168906.16545  23115370.933    23115371.140    23115388.197
       214.000         152.000
  -8454505.43449  -6570317.66345  22825142.750    22825143.167    22825165.428
       215.000         156.000
 -23784361.38649 -18520212.42147  20068944.918    20068945.457    20068955.975
       240.000         201.000
 01 11 12 18 20 59.9940000  0  8G27G25G22G20G 1G 4G 3G13
 -18948922.71749 -14739112.99647  21570971.022    21570971.267    21570985.489
       230.000         188.000
  11288867.48049   8793927.76945  23563686.649    23563685.678    23563709.261
       210.000         151.000
 -15186315.72749 -11813276.28147  19766309.439    19766308.694    19766320.851
       239.000         202.000
  -6687677.05249  -5196643.90347  19937718.633    19937717.927    19937729.301
       237.000         199.000
 -19977713.21849 -15554835.76047  18929072.211    18929072.146    18929082.704
       236.000         208.000
  -6654868.36649  -5169180.16945  23115304.279    23115304.330    23115321.432
       214.000         152.000
  -8558013.02649  -6650972.67345  22805445.803    22805446.094    22805468.353
       218.000         156.000
 -23881896.73849 -18596213.93447  20050384.529    20050385.064    20050395.575
       240.000         201.000
 01 11 12 18 21 29.9940000  0  8G27G25G22G20G 1G 4G 3G13
 -19046370.66749 -14815046.37247  21552427.233    21552427.449    21552441.688
       229.000         188.000
  11336586.78049   8831111.24145  23572767.730    23572766.630    23572790.463
       214.000         154.000
 -15157711.10749 -11790987.09847  19771752.787    19771752.068    19771764.263
       239.000         202.000
  -6639903.67049  -5159418.03247  19946809.656    19946808.995    19946820.396
       237.000         198.000
 -20022509.45249 -15589741.94747  18920547.813    18920547.724    18920558.293
       237.000         208.000
  -6654829.71649  -5169150.20745  23115311.807    23115311.867    23115328.931
       214.000         151.000
  -8661380.85249  -6731518.86045  22785775.444    22785775.689    22785797.817
       217.000         154.000
 -23979275.90049 -18672093.74647  20031853.877    20031854.407    20031864.891
       239.000         200.000
 01 11 12 18 21 59.9940000  0  8G27G25G22G20G 1G 4G 3G13
 -19143663.24049 -14890858.68347  21533913.043    21533913.248    21533927.445
       231.000         190.000
  11384256.88949   8868256.41545  23581839.407    23581838.323    23581862.233
       212.000         152.000
 -15128586.22949 -11768292.51847  19777295.210    19777294.442    19777306.650
       239.000         201.000
  -6591733.46049  -5121882.95147  19955976.228    19955975.575    19955987.032
       237.000         198.000
 -20067029.12549 -15624432.63047  18912076.082    18912075.943    18912086.521
       237.000         208.000
  -6654406.37249  -5168820.49445  23115392.483    23115392.518    23115409.642
       214.000         149.000
  -8764609.59249  -6811956.65745  22766131.231    22766131.692    22766153.862
       211.000         152.000
 -24076501.63149 -18747854.00847  20013352.363    20013352.901    20013363.407
       240.000         201.000
 01 11 12 18 22 29.9940000  0  8G27G25G22G20G 1G 4G 3G13
 -19240791.14149 -14966542.66147  21515430.197    21515430.381    21515444.580
       229.000         189.000
  11431886.93349   8905370.41345  23590903.530    23590902.414    23590926.354
       208.000         153.000
 -15098934.24849 -11745187.20147  19782937.922    19782937.147    19782949.353
       239.000         202.000
  -6543159.38749  -5084033.16347  19965219.717    19965219.018    19965230.505
       237.000         198.000
 -20111261.79849 -15658899.66747  18903658.900    18903658.765    18903669.358
       237.000         208.000
  -6653591.31749  -5168185.45545  23115547.719    23115547.712    23115564.915
       212.000         148.000
  -8867686.48049  -6892276.17945  22746516.072    22746516.617    22746538.617
       215.000         154.000
 -24173562.26649 -18823485.62347  19994882.314    19994882.860    19994893.350
       241.000         202.000
 01 11 12 18 22 59.9940000  0  8G27G25G22G20G 1G 4G 3G13
 -19337754.80349 -15042098.66647  21496978.504    21496978.710    21496992.910
       229.000         189.000
  11479476.20549   8942452.57645  23599959.713    23599958.714    23599982.826
       205.000         154.000
 -15068757.98149 -11721673.35847  19788680.445    19788679.608    19788691.827
       238.000         201.000
  -6494184.19149  -5045870.82047  19974539.509    19974538.803    19974550.284
       236.000         198.000
 -20155206.55749 -15693142.36347  18895296.536    18895296.381    18895306.975
       237.000         208.000
  -6652386.99549  -5167247.19245  23115776.960    23115777.012    23115794.288
       207.000         148.000
  -8970609.15349  -6972475.49445  22726930.268    22726930.873    22726952.836
       214.000         150.000
 -24270457.17149 -18898988.11247  19976443.804    19976444.355    19976454.820
       240.000         202.000
 01 11 12 18 23 29.9940000  0  8G27G25G22G20G 1G 4G 3G13
 -19434560.86149 -15117531.86647  21478556.800    21478557.050    21478571.232
       231.000         190.000
  11527017.56949   8979497.42245  23609006.617    23609005.817    23609030.015
       202.000         149.000
 -15038066.51149 -11697758.05947  19794520.913    19794520.105    19794532.325
       238.000         201.000
  -6444817.08749  -5007403.08847  19983933.817    19983933.138    19983944.646
       236.000         197.000
 -20198868.86149 -15727164.95647  18886987.868    18886987.724    18886998.335
       237.000         208.000
  -6650802.00649  -5166012.27445  23116078.623    23116078.690    23116095.998
       205.000         143.000
  -9073381.14549  -7052557.45345  22707372.981    22707373.744    22707395.605
       216.000         150.000
 -24367191.57149 -18974365.52847  19958035.864    19958036.388    19958046.847
       240.000         202.000
 01 11 12 18 23 59.9940000  0  8G27G25G22G20G 1G 4G 3G13
 -19531191.95349 -15192828.73647  21460168.556    21460168.724    21460182.827
       230.000         189.000
  11574528.23049   9016518.36445  23618047.542    23618047.039    23618071.325
       201.000         147.000
 -15006844.71949 -11673429.52247  19800462.411    19800461.535    19800473.757
       238.000         201.000
  -6395043.02949  -4968618.25247  19993405.541    19993404.933    19993416.493
       236.000         197.000
 -20242229.96749 -15760952.84147  18878736.527    18878736.385    18878747.031
       237.000         208.000
  -6648821.27349  -5164468.97245  23116455.484    23116455.701    23116473.048
       206.000         144.000
  -9175981.91049  -7132505.97645  22687848.595    22687849.330    22687871.038
       214.000         152.000
 -24463746.32549 -19049602.95047  19939662.072    19939662.606    19939673.068
       240.000         202.000
 01 11 12 18 24 29.9940000  0  8G27G25G22G20G 1G 4G 3G13
 -19627669.94249 -15268006.30247  21441809.333    21441809.533    21441823.574
       231.000         190.000
  11621985.97149   9053498.04345  23627078.821    23627078.206    23627102.731
       208.000         152.000
 -14975116.80349 -11648706.60047  19806500.167    19806499.270    19806511.499
       237.000         201.000
  -6344886.35849  -4929535.27647  20002950.158    20002949.536    20002961.137
       236.000         197.000
 -20285310.51649 -15794522.10247  18870538.562    18870538.447    18870549.120
       236.000         208.000
  -6646468.55249  -5162635.79745  23116903.401    23116903.519    23116920.882
       207.000         142.000
  -9278430.30749  -7212335.77045  22668353.196    22668353.908    22668375.595
       215.000         153.000
 -24560141.97149 -19124716.40047  19921318.542    19921319.081    19921329.551
       241.000         201.000
 01 11 12 18 24 59.9940000  0  8G27G25G22G20G 1G 4G 3G13
 -19723982.12549 -15343054.68347  21423481.691    21423481.877    21423495.895
       230.000         189.000
  11669403.14249   9090446.20345  23636102.447    23636101.715    23636126.355
       211.000         152.000
 -14942872.61249 -11623581.38447  19812636.045    19812635.226    19812647.502
       237.000         200.000
  -6294336.86849  -4890146.20347  20012569.520    20012568.894    20012580.529
       236.000         196.000
 -20328096.64449 -15827861.93947  18862396.655    18862396.533    18862407.230
       237.000         208.000
  -6643733.18449  -5160504.51245  23117423.878    23117424.103    23117441.596
       208.000         142.000
  -9380710.66749  -7292034.62145  22648889.729    22648890.398    22648912.062
       213.000         154.000
 -24656364.20849 -19199694.72247  19903008.028    19903008.571    19903019.028
       241.000         203.000
 01 11 12 18 25 29.9940000  0  8G27G25G22G20G 1G 4G 3G13
 -19820134.58549 -15417978.61647  21405184.445    21405184.600    21405198.569
       231.000         191.000
  11716773.41249   9127357.80045  23645117.059    23645116.283    23645140.937
       212.000         151.000
 -14910120.71249 -11598060.55747  19818868.557    19818867.782    19818880.114
       237.000         200.000
  -6243403.18649  -4850457.76347  20022262.067    20022261.367    20022273.034
       236.000         196.000
 -20370593.16549 -15860976.11547  18854309.863    18854309.739    18854320.440
       237.000         208.000
  -6640623.42249  -5158081.47145  23118015.833    23118016.027    23118033.411
       203.000         138.000
  -9482826.05249  -7371604.90745  22629457.829    22629458.321    22629479.971
       215.000         155.000
 -24752417.57949 -19274541.46747  19884729.678    19884730.225    19884740.699
       241.000         203.000
 01 11 12 18 25 59.9940000  0  8G27G25G22G20G 1G 4G 3G13
 -19916115.03849 -15492768.48747  21386919.875    21386920.058    21386934.078
       231.000         192.000
  11764108.89649   9164242.32645  23654125.266    23654124.280    23654148.825
       209.000         147.000
 -14876851.08649 -11572136.29947  19825199.628    19825198.853    19825211.232
       236.000         200.000
  -6192075.11949  -4810462.00847  20032029.589    20032028.883    20032040.592
       236.000         196.000
 -20412786.34349 -15893853.91847  18846280.818    18846280.677    18846291.347
       237.000         208.000
  -6637129.01149  -5155358.67345  23118680.894    23118681.116    23118698.528
       202.000         136.000
  -9584760.98949  -7451034.58145  22610060.136    22610060.623    22610082.323
       215.000         156.000
 -24848288.19349 -19349245.80447  19866486.059    19866486.604    19866497.077
       241.000         202.000
 01 11 12 18 26 29.9940000  0  8G27G25G22G20G 1G 4G 3G13
 -20011930.89149 -15567430.10547  21368686.639    21368686.839    21368700.866
       232.000         192.000
  11811401.91549   9201093.72545  23663125.149    23663124.123    23663148.712
       204.000         135.000
 -14843073.47149 -11545816.20647  19831627.342    19831626.598    19831639.044
       236.000         200.000
  -6140362.55149  -4770166.63447  20041870.242    20041869.551    20041881.302
       235.000         196.000
 -20454682.32649 -15926500.13747  18838308.283    18838308.135    18838318.794
       237.000         208.000
  -6633259.36949  -5152343.55245  23119417.321    23119417.552    23119435.123
       202.000         136.000
  -9686519.58349  -7530326.83245  22590695.964    22590696.462    22590718.143
       215.000         158.000
 -24943981.68949 -19423812.13047  19848276.161    19848276.704    19848287.124
       241.000         202.000
 01 11 12 18 26 59.9940000  0  7G27G22G20G 1G 4G 3G13
 -20107583.69449 -15641964.67247  21350484.444    21350484.660    21350498.654
       231.000         192.000
 -14808791.95449 -11519103.45847  19838151.060    19838150.262    19838162.720
       237.000         200.000
  -6088269.44449  -4729574.75047  20051783.334    20051782.654    20051794.392
       236.000         195.000
 -20496281.43149 -15958915.02847  18830392.261    18830392.120    18830402.735
       237.000         208.000
  -6629018.39549  -5149039.02545  23120224.510    23120224.677    23120242.335
       206.000         136.000
  -9788100.24349  -7609480.40345  22571365.658    22571366.190    22571387.775
       214.000         158.000
 -25039497.56749 -19498240.05247  19830100.032    19830100.601    19830110.965
       240.000         201.000
 01 11 12 18 27 29.9940000  0  7G27G22G20G 1G 4G 3G13
 -20203081.32949 -15716378.32347  21332311.834    21332312.011    21332325.983
       231.000         193.000
 -14774017.01749 -11492006.22047  19844768.639    19844767.820    19844780.305
       236.000         200.000
  -6035806.37249  -4688694.56747  20061766.952    20061766.186    20061777.891
       236.000         195.000
 -20537590.41849 -15991103.84447  18822531.424    18822531.293    18822541.862
       237.000         207.000
  -6624416.02649  -5145452.94044  23121100.313    23121100.681    23121118.319
       199.000         128.000
  -9889507.69949  -7688499.01045  22552068.388    22552068.863    22552090.443
       214.000         158.000
 -25134842.95049 -19572535.10447  19811956.311    19811956.921    19811967.295
       240.000         203.000
 01 11 12 18 27 59.9940000  0  7G27G22G20G 1G 4G 3G13
 -20298412.81249 -15790662.49447  21314170.883    21314170.987    21314184.921
       232.000         193.000
 -14738740.01749 -11464517.77047  19851481.688    19851480.912    19851493.423
       236.000         200.000
  -5982964.65649  -4647519.34547  20071822.545    20071821.767    20071833.468
       235.000         195.000
 -20578596.88449 -16023056.92947  18814728.125    18814728.019    18814738.595
       237.000         207.000
  -6619443.36049  -5141578.28244  23122046.860    23122047.137    23122064.774
       196.000         118.000
  -9990727.94749  -7767371.73245  22532806.781    22532807.143    22532828.725
       216.000         158.000
 -25230004.79749 -19646687.13947  19793847.559    19793848.180    19793858.588
       241.000         203.000
 01 11 12 18 28 29.9940000  0  7G27G22G20G 1G 4G 3G13
 -20393587.84049 -15864824.74947  21296059.598    21296059.722    21296073.638
       232.000         193.000
 -14702973.18849 -11436647.63147  19858288.017    19858287.202    19858299.748
       236.000         200.000
  -5929756.49949  -4606058.58047  20081947.781    20081947.047    20081958.776
       235.000         194.000
 -20619309.25449 -16054780.85647  18806980.849    18806980.726    18806991.275
       237.000         208.000
                  -5137424.34444  23123061.443
       192.000         111.000
 -10091767.64649  -7846103.75145  22513579.511    22513579.854    22513601.373
       215.000         160.000
 -25324991.48949 -19720702.69347  19775772.157    19775772.777    19775783.173
       241.000         202.000
 01 11 12 18 28 59.9940000  0  7G27G22G20G 1G 4G 3G13
 -20488596.97549 -15938857.74747  21277979.904    21277980.028    21277993.902
       233.000         194.000
 -14666709.80549 -11408390.56847  19865188.759    19865187.980    19865200.577
       236.000         200.000
  -5876175.18549  -4564307.04147  20092143.971    20092143.294    20092155.094
       234.000         194.000
 -20659716.96549 -16086267.38947  18799291.518    18799291.391    18799301.901
       237.000         207.000
                  -5132985.53344  23124145.651
       188.000         102.000
 -10192614.25249  -7924685.30145  22494388.907    22494389.244    22494410.723
       217.000         159.000
 -25419791.85149 -19794573.05547  19757732.207    19757732.818    19757743.212
       241.000         203.000
 01 11 12 18 29 29.9940000  0  7G27G22G20G 1G 4G 3G13
 -20583449.70749 -16012768.86147  21259929.918    21259930.070    21259943.998
       232.000         193.000
 -14629961.58849 -11379755.70747  19872181.706    19872180.994    19872193.651
       236.000         199.000
  -5822232.51249  -4522273.92347  20102408.957    20102408.330    20102420.214
       235.000         194.000
 -20699828.12649 -16117522.84347  18791658.641    18791658.506    18791668.993
       237.000         207.000
                  -5128270.84744  23125297.024
       181.000         101.000
 -10293274.25549  -8003121.44745  22475233.608    22475234.091    22475255.632
       208.000         156.000
 -25514413.58049 -19868304.22647  19739726.230    19739726.858    19739737.269
       242.000         203.000
 01 11 12 18 29 59.9940000  0  8G27G22G20G 1G 4G 3G31G13
 -20678145.92849 -16086558.01947  21241909.754    21241909.895    21241923.898
       232.000         194.000
 -14592730.95249 -11350744.94947  19879266.507    19879265.838    19879278.536
       236.000         199.000
  -5767930.75049  -4479961.00847  20112742.325    20112741.702    20112753.673
       234.000         194.000
 -20739641.40949 -16148546.19147  18784082.492    18784082.324    18784092.797
       237.000         208.000
                  -5123281.77854  23126515.604
       179.000          95.000
 -10393744.35049  -8081409.62445  22456114.567    22456115.114    22456136.537
       220.000         158.000
    -62783.63353                  23351172.104
       207.000          74.000
 -25608855.01749 -19941894.92547  19721754.628    19721755.226    19721765.625
       242.000         204.000
 01 11 12 18 30 29.9940000  0  8G27G22G20G 1G 4G 3G31G13
 -20772680.94349 -16160221.56447  21223920.279    21223920.427    21223934.418
       233.000         194.000
 -14555015.58749 -11321356.47447  19886443.659    19886442.926    19886455.641
       236.000         199.000
  -5713267.84549  -4437366.67847  20123144.444    20123143.814    20123155.846
       235.000         194.000
 -20779150.69649 -16179332.66347  18776564.093    18776563.945    18776574.434
       236.000         208.000
                       148.19853  23127801.502
       170.000          74.000
 -10494016.69049  -8159543.71345  22437033.412    22437033.814    22437055.044
       216.000         160.000
   -157851.21045                  23327954.691
       208.000         140.000
 -25703109.73049 -20015340.11747  19703818.600    19703819.120    19703829.505
       242.000         204.000
 01 11 12 18 30 59.9940000  0  8G27G22G20G 1G 4G 3G31G13
 -20867064.99549 -16233767.45647  21205959.629    21205959.729    21205973.635
       234.000         193.000
 -14516828.62249 -11291600.52547  19893710.484    19893709.751    19893722.497
       235.000         199.000
  -5658256.91249  -4394501.16347  20133612.855    20133612.177    20133624.237
       235.000         194.000
 -20818365.36649 -16209889.56647  18769101.817    18769101.672    18769112.141
       238.000         208.000
                      5654.02153  23129152.620
       187.000          79.000
 -10594098.65349  -8237529.42945  22417988.376    22417988.748    22418009.958
       216.000         159.000
   -362700.84849   -253011.42945  23304715.306    23304712.895    23304741.114
       203.000         139.000
 -25797186.64149 -20088646.75747  19685916.301    19685916.849    19685927.227
       241.000         203.000
 01 11 12 18 31 29.9940000  0  8G27G22G20G 1G 4G 3G31G13
 -20961285.53849 -16307185.94747  21188029.990    21188030.094    21188043.923
       234.000         192.000
 -14478159.93049 -11261469.21547  19901068.926    19901068.213    19901081.023
       234.000         198.000
  -5602887.41049  -4351356.25347  20144149.437    20144148.768    20144160.849
       234.000         194.000
 -20857271.36449 -16240205.95047  18761698.242    18761698.110    18761708.602
       237.000         208.000
                     11320.71343  23130570.710
       195.000          73.000
 -10693974.38749  -8315354.47745  22398982.451    22398982.839    22399004.070
       215.000         159.000
   -484927.54049   -348252.59755  23281456.185    23281455.694    23281479.800
       204.000         143.000
 -25891071.28349 -20161803.57847  19668050.599    19668051.152    19668061.533
       242.000         204.000
 01 11 12 18 31 59.9940000  0  8G27G22G20G 1G 4G 3G31G13
 -21055351.52449 -16380483.99347  21170129.770    21170129.885    21170143.654
       233.000         192.000
 -14439020.82049 -11230971.34847  19908516.850    19908516.183    19908529.054
       235.000         198.000
  -5547170.87949  -4307940.91847  20154752.075    20154751.398    20154763.489
       234.000         193.000
 -20895875.97749 -16270287.47947  18754352.046    18754351.902    18754362.427
       237.000         208.000
                     17253.50443  23132053.805
       196.000          80.000
 -10793649.65549  -8393023.32745  22380014.695    22380015.123    22380036.265
       217.000         159.000
   -607263.91859   -443579.24245  23258175.945    23258174.829    23258200.098
       205.000         146.000
 -25984770.79249 -20234816.14247  19650220.166    19650220.716    19650231.096
       242.000         204.000
 01 11 12 18 32 29.9940000  0  8G27G22G20G 1G 4G 3G31G13
 -21149264.62549 -16453662.93247  21152258.580    21152258.722    21152272.462
       232.000         192.000
 -14399415.48049 -11200110.19047  19916053.603    19916052.931    19916065.809
       235.000         198.000
  -5491111.43149  -4264258.37847  20165419.878    20165419.268    20165431.400
       234.000         193.000
 -20934179.76549 -16300134.61347  18747063.059    18747062.950    18747073.452
       237.000         208.000
                      5882.99843  23133600.850
       190.000          83.000
 -10893123.06449  -8470534.91345  22361085.385    22361085.800    22361106.926
       216.000         158.000
   -729708.77349   -538990.39445  23234875.481    23234874.530    23234899.617
       207.000         148.000
 -26078285.05449 -20307684.37147  19632424.988    19632425.506    19632435.885
       242.000         204.000
 01 11 12 18 32 59.9940000  0  8G27G22G20G 1G 4G 3G31G13
 -21243011.96849 -16526712.70647  21134418.883    21134419.078    21134432.870
       233.000         192.000
 -14359333.69549 -11168877.78347  19923681.037    19923680.341    19923693.266
       234.000         197.000
  -5434698.79149  -4220300.63747  20176155.005    20176154.357    20176166.536
       234.000         193.000
 -20972168.66749 -16329736.37747  18739834.015    18739833.897    18739844.432
       237.000         208.000
                     12483.50443  23135214.063
       189.000          72.000
 -10992378.75849  -8547876.84745  22342197.481    22342197.913    22342218.961
       216.000         158.000
   -852246.61249   -634474.05045  23211556.977    23211556.180    23211581.262
       198.000         143.000
 -26171599.76049 -20380397.10447  19614667.778    19614668.279    19614678.663
       242.000         204.000
 01 11 12 18 33 29.9940000  0  8G27G22G20G 1G 4G 3G31G13
 -21336574.13349 -16599618.19747  21116614.481    21116614.702    21116628.476
       234.000         193.000
 -14318758.79649 -11137261.13447  19931402.335    19931401.592    19931414.548
       234.000         197.000
  -5377916.41249  -4176054.77747  20186960.397    20186959.806    20186972.012
       234.000         193.000
 -21009822.16449 -16359076.78547  18732668.769    18732668.685    18732679.220
       237.000         208.000
                     19368.48943  23136896.968
       188.000          77.000
 -11091394.28349  -8625031.64745  22323355.422    22323355.789    22323376.690
       217.000         158.000
   -974855.02749   -730012.65345  23188225.102    23188224.437    23188249.370
       201.000         146.000
 -26264693.99149 -20452938.03747  19596952.500    19596953.017    19596963.380
       242.000         204.000
 01 11 12 18 33 59.9940000  0  9G27G22G20G 1G 4G 3G31G 8G13
 -21429975.19849 -16672398.16347  21098840.776    21098840.992    21098854.720
       234.000         192.000
 -14277717.12449 -11105280.76647  19939212.334    19939211.646    19939224.672
       234.000         197.000
  -5320790.51949  -4131541.24247  20197831.246    20197830.604    20197842.866
       232.000         192.000
 -21047162.87349 -16388173.46947  18725563.132    18725563.005    18725573.538
       237.000         208.000
                      5937.77453  23138643.968
       179.000          74.000
 -11190190.29649  -8702015.36245  22304554.978    22304555.409    22304576.240
       215.000         156.000
  -1097555.05749   -825622.70645  23164875.836    23164875.306    23164900.159
       202.000         142.000
   -214172.99554                  23177685.048
       213.000          95.000
 -26357589.57649 -20525324.18247  19579275.022    19579275.548    19579285.889
       242.000         204.000
 01 11 12 18 34 29.9940000  0  9G27G22G20G 1G 4G 3G31G 8G13
 -21523218.53049 -16745055.23047  21081097.131    21081097.325    21081110.988
       234.000         193.000
 -14236214.65549 -11072941.34547  19947110.154    19947109.401    19947122.490
       235.000         197.000
  -5263327.05049  -4086764.67147  20208766.256    20208765.646    20208777.969
       234.000         192.000
 -21084192.79349 -16417027.97847  18718516.606    18718516.478    18718526.995
       237.000         208.000
                     13261.06953  23140454.695
       184.000          81.000
 -11288766.91249  -8778828.15145  22285796.414    22285796.724    22285817.431
       212.000         153.000
  -1220347.55649   -921304.84645  23141509.166    23141508.600    23141533.329
       198.000         143.000
    -18371.71743                  23154585.702
       213.000          74.000
 -26450288.09849 -20597556.77247  19561635.068    19561635.583    19561645.892
       243.000         204.000
 01 11 12 18 34 59.9940000  0  9G27G22G20G 1G 4G 3G31G 8G13
 -21616317.17549 -16817599.53547  21063380.929    21063381.147    21063394.811
       233.000         193.000
 -14194267.09649 -11040255.09447  19955092.635    19955091.862    19955105.001
       234.000         197.000
  -5205541.64849  -4041737.24447  20219762.580    20219761.959    20219774.331
       233.000         192.000
 -21120923.81449 -16445649.57547  18711526.947    18711526.806    18711537.328
       237.000         207.000
                     20831.21053  23142325.812
       176.000          85.000
 -11387134.19549  -8855477.80745  22267077.559    22267077.825    22267098.452
       212.000         154.000
  -1343242.16749  -1017066.54545  23118122.822    23118122.433    23118147.030
       205.000         146.000
   -112893.53245                  23131502.657                    23131525.618
       214.000         153.000
 -26542800.92649 -20669644.66547  19544030.437    19544030.954    19544041.241
       242.000         205.000
 01 11 12 18 35 29.9940000  0  9G27G22G20G 1G 4G 3G31G 8G13
 -21709257.99749 -16890020.88747  21045694.753    21045694.992    21045708.614
       233.000         192.000
 -14151863.80649 -11007213.73647  19963161.806    19963161.061    19963174.201
       235.000         198.000
  -5147423.68149  -3996450.67447  20230822.220    20230821.561    20230833.985
       233.000         192.000
 -21157341.31349 -16474026.87147  18704596.927    18704596.797    18704607.292
       237.000         208.000
                      6043.84943  23144259.670
       175.000          74.000
 -11485276.12349  -8931951.86045  22248401.624    22248401.890    22248422.448
       217.000         155.000
  -1466222.95249  -1112895.41045  23094720.560    23094720.060    23094744.395
       203.000         144.000
   -660117.08749   -207339.06445  23108438.405    23108438.147    23108458.674
       206.000         146.000
 -26635113.46649 -20741576.48647  19526463.940    19526464.443    19526474.726
       242.000         205.000
 01 11 12 18 35 59.9940000  0  9G27G22G20G 1G 4G 3G31G 8G13
 -21802027.07649 -16962308.41747  21028041.314    21028041.539    21028055.114
       235.000         193.000
 -14108993.33749 -10973808.33347  19971319.974    19971319.169    19971332.339
       235.000         197.000
  -5088961.84149  -3950896.15547  20241947.235    20241946.585    20241959.063
       233.000         191.000
 -21193430.18549 -16502148.09347  18697729.495    18697729.346    18697739.841
       238.000         208.000
                     14092.43853  23146258.268
       178.000          80.000
 -11583175.43349  -9008236.87245  22229771.894    22229772.162    22229792.628
       216.000         156.000
  -1589273.11149  -1208778.38545  23071304.497    23071304.198    23071328.525
       203.000         144.000
   -781209.16159   -301696.55855  23085395.601    23085396.038    23085416.182
       202.000         135.000
 -26727209.81849 -20813339.84447  19508938.527    19508939.066    19508949.325
       242.000         205.000
 01 11 12 18 36 29.9940000  0  9G27G22G20G 1G 4G 3G31G 8G13
 -21894637.53849 -17034472.35547  21010418.117    21010418.301    21010431.831
       234.000         193.000
 -14065671.69849 -10940051.37847  19979563.962    19979563.115    19979576.337
       234.000         197.000
  -5030171.82549  -3905085.90947  20253134.719    20253134.081    20253146.587
       233.000         191.000
 -21229202.50049 -16530022.65047  18690922.286    18690922.121    18690932.607
       237.000         208.000
                     22382.82143  23148318.697
       187.000          78.000
 -11680842.17849  -9084340.65245  22211186.533    22211186.695    22211207.104
       215.000         155.000
  -1712402.55049  -1304723.18345  23047873.296    23047873.314    23047897.448
       204.000         142.000
   -902200.93349   -395975.93445  23062371.611    23062371.571    23062392.792
       209.000         140.000
 -26819101.62349 -20884943.81247  19491452.136    19491452.638    19491462.866
       242.000         205.000
 01 11 12 18 36 59.9940000  0  9G27G22G20G 1G 4G 3G31G 8G13
 -21987094.01749 -17106516.30247  20992824.189    20992824.351    20992837.864
       235.000         194.000
 -14021905.93649 -10905948.34947  19987892.455    19987891.598    19987904.871
       236.000         197.000
  -4971060.88549  -3859025.60147  20264383.343    20264382.654    20264395.209
       234.000         192.000
 -21264661.35049 -16557652.94647  18684174.730    18684174.535    18684185.023
       237.000         208.000
                      5765.27643  23150439.535
       190.000          74.000
 -11778277.66949  -9160264.25045  22192644.861    22192645.185    22192665.587
       214.000         157.000
  -1835612.94149  -1400731.02645  23024426.983    23024426.907    23024450.886
       203.000         141.000
  -1023096.45549   -490180.32145  23039366.038    23039365.889    23039387.054
       210.000         147.000
 -26910791.61849 -20956390.52047  19474004.042    19474004.572    19474014.813
       241.000         205.000
 01 11 12 18 37 29.9940000  0  9G27G22G20G 1G 4G 3G31G 8G13
 -22079400.79949 -17178443.60247  20975258.666    20975258.844    20975272.386
       233.000         195.000
 -13977702.95749 -10871504.63047  19996304.192    19996303.288    19996316.551
       235.000         196.000
  -4911635.92249  -3812720.61247  20275691.704    20275690.983    20275703.570
       233.000         191.000
 -21299809.78549 -16585041.35347  18677486.252    18677486.035    18677496.534
       237.000         208.000
                     14729.61543  23152619.352
       186.000          87.000
 -11875483.36749  -9236008.80245  22174147.100    22174147.434    22174167.803
       219.000         158.000
  -1958905.65249  -1496803.03745  23000964.922    23000964.930    23000988.787
       206.000         142.000
  -1143899.36949   -584312.44445  23016378.075    23016377.954    23016399.256
       201.000         147.000
 -27002282.23949 -21027681.87347  19456593.897    19456594.453    19456604.673
       241.000         205.000
 01 11 12 18 37 59.9940000  0  9G27G22G20G 1G 4G 3G31G 8G13
 -22171532.94449 -17250234.81247  20957726.425    20957726.615    20957740.177
       232.000         195.000
 -13933040.57049 -10836702.91847  20004803.283    20004802.390    20004815.652
       234.000         196.000
  -4851874.46049  -3766153.42147  20287064.022    20287063.345    20287075.941
       232.000         189.000
 -21334621.77649 -16612167.59947  18670861.703    18670861.540    18670872.063
       237.000         208.000
                     23962.60343  23154863.095
       187.000          87.000
 -11972431.35449  -9311552.56045  22155698.454    22155698.708    22155718.979
       217.000         158.000
  -2082252.72849  -1592917.44645  22977492.463    22977492.543    22977516.249
       208.000         145.000
  -1264584.37149   -678352.65745  22993412.302    22993412.174    22993433.662
       206.000         143.000
 -27093546.68249 -21098796.98447  19439226.842    19439227.382    19439237.598
       241.000         205.000
 01 11 12 18 38 29.9940000  0  9G27G22G20G 1G 4G 3G31G 8G13
 -22263514.73949 -17321908.86747  20940222.759    20940222.984    20940236.520
       234.000         195.000
 -13887945.60649 -10801564.13747  20013384.677    20013383.809    20013397.096
       234.000         196.000
  -4791803.49449  -3719345.04847  20298495.282    20298494.603    20298507.188
       232.000         189.000
 -21369120.14649 -16639049.46247  18664296.905    18664296.741    18664307.255
       237.000         208.000
                      5312.26053  23157165.144
       185.000          74.000
 -12069142.57549  -9386911.80146  22137294.641    22137295.021    22137315.345
       218.000         163.000
  -2205675.37049  -1689090.68545  22954005.571    22954005.854    22954029.486
       209.000         146.000
  -1385175.10849   -772319.42745  22970464.686    22970464.479    22970485.904
       213.000         144.000
 -27184607.30249 -21169753.25847  19421898.559    19421899.085    19421909.325
       241.000         205.000
 01 11 12 18 38 59.9930000  0  9G27G22G20G 1G 4G 3G31G 8G13
 -22355310.93049 -17393438.30047  20922754.582    20922754.734    20922768.194
       234.000         195.000
 -13842390.02849 -10766066.43947  20022053.794    20022052.876    20022066.193
       235.000         196.000
  -4731395.35849  -3672273.95747  20309990.694    20309990.007    20310002.620
       232.000         189.000
 -21403270.28749 -16665659.98147  18657798.384    18657798.207    18657808.702
       237.000         208.000
                     14989.53443  23159531.469
       193.000          86.000
 -12165578.67849  -9462056.69745  22118943.492    22118943.746    22118964.003
       219.000         161.000
  -2329134.19049  -1785292.11145  22930511.873    22930512.278    22930535.750
       208.000         143.000
  -1505634.64949   -866183.98445  22947542.065    22947541.844    22947563.116
       208.000         146.000
 -27275427.62649 -21240522.28647  19404615.937    19404616.514    19404626.764
       240.000         205.000
 01 11 12 18 39 29.9930000  0  9G27G22G20G 1G 4G 3G31G 8G13
 -22446994.76549 -17464880.17647  20905307.691    20905307.839    20905321.274
       233.000         196.000
 -13796440.61349 -10730261.86247  20030797.801    20030796.894    20030810.265
       234.000         195.000
  -4670715.77749  -3624991.34947  20321537.880    20321537.093    20321549.741
       232.000         189.000
 -21437140.43349 -16692052.32047  18651353.095    18651352.943    18651363.450
       237.000         208.000
                     24871.34043  23161948.817
       196.000          86.000
 -12261810.20849  -9537042.17945  22100631.023    22100631.362    22100651.555
       219.000         161.000
  -2452701.84449  -1881578.36745  22906997.819    22906997.996    22907021.264
       207.000         145.000
  -1626037.88849   -960004.50445  22924630.085    22924629.838    22924651.102
       204.000         149.000
 -27366078.43949 -21311159.22947  19387365.635    19387366.198    19387376.450
       240.000         205.000
 01 11 12 18 39 59.9930000  0  9G27G22G20G 1G 4G 3G31G 8G13
 -22538514.19049 -17536193.94947  20887892.066    20887892.205    20887905.612
       233.000         195.000
 -13750052.52349 -10694115.46447  20039625.258    20039624.361    20039637.793
       233.000         195.000
  -4609720.26749  -3577462.56047  20333145.054    20333144.273    20333156.964
       232.000         189.000
 -21470679.09849 -16718186.37147  18644970.905    18644970.757    18644981.295
       238.000         208.000
                      5044.79543  23164425.879
       195.000          74.000
 -12357781.71449  -9611825.03546  22082368.315    22082368.465    22082388.608
       222.000         165.000
  -2576322.19549  -1977905.55545  22883473.525    22883473.628    22883496.775
       209.000         145.000
  -1746330.94649  -1053739.13145  22901738.847    22901738.742    22901760.176
       203.000         148.000
 -27456506.27549 -21381622.42747  19370157.736    19370158.321    19370168.570
       241.000         206.000
 01 11 12 18 40 29.9930000  0  9G27G22G20G 1G 4G 3G31G 8G13
 -22629872.13649 -17607381.87847  20870507.094    20870507.289    20870520.695
       234.000         196.000
 -13703231.35649 -10657631.60347  20048535.134    20048534.249    20048547.751
       234.000         195.000
  -4548414.44249  -3529691.97447  20344811.321    20344810.514    20344823.263
       232.000         188.000
 -21503887.92949 -16744063.41047  18638651.508    18638651.348    18638661.889
       237.000         208.000
                     15431.46943  23166961.770
       189.000          79.000
 -12453493.17249  -9686405.24546  22064154.973    22064155.066    22064175.201
       223.000         167.000
  -2699995.05849  -2074273.67145  22859938.962    22859939.328    22859962.296
       206.000         148.000
  -1866516.64849  -1147390.09445  22878868.164    22878868.065    22878889.603
       205.000         145.000
 -27546712.41649 -21451912.87547  19352992.045    19352992.643    19353002.889
       240.000         206.000
 01 11 12 18 40 59.9930000  0  9G27G22G20G 1G 4G 3G31G 8G13
 -22721078.55949 -17678451.74647  20853151.077    20853151.253    20853164.616
       235.000         197.000
 -13655989.71149 -10620820.10547  20057524.978    20057524.130    20057537.707
       232.000         194.000
  -4486810.89249  -3481689.39247  20356534.196    20356533.404    20356546.226
       231.000         188.000
 -21536775.72149 -16769690.28847  18632393.179    18632393.023    18632403.563
       237.000         208.000
                     26051.00943  23169554.038
       187.000          83.000
 -12548951.03149  -9760787.85746  22045989.951    22045989.989    22046010.025
       221.000         168.000
  -2823727.26649  -2170688.02445  22836393.359    22836393.580    22836416.647
       204.000         145.000
  -1986604.10549  -1240964.43845  22856016.271    22856016.072    22856037.644
       204.000         148.000
 -27636704.71749 -21522036.69147  19335867.051    19335867.634    19335877.909
       241.000         206.000
 01 11 12 18 41 29.9930000  0  9G27G22G20G 1G 4G 3G31G 8G13
 -22812121.95649 -17749394.57547  20835826.146    20835826.247    20835839.581
       234.000         196.000
 -13608318.70549 -10583674.03447  20066596.569    20066595.723    20066609.341
       233.000         193.000
  -4424900.68349  -3433447.86046  20368315.382    20368314.637    20368327.506
       230.000         187.000
 -21569329.93849 -16795057.23147  18626198.345    18626198.176    18626208.715
       238.000         208.000
                      4662.74243  23172204.834
       191.000          74.000
 -12644140.93549  -9834961.61946  22027875.729    22027875.883    22027895.875
       220.000         168.000
  -2947504.07749  -2267137.09945  22812839.207    22812839.415    22812862.404
       202.000         144.000
  -2106581.38349  -1334452.94245  22833184.917    22833185.004    22833206.674
       206.000         149.000
 -27726469.61049 -21591983.30547  19318785.314    19318785.899    19318796.192
       241.000         206.000
 01 11 12 18 41 59.9930000  0  9G27G22G20G 1G 4G 3G31G 8G13
 -22903002.59449 -17820210.57147  20818532.093    20818532.187    20818545.532
       234.000         197.000
 -13560221.31049 -10546195.71347  20075749.349    20075748.475    20075762.113
       232.000         193.000
  -4362686.89249  -3384969.77546  20380154.376    20380153.658    20380166.588
       231.000         187.000
 -21601549.47649 -16820163.39047  18620067.133    18620067.004    18620077.583
       237.000         208.000
                     15758.05243  23174912.955
       185.000          80.000
 -12739060.02449  -9908924.37046  22009813.157    22009813.297    22009833.203
       218.000         167.000
  -3071323.00049  -2363618.94745  22789276.697    22789277.115    22789300.231
       202.000         144.000
  -2226448.36649  -1427855.48245  22810374.716    22810374.935    22810396.651
       212.000         152.000
 -27816006.02549 -21661751.89747  19301747.088    19301747.652    19301757.936
       241.000         206.000
 01 11 12 18 42 29.9930000  0  9G27G22G20G 1G 4G 3G31G 8G13
 -22993736.38949 -17890912.14347  20801265.869    20801266.028    20801279.417
       232.000         196.000
 -13511715.99449 -10508399.53547  20084979.763    20084978.847    20084992.518
       233.000         193.000
  -4300187.83849  -3336269.39746  20392047.725    20392046.953    20392059.920
       231.000         187.000
 -21633448.75049 -16845019.99547  18613996.918    18613996.803    18614007.375
       237.000         208.000
                     27079.27643  23177675.549
       179.000          81.000
 -12833721.32549  -9982686.21846  21991799.422    21991799.723    21991819.653
       219.000         167.000
  -3195196.59449  -2460143.42745  22765704.061    22765704.517    22765727.667
       203.000         145.000
  -2346220.40149  -1521183.99545  22787582.884    22787583.047    22787604.593
       212.000         155.000
 -27905327.86049 -21731353.28247  19284749.672    19284750.245    19284760.498
       241.000         206.000
 01 11 12 18 42 59.9930000  0  9G27G22G20G 1G 4G 3G31G 8G13
 -23084320.53049 -17961497.11947  20784028.265    20784028.396    20784041.722
       235.000         197.000
 -13462802.80449 -10470285.54447  20094287.687    20094286.843    20094300.589
       232.000         194.000
  -4237403.60449  -3287346.81347  20403995.292    20403994.555    20404007.555
       231.000         188.000
 -21665023.91949 -16869624.05147  18607988.399    18607988.254    18607998.836
       237.000         208.000
                      3800.52643  23180492.097
       184.000          74.000
 -12928118.90449 -10056242.56046  21973836.046    21973836.353    21973856.235
       221.000         165.000
  -3319119.22049  -2556706.07645  22742122.140    22742122.559    22742145.573
       205.000         145.000
  -2465894.06849  -1614435.83545  22764809.607    22764809.745    22764831.257
       216.000         158.000
 -27994430.53649 -21800783.89447  19267793.996    19267794.556    19267804.746
       241.000         206.000
 01 11 12 18 43 29.9930000  0  9G27G22G20G 1G 4G 3G31G 8G13
 -23174724.96149 -18031942.05247  20766824.831    20766824.958    20766838.248
       234.000         197.000
 -13413454.13249 -10431832.22447  20103678.543    20103677.717    20103691.507
       232.000         193.000
  -4174306.55749  -3238180.47746  20416002.466    20416001.663    20416014.744
       230.000         187.000
 -21696243.48949 -16893951.01747  18602047.542    18602047.398    18602057.995
       238.000         209.000
                     15573.29943  23183368.537
       182.000          83.000
 -13022219.35849 -10129567.35446  21955929.067    21955929.462    21955949.315
       221.000         163.000
  -3443057.62649  -2653281.03045  22718537.350    22718537.667    22718560.634
       207.000         148.000
  -2585438.90349  -1707587.31045  22742060.842    22742061.014    22742082.535
       214.000         154.000
 -28083281.79349 -21870018.59747  19250886.160    19250886.689    19250896.851
       241.000         206.000
 01 11 12 18 43 59.9930000  0  9G27G22G20G 1G 4G 3G31G 8G13
 -23264978.11149 -18102269.12147  20749650.146    20749650.289    20749663.543
       235.000         197.000
 -13363701.15149 -10393063.84747  20113146.428    20113145.534    20113159.320
       233.000         193.000
  -4110927.66449  -3188794.51646  20428063.132    20428062.395    20428075.568
       230.000         187.000
 -21727134.76349 -16918022.16547  18596169.224    18596169.026    18596179.608
       238.000         208.000
                     27561.06753  23186298.510
       180.000          88.000
 -13116048.35249 -10202680.61846  21938073.845    21938074.242    21938094.035
       221.000         163.000
  -3567037.01449  -2749887.91645  22694944.427    22694944.864    22694967.889
       207.000         147.000
  -2704882.61549  -1800659.98345  22719331.238    22719331.434    22719353.031
       218.000         156.000
 -28171908.34449 -21939078.20447  19234021.020    19234021.584    19234031.738
       240.000         206.000
 01 11 12 18 44 29.9930000  0  9G27G22G20G 1G 4G 3G31G 8G13
 -23355084.28449 -18172481.65647  20732503.403    20732503.574    20732516.857
       234.000         197.000
 -13313550.89249 -10353985.92047  20122689.892    20122688.972    20122702.759
       233.000         193.000
  -4047274.00049  -3139194.45246  20440176.078    20440175.403    20440188.637
       230.000         187.000
 -21757700.69349 -16941839.81447  18590352.773    18590352.562    18590363.096
       237.000         208.000
                      2792.63353  23189281.089
       170.000          74.000
 -13209607.07149 -10275583.26146  21920270.155    21920270.460    21920290.234
       218.000         165.000
  -3691058.64949  -2846527.77745  22671343.526    22671344.009    22671367.040
       211.000         150.000
  -2824229.20549  -1893657.00445  22696620.090    22696620.354    22696641.980
       212.000         150.000
 -28260312.72649 -22007964.69847  19217198.182    19217198.750    19217208.903
       241.000         206.000
 01 11 12 18 44 59.9930000  0  9G27G22G20G 1G 4G 3G31G 8G13
 -23445033.32649 -18242571.75847  20715386.711    20715386.815    20715400.067
       236.000         198.000
 -13262995.74249 -10314592.48447  20132310.470    20132309.461    20132323.267
       233.000         191.000
  -3983337.83849  -3089374.25846  20452342.910    20452342.214    20452355.463
       231.000         187.000
 -21787929.86049 -16965395.04347  18584600.306    18584600.142    18584610.731
       238.000         209.000
                     15221.29953  23192317.378
       176.000          74.000
 -13302882.33249 -10348265.03645  21902520.268    21902520.586    21902540.404
       218.000         162.000
  -3815109.12249  -2943190.11745  22647737.595    22647737.863    22647760.688
       214.000         152.000
  -2943467.84649  -1986569.92345  22673929.417    22673929.701    22673951.329
       214.000         151.000
 -28348482.77749 -22076668.59747  19200419.971    19200420.521    19200430.655
       241.000         206.000
